[[{"header":{"parameterUnit":"m.s-1","parameterCategory":1,"la1":30.6,"la2":28.766,"lo1":-90.7593,"lo2":-88.6598,"dy":0.0162,"dx":0.0183,"nx":116,"ny":114,"refTime":"2023-04-22T06:00:00:Z","depth":0,"parameterNumber":2,"parameterNumberName":"U-component_of_WINDS"},"data":[0.0,0.0,0.0,0.0,0.0,0.0,0.0,0.0,0.0,0.0,0.0,0.0,0.0,0.0,0.0,0.0,0.0,0.0,0.0,0.0,0.0,0.0,0.0,0.0,0.0,0.0,0.0,0.0,0.0,0.0,0.0,0.0,0.0,0.0,0.0,0.0,0.0,0.0,0.0,0.0,0.0,0.0,0.0,0.0,0.0,0.0,0.0,0.0,0.0,0.0,0.0,0.0,0.0,0.0,0.0,0.0,0.0,0.0,0.0,0.0,0.0,0.0,0.0,0.0,0.0,0.0,0.0,0.0,0.0,0.0,0.0,0.0,0.0,0.0,0.0,0.0,0.0,0.0,0.0,0.0,0.0,0.0,0.0,0.0,0.0,0.0,0.0,0.0,0.0,0.0,0.0,0.0,0.0,0.0,0.0,0.0,0.0,0.0,0.0,0.0,0.0,0.0,0.0,0.0,0.0,0.0,0.0,0.0,0.0,0.0,0.0,0.0,0.0,0.0,0.0,0.0,0.0,0.0,0.0,0.0,0.0,0.0,0.0,0.0,0.0,0.0,0.0,0.0,0.0,0.0,0.0,0.0,0.0,0.0,0.0,0.0,0.0,0.0,0.0,0.0,0.0,0.0,0.0,0.0,0.0,0.0,0.0,0.0,0.0,0.0,0.0,0.0,0.0,0.0,0.0,0.0,0.0,0.0,0.0,0.0,0.0,0.0,0.0,0.0,0.0,0.0,0.0,0.0,0.0,0.0,0.0,0.0,0.0,0.0,0.0,0.0,0.0,0.0,0.0,0.0,0.0,0.0,0.0,0.0,0.0,0.0,0.0,0.0,0.0,0.0,0.0,0.0,0.0,0.0,0.0,0.0,0.0,0.0,0.0,0.0,0.0,0.0,0.0,0.0,0.0,0.0,0.0,0.0,0.0,0.0,0.0,0.0,0.0,0.0,0.0,0.0,0.0,0.0,0.0,0.0,0.0,0.0,0.0,0.0,0.0,0.0,0.0,0.0,0.0,0.0,0.0,0.0,0.0,0.0,0.0,0.0,0.0,0.0,0.0,0.0,0.0,0.0,0.0,0.0,0.0,0.0,0.0,0.0,0.0,0.0,0.0,0.0,0.0,0.0,0.0,0.0,0.0,0.0,0.0,0.0,0.0,0.0,0.0,0.0,0.0,0.0,0.0,0.0,0.0,0.0,0.0,0.0,0.0,0.0,0.0,0.0,0.0,0.0,0.0,0.0,0.0,0.0,0.0,0.0,0.0,0.0,0.0,0.0,0.0,0.0,0.0,0.0,0.0,0.0,0.0,0.0,0.0,0.0,0.0,0.0,0.0,0.0,0.0,0.0,0.0,0.0,0.0,0.0,0.0,0.0,0.0,0.0,0.0,0.0,0.0,0.0,0.0,0.0,0.0,0.0,0.0,0.0,0.0,0.0,0.0,0.0,0.0,0.0,0.0,0.0,0.0,0.0,0.0,0.0,0.0,0.0,0.0,0.0,0.0,0.0,0.0,0.0,0.0,0.0,0.0,0.0,0.0,0.0,0.0,0.0,0.0,0.0,0.0,0.0,0.0,0.0,0.0,0.0,0.0,0.0,0.0,0.0,0.0,0.0,0.0,0.0,0.0,0.0,0.0,0.0,0.0,0.0,0.0,0.0,0.0,0.0,0.0,0.0,0.0,0.0,0.0,0.0,0.0,0.0,0.0,0.0,0.0,0.0,0.0,0.0,0.0,0.0,0.0,0.0,0.0,0.0,0.0,0.0,0.0,0.0,0.0,0.0,0.0,0.0,0.0,0.0,0.0,0.0,0.0,0.0,0.0,0.0,0.0,0.0,0.0,0.0,0.0,0.0,0.0,0.0,0.0,0.0,0.0,0.0,0.0,0.0,0.0,0.0,0.0,0.0,0.0,0.0,0.0,0.0,0.0,0.0,0.0,0.0,0.0,0.0,0.0,0.0,0.0,0.0,0.0,0.0,0.0,0.0,0.0,0.0,0.0,0.0,0.0,0.0,0.0,0.0,0.0,0.0,0.0,0.0,0.0,0.0,0.0,0.0,0.0,0.0,0.0,0.0,0.0,0.0,0.0,0.0,0.0,0.0,0.0,0.0,0.0,0.0,0.0,0.0,0.0,0.0,0.0,0.0,0.0,0.0,0.0,0.0,0.0,0.0,0.0,0.0,0.0,0.0,0.0,0.0,0.0,0.0,0.0,0.0,0.0,0.0,0.0,0.0,0.0,0.0,0.0,0.0,0.0,0.0,0.0,0.0,0.0,0.0,0.0,0.0,0.0,0.0,0.0,0.0,0.0,0.0,0.0,0.0,0.0,0.0,0.0,0.0,0.0,0.0,0.0,0.0,0.0,0.0,0.0,0.0,0.0,0.0,0.0,0.0,0.0,0.0,0.0,0.0,0.0,0.0,0.0,0.0,0.0,0.0,0.0,0.0,0.0,0.0,0.0,0.0,0.0,0.0,0.0,0.0,0.0,0.0,0.0,0.0,0.0,0.0,0.0,0.0,0.0,0.0,0.0,0.0,0.0,0.0,0.0,0.0,0.0,0.0,0.0,0.0,0.0,0.0,0.0,0.0,0.0,0.0,0.0,0.0,0.0,0.0,0.0,0.0,0.0,0.0,0.0,0.0,0.0,0.0,0.0,0.0,0.0,0.0,0.0,0.0,0.0,0.0,0.0,0.0,0.0,0.0,0.0,0.0,0.0,0.0,0.0,0.0,0.0,0.0,0.0,0.0,0.0,0.0,0.0,0.0,0.0,0.0,0.0,0.0,0.0,0.0,0.0,0.0,0.0,0.0,0.0,0.0,0.0,0.0,0.0,0.0,0.0,0.0,0.0,0.0,0.0,0.0,0.0,0.0,0.0,0.0,0.0,0.0,0.0,0.0,0.0,0.0,0.0,0.0,0.0,0.0,0.0,0.0,0.0,0.0,0.0,0.0,0.0,0.0,0.0,0.0,0.0,0.0,0.0,0.0,0.0,0.0,0.0,0.0,0.0,0.0,0.0,0.0,0.0,0.0,0.0,0.0,0.0,0.0,0.0,0.0,0.0,0.0,0.0,0.0,0.0,0.0,0.0,0.0,0.0,0.0,0.0,0.0,0.0,0.0,0.0,0.0,0.0,0.0,0.0,0.0,0.0,0.0,0.0,0.0,0.0,0.0,0.0,0.0,0.0,0.0,0.0,0.0,0.0,0.0,0.0,0.0,0.0,0.0,0.0,0.0,0.0,0.0,0.0,0.0,0.0,0.0,0.0,0.0,0.0,0.0,0.0,0.0,0.0,0.0,0.0,0.0,0.0,0.0,0.0,0.0,0.0,0.0,0.0,0.0,0.0,0.0,0.0,0.0,0.0,0.0,0.0,0.0,0.0,0.0,0.0,0.0,0.0,0.0,0.0,0.0,0.0,0.0,0.0,0.0,0.0,0.0,0.0,0.0,0.0,0.0,0.0,0.0,0.0,0.0,0.0,0.0,0.0,0.0,0.0,0.0,0.0,0.0,0.0,0.0,0.0,0.0,0.0,0.0,0.0,0.0,0.0,0.0,0.0,0.0,0.0,0.0,0.0,0.0,0.0,0.0,0.0,0.0,0.0,0.0,0.0,0.0,0.0,0.0,0.0,0.0,0.0,0.0,0.0,0.0,0.0,0.0,0.0,0.0,0.0,0.0,0.0,0.0,0.0,0.0,0.0,0.0,0.0,0.0,0.0,0.0,0.0,0.0,0.0,0.0,0.0,0.0,0.0,0.0,0.0,0.0,0.0,0.0,0.0,0.0,0.0,0.0,0.0,0.0,0.0,0.0,0.0,0.0,0.0,0.0,0.0,0.0,0.0,0.0,0.0,0.0,0.0,0.0,0.0,0.0,0.0,0.0,0.0,0.0,0.0,0.0,0.0,0.0,0.0,0.0,0.0,0.0,0.0,0.0,0.0,0.0,0.0,0.0,0.0,0.0,0.0,0.0,0.0,0.0,0.0,0.0,0.0,0.0,0.0,0.0,0.0,0.0,0.0,0.0,0.0,0.0,0.0,0.0,0.0,0.0,0.0,0.0,0.0,0.0,0.0,0.0,0.0,0.0,0.0,0.0,0.0,0.0,0.0,0.0,0.0,0.0,0.0,0.0,0.0,0.0,0.0,0.0,0.0,0.0,0.0,0.0,0.0,0.0,0.0,0.0,0.0,0.0,0.0,0.0,0.0,0.0,0.0,0.0,0.0,0.0,0.0,0.0,0.0,0.0,0.0,0.0,0.0,0.0,0.0,0.0,0.0,0.0,0.0,0.0,0.0,0.0,0.0,0.0,0.0,0.0,0.0,0.0,0.0,0.0,0.0,0.0,0.0,0.0,0.0,0.0,0.0,0.0,0.0,0.0,0.0,0.0,0.0,0.0,0.0,0.0,0.0,0.0,0.0,0.0,0.0,0.0,0.0,0.0,0.0,0.0,0.0,0.0,0.0,0.0,0.0,0.0,0.0,0.0,0.0,0.0,0.0,0.0,0.0,0.0,0.0,0.0,0.0,0.0,0.0,0.0,0.0,0.0,0.0,0.0,0.0,0.0,0.0,0.0,0.0,0.0,0.0,0.0,0.0,0.0,0.0,0.0,0.0,0.0,0.0,0.0,0.0,0.0,0.0,0.0,0.0,0.0,0.0,0.0,0.0,0.0,0.0,0.0,0.0,0.0,0.0,0.0,0.0,0.0,0.0,0.0,0.0,0.0,0.0,0.0,0.0,0.0,0.0,0.0,0.0,0.0,0.0,0.0,0.0,0.0,0.0,0.0,0.0,0.0,0.0,0.0,0.0,0.0,0.0,0.0,0.0,0.0,0.0,0.0,0.0,0.0,0.0,0.0,0.0,0.0,0.0,0.0,0.0,0.0,0.0,0.0,0.0,0.0,0.0,0.0,0.0,0.0,0.0,0.0,0.0,0.0,0.0,0.0,0.0,0.0,0.0,0.0,0.0,0.0,0.0,0.0,0.0,0.0,0.0,0.0,0.0,0.0,0.0,0.0,0.0,0.0,0.0,0.0,0.0,0.0,0.0,0.0,0.0,0.0,0.0,0.0,0.0,0.0,0.0,0.0,0.0,0.0,0.0,0.0,0.0,0.0,0.0,0.0,0.0,0.0,0.0,0.0,0.0,0.0,0.0,0.0,0.0,0.0,0.0,0.0,0.0,0.0,0.0,0.0,0.0,0.0,0.0,0.0,0.0,0.0,0.0,0.0,0.0,0.0,0.0,0.0,0.0,0.0,0.0,0.0,0.0,0.0,0.0,0.0,0.0,0.0,0.0,0.0,0.0,0.0,0.0,0.0,0.0,0.0,0.0,0.0,0.0,0.0,0.0,0.0,0.0,0.0,0.0,0.0,0.0,0.0,0.0,0.0,0.0,0.0,0.0,0.0,0.0,0.0,0.0,0.0,0.0,0.0,0.0,0.0,0.0,0.0,0.0,0.0,0.0,0.0,0.0,0.0,0.0,0.0,0.0,0.0,0.0,0.0,0.0,0.0,0.0,0.0,0.0,0.0,0.0,0.0,0.0,0.0,0.0,0.0,0.0,0.0,0.0,0.0,0.0,0.0,0.0,0.0,0.0,0.0,0.0,0.0,0.0,0.0,0.0,0.0,0.0,0.0,0.0,0.0,0.0,0.0,0.0,0.0,0.0,0.0,0.0,0.0,0.0,0.0,0.0,0.0,0.0,0.0,0.0,0.0,0.0,0.0,0.0,0.0,0.0,0.0,0.0,0.0,0.0,0.0,0.0,0.0,0.0,0.0,0.0,0.0,0.0,0.0,0.0,0.0,0.0,0.0,0.0,0.0,0.0,0.0,0.0,0.0,0.0,0.0,0.0,0.0,0.0,0.0,0.0,0.0,0.0,0.0,0.0,0.0,0.0,0.0,0.0,0.0,0.0,0.0,0.0,0.0,0.0,0.0,0.0,0.0,0.0,0.0,0.0,0.0,0.0,0.0,0.0,0.0,0.0,0.0,0.0,0.0,0.0,0.0,0.0,0.0,0.0,0.0,0.0,0.0,0.0,0.0,0.0,0.0,0.0,0.0,0.0,0.0,0.0,0.0,0.0,0.0,0.0,0.0,0.0,0.0,0.0,0.0,1.8028,0.0,0.0,0.0,0.0,0.0,0.0,0.0,0.0,0.0,0.0,0.0,0.0,0.0,0.0,0.0,0.0,0.0,0.0,0.0,0.0,0.0,0.0,0.0,0.0,0.0,0.0,0.0,0.0,0.0,0.0,0.0,0.0,0.0,0.0,0.0,0.0,0.0,0.0,2.1299,2.1706,2.2339,2.3223,2.349,2.3264,2.2616,0.0,0.0,0.0,0.0,0.0,0.0,0.0,0.0,0.0,0.0,0.0,0.0,0.0,0.0,0.0,0.0,0.0,0.0,0.0,0.0,0.0,0.0,0.0,0.0,0.0,0.0,0.0,0.0,0.0,0.0,0.0,0.0,0.0,0.0,0.0,0.0,0.0,0.0,0.0,0.0,0.0,0.0,0.0,0.0,0.0,0.0,0.0,0.0,0.0,0.0,0.0,0.0,0.0,0.0,0.0,0.0,0.0,0.0,0.0,0.0,0.0,0.0,0.0,0.0,0.0,0.0,0.0,0.0,0.0,0.0,0.0,1.8343,0.0,0.0,0.0,0.0,0.0,0.0,0.0,0.0,0.0,0.0,0.0,0.0,0.0,0.0,0.0,0.0,0.0,0.0,0.0,0.0,0.0,0.0,0.0,2.3688,2.3452,2.2947,2.2543,2.205,0.0,0.0,0.0,0.0,0.0,0.0,0.0,1.9899,2.02,2.0393,2.1219,2.2221,2.3419,2.4306,2.4422,2.4001,2.3135,0.0,0.0,0.0,0.0,0.0,0.0,0.0,0.0,0.0,0.0,0.0,0.0,0.0,0.0,0.0,0.0,0.0,0.0,0.0,0.0,0.0,0.0,0.0,0.0,0.0,0.0,0.0,0.0,0.0,0.0,0.0,0.0,0.0,0.0,0.0,0.0,0.0,0.0,0.0,0.0,0.0,0.0,0.0,0.0,0.0,0.0,0.0,0.0,0.0,0.0,0.0,0.0,0.0,0.0,0.0,0.0,0.0,0.0,0.0,0.0,0.0,0.0,0.0,0.0,2.2369,2.2386,2.2459,2.2508,2.2425,2.0247,1.9407,1.9573,0.0,0.0,0.0,0.0,0.0,0.0,0.0,0.0,0.0,0.0,0.0,0.0,0.0,0.0,0.0,0.0,0.0,0.0,0.0,0.0,0.0,0.0,2.4189,2.41,2.3872,2.2613,2.162,2.1019,0.0,0.0,0.0,0.0,0.0,2.0009,2.0074,2.0271,2.0687,2.2121,2.3246,2.3921,2.4365,2.512,2.5975,2.3976,2.3847,2.484,0.0,0.0,0.0,0.0,0.0,0.0,0.0,0.0,0.0,0.0,0.0,0.0,0.0,0.0,0.0,0.0,0.0,0.0,0.0,0.0,0.0,0.0,0.0,0.0,0.0,0.0,0.0,0.0,0.0,0.0,0.0,0.0,0.0,0.0,0.0,0.0,0.0,0.0,0.0,0.0,0.0,1.7065,1.6825,0.0,0.0,0.0,0.0,0.0,0.0,0.0,0.0,0.0,0.0,0.0,0.0,0.0,0.0,2.3487,2.4319,2.4575,2.4261,2.5826,2.5258,2.2984,2.3444,2.3681,2.3629,2.2268,0.0,2.0388,1.96,0.0,0.0,0.0,0.0,0.0,0.0,0.0,0.0,0.0,0.0,0.0,0.0,0.0,0.0,0.0,0.0,0.0,0.0,0.0,0.0,0.0,2.3928,2.4073,2.3203,2.3666,2.3026,2.0576,2.0112,0.0,0.0,0.0,1.8327,1.8777,1.9043,1.9879,2.1404,2.3371,2.4522,2.4893,2.5591,2.6173,2.6662,2.5644,2.5102,2.4961,2.356,0.0,0.0,0.0,0.0,0.0,0.0,0.0,0.0,0.0,0.0,0.0,0.0,0.0,0.0,0.0,0.0,0.0,0.0,0.0,0.0,0.0,0.0,0.0,0.0,0.0,0.0,0.0,0.0,0.0,0.0,0.0,0.0,0.0,0.0,0.0,0.0,0.0,0.0,0.0,1.8039,1.9032,1.7987,1.9095,1.953,0.0,0.0,0.0,0.0,0.0,0.0,0.0,0.0,0.0,2.2318,2.2934,2.3688,2.4551,2.5215,2.5743,2.6146,2.6966,2.679,2.5912,2.6154,2.6323,2.6309,2.5467,2.4474,2.3336,2.1332,1.9972,1.9055,0.0,0.0,0.0,0.0,0.0,1.7688,0.0,0.0,0.0,0.0,0.0,0.0,0.0,0.0,0.0,0.0,0.0,0.0,2.311,2.4333,2.4732,2.3644,2.4802,2.4079,2.0798,2.0428,1.9583,1.7877,1.7586,1.7586,1.7801,1.8663,2.012,2.2155,2.4106,2.5189,2.545,2.6251,2.6803,2.708,2.6866,2.6322,2.534,2.4423,2.3212,2.1812,0.0,0.0,0.0,0.0,0.0,0.0,0.0,0.0,0.0,0.0,0.0,0.0,0.0,0.0,0.0,0.0,0.0,0.0,0.0,0.0,0.0,0.0,0.0,0.0,0.0,0.0,0.0,0.0,0.0,0.0,0.0,0.0,0.0,0.0,0.0,0.0,0.0,1.9034,2.0041,1.8767,1.9943,2.0393,0.0,0.0,0.0,0.0,0.0,0.0,2.3084,2.3554,2.4029,2.4607,2.5159,2.5586,2.5862,2.6264,2.6942,2.7921,2.7921,2.8147,2.8524,2.8426,2.8427,2.8446,2.7683,2.6868,2.5754,2.3093,2.1381,2.0321,1.9864,1.9409,1.9083,1.9383,1.9382,1.9282,0.0,0.0,0.0,0.0,0.0,0.0,0.0,0.0,0.0,0.0,0.0,2.3135,2.4939,2.6142,2.6742,2.6702,2.5665,2.4121,2.1906,1.9944,1.8578,1.8067,1.7669,1.765,1.8029,1.9938,2.1513,2.2537,2.3858,2.4883,2.5393,2.5885,2.6699,2.768,2.7323,2.7117,2.702,2.5036,2.3559,2.2478,2.1472,0.0,0.0,0.0,0.0,0.0,0.0,0.0,0.0,0.0,0.0,0.0,0.0,0.0,0.0,0.0,0.0,0.0,0.0,0.0,0.0,0.0,0.0,0.0,0.0,0.0,0.0,0.0,0.0,0.0,0.0,0.0,0.0,0.0,0.0,0.0,0.0,0.0,0.0,1.8176,2.1019,0.0,0.0,0.0,0.0,2.1393,2.2531,2.3323,2.3484,2.4789,2.5737,2.6382,2.6866,2.767,2.8699,2.875,2.9076,2.9654,2.9654,2.9679,2.9704,2.9101,2.885,2.8775,2.7742,2.7031,2.6324,2.4667,2.3232,2.2096,2.1568,2.1343,2.1317,2.1368,2.1041,2.0589,0.0,0.0,0.0,0.0,0.0,0.0,0.0,0.0,2.124,2.1604,2.3207,2.4671,2.5709,2.7646,2.8614,2.7988,2.7615,2.6156,2.2901,2.1598,2.0292,1.8733,1.821,1.8601,2.0211,2.2091,2.3873,2.5377,2.6754,2.7381,2.7325,2.7471,2.7678,2.7772,2.8157,2.8155,2.7823,2.6438,2.5035,2.3602,2.1941,2.0687,0.0,0.0,0.0,0.0,0.0,0.0,0.0,0.0,0.0,0.0,0.0,0.0,0.0,0.0,0.0,0.0,0.0,0.0,0.0,0.0,0.0,0.0,0.0,0.0,0.0,0.0,0.0,0.0,0.0,0.0,0.0,0.0,0.0,0.0,0.0,0.0,0.0,2.1152,2.2678,0.0,2.1722,2.1859,2.2228,2.2966,2.3609,2.4469,2.5585,2.6504,2.7231,2.7749,2.7938,2.8545,2.9602,2.926,2.9187,2.9462,2.912,2.8633,2.8051,2.8518,2.846,2.8093,2.8276,2.8021,2.7419,2.6536,2.5051,2.3351,2.2774,2.2548,2.2598,2.2975,2.2749,2.2297,0.0,0.0,0.0,0.0,0.0,0.0,0.0,0.0,2.0962,2.152,2.3755,2.5756,2.6948,2.9201,3.0449,2.9728,2.9019,2.7281,2.382,2.2353,2.0745,1.8951,1.9058,2.0034,2.1872,2.3956,2.5743,2.7197,2.8431,2.8773,2.8388,2.8388,2.8168,2.7765,2.8314,2.8389,2.8123,2.7538,2.6207,2.4407,2.259,2.146,2.054,0.0,0.0,0.0,0.0,0.0,0.0,0.0,0.0,0.0,0.0,0.0,0.0,0.0,0.0,0.0,0.0,0.0,0.0,0.0,0.0,0.0,0.0,0.0,0.0,0.0,0.0,0.0,0.0,0.0,0.0,0.0,0.0,0.0,0.0,0.0,2.2777,2.3613,2.4405,2.4596,2.374,2.3493,2.3782,2.4734,2.5283,2.6052,2.7138,2.7742,2.814,2.8459,2.8459,2.8803,2.9508,2.8905,2.8751,2.8834,2.8288,2.773,2.7139,2.773,2.7782,2.7404,2.769,2.7728,2.7582,2.6625,2.5497,2.4459,2.4279,2.413,2.4029,2.4607,2.4456,2.3979,0.0,0.0,0.0,0.0,0.0,0.0,0.0,1.9916,2.0514,2.1496,2.3803,2.6264,2.8672,3.0918,3.2205,3.1927,2.9766,2.7221,2.4718,2.1919,1.9845,1.8834,2.0319,2.1768,2.3033,2.5436,2.7068,2.7893,2.87,2.8883,2.8363,2.848,2.8242,2.782,2.7801,2.7801,2.7897,2.8144,2.6937,2.4802,2.3454,2.2043,2.0526,0.0,0.0,0.0,0.0,0.0,0.0,0.0,0.0,0.0,0.0,0.0,0.0,0.0,0.0,0.0,0.0,0.0,0.0,0.0,0.0,0.0,0.0,0.0,0.0,0.0,0.0,0.0,0.0,0.0,0.0,0.0,0.0,0.0,2.1793,2.3568,2.4759,2.5213,2.6296,2.6626,2.544,2.6144,2.6641,2.6641,2.7451,2.7887,2.7887,2.8298,2.8464,2.8441,2.8441,2.8528,2.8505,2.8026,2.7775,2.7752,2.7332,2.708,2.6976,2.7058,2.7058,2.7012,2.6027,2.6053,2.6641,2.4862,2.4611,2.5324,2.6094,2.6045,2.5619,2.617,2.6088,2.5369,0.0,0.0,0.0,0.0,0.0,0.0,0.0,1.9887,2.066,2.191,2.4517,2.7172,2.942,3.1048,3.1969,3.2031,2.9071,2.6582,2.5217,2.2422,2.0773,2.0888,2.1896,2.3694,2.6371,2.7673,2.8661,2.9136,3.0807,3.0717,2.8893,2.9761,2.9745,2.9067,2.8773,2.8645,2.8627,2.8455,2.7865,2.6849,2.4987,2.359,2.2399,0.0,0.0,0.0,0.0,0.0,0.0,0.0,0.0,0.0,0.0,0.0,0.0,0.0,0.0,0.0,0.0,0.0,0.0,0.0,0.0,0.0,0.0,0.0,0.0,0.0,0.0,0.0,0.0,0.0,0.0,0.0,0.0,2.2574,2.3292,2.4809,2.6462,2.7985,2.8733,2.9036,2.8551,2.852,2.852,2.8383,2.8342,2.8439,2.8439,2.8486,2.8445,2.8104,2.8083,2.8287,2.8674,2.812,2.7789,2.7522,2.6926,2.6168,2.5274,2.5841,2.6152,2.6152,2.6517,2.6622,2.6543,2.5562,2.5154,2.5028,2.4848,2.4684,2.4496,2.4708,2.48,2.4614,0.0,0.0,0.0,0.0,0.0,0.0,0.0,1.9702,2.0475,2.2394,2.4797,2.7142,2.9231,3.0636,3.1072,3.0167,2.7311,2.4937,2.3496,2.132,2.0445,2.1242,2.2535,2.4162,2.6196,2.7607,2.8459,2.8741,2.9918,3.0066,2.9223,2.9907,3.0176,3.0075,2.9837,2.9483,2.8834,2.8264,2.7533,2.6675,2.5212,2.4199,2.3523,2.1212,1.9765,1.8769,1.7329,1.7497,1.8189,1.6302,0.0,0.0,0.0,0.0,0.0,0.0,0.0,0.0,0.0,0.0,0.0,0.0,0.0,0.0,0.0,0.0,0.0,0.0,0.0,0.0,0.0,0.0,0.0,0.0,2.238,2.4539,2.5385,2.6315,2.7339,2.8428,2.8714,2.8767,2.8436,2.8785,2.9039,2.8696,2.8983,2.9104,2.8918,2.8309,2.7683,2.7239,2.6903,2.6764,2.6798,2.6439,2.5991,2.5542,2.5002,2.4203,2.3387,2.3867,2.4104,0.0,2.4829,2.5044,2.4988,2.4525,2.4292,0.0,0.0,0.0,0.0,0.0,2.4348,2.412,0.0,0.0,0.0,0.0,0.0,0.0,0.0,1.9239,2.006,2.2645,2.4446,2.6217,2.8284,2.9536,2.9467,2.7472,2.5099,2.284,2.0763,1.9657,1.9734,2.1059,2.2699,2.3982,2.4561,2.6493,2.75,2.7336,2.7673,2.8341,2.9193,2.9192,2.9587,3.0392,3.0266,2.9577,2.8409,2.7679,2.6628,2.5454,2.4775,2.4382,2.3945,2.2366,2.0899,1.945,1.8629,1.7768,1.7016,1.6796,0.0,0.0,0.0,0.0,0.0,0.0,0.0,0.0,0.0,0.0,0.0,0.0,0.0,0.0,0.0,0.0,0.0,0.0,0.0,0.0,0.0,0.0,0.0,0.0,2.3824,2.6136,2.7599,2.7867,2.7872,2.7715,2.7679,2.7438,2.6664,2.7948,2.8532,2.8048,2.9006,2.937,2.8982,0.0,0.0,0.0,0.0,2.4875,2.417,2.4016,2.3578,2.2868,2.2483,2.2007,2.1695,2.1695,2.1695,2.1765,2.216,2.2434,2.2717,2.2451,2.2491,2.2842,2.3638,2.4181,2.4514,2.4514,2.4294,0.0,0.0,0.0,0.0,0.0,0.0,0.0,0.0,1.8133,1.8893,2.1253,2.2604,2.4136,2.6222,2.7541,2.7649,2.5922,2.4258,2.2456,2.0483,2.057,2.1583,2.3292,2.407,2.5405,2.717,2.761,2.7663,2.7334,2.8919,2.8764,2.735,2.8003,2.8196,2.8077,2.7214,2.6874,2.6857,2.6424,2.612,2.5834,2.5423,2.4531,2.3342,2.2656,2.1836,2.077,1.9433,1.9964,2.1052,1.864,1.88,1.9543,1.768,1.5883,0.0,0.0,0.0,0.0,0.0,0.0,0.0,0.0,0.0,0.0,0.0,0.0,0.0,0.0,0.0,0.0,0.0,0.0,0.0,2.3231,2.5478,2.7032,2.7398,2.7813,2.8272,2.9127,2.9297,2.8857,2.7545,2.777,2.7623,2.6862,2.7041,2.7112,2.7018,2.6728,0.0,2.5903,2.5766,2.5295,2.4491,2.4262,2.3675,2.2868,0.0,0.0,2.1695,2.1695,2.1695,2.1695,2.178,2.1696,2.1371,2.1315,2.1345,2.155,2.2491,2.2865,2.2949,2.2949,2.3251,2.3633,0.0,0.0,0.0,0.0,0.0,0.0,0.0,1.7456,1.7825,2.0284,2.0913,2.1767,2.3639,2.4766,2.4564,2.22,2.0737,1.9772,1.9286,2.0462,2.1994,2.3746,2.4381,2.5234,2.6084,2.6565,2.6705,2.6319,2.7335,2.7539,2.707,2.7423,2.7648,2.8016,2.7494,2.7056,2.6649,2.5981,2.5293,2.4596,2.4116,2.3432,2.2646,2.2587,2.1802,2.0773,2.0132,2.0243,2.053,1.9261,1.9435,1.9822,1.8211,1.6972,1.5989,0.0,0.0,0.0,0.0,0.0,0.0,0.0,0.0,0.0,0.0,0.0,0.0,0.0,0.0,1.6309,1.7336,0.0,2.2535,2.4122,2.6262,2.787,2.8102,2.8372,2.8336,2.8137,2.8165,2.7822,2.6982,2.7158,2.7019,2.6424,2.6683,2.6701,2.6499,2.5954,2.5448,2.4951,2.4412,2.373,2.298,2.2282,2.181,2.1371,2.0617,2.0247,2.0257,2.0257,2.0257,2.0257,2.0799,2.0749,2.0271,2.0377,2.0412,2.0566,2.1264,2.209,2.2873,2.3101,2.3405,2.3663,0.0,0.0,0.0,0.0,0.0,0.0,0.0,1.6761,1.6825,1.9033,1.912,1.9561,2.0987,2.1929,2.1212,1.8305,1.7373,1.7413,1.8511,2.0424,2.2162,2.3837,2.462,2.496,2.4712,2.543,2.5709,2.5552,2.5653,2.6225,2.7276,2.7156,2.7455,2.8299,2.816,2.7583,2.6692,2.5852,2.4806,2.3668,2.3063,2.2633,2.2403,2.2623,2.1712,2.0468,2.0605,1.9915,1.8851,1.9299,1.9344,1.9111,1.8209,1.7867,1.755,1.5482,1.4938,0.0,0.0,0.0,0.0,0.0,0.0,0.0,0.0,1.4255,1.4349,1.4776,1.5961,1.727,1.8065,2.093,2.3409,2.439,2.6619,2.8138,2.8206,2.8498,2.7979,2.6287,2.6542,2.6575,2.6179,2.6476,2.6399,2.5944,2.6412,2.6328,2.5863,2.483,2.4156,2.3771,2.2608,2.1635,2.1015,1.9971,1.9532,1.947,1.8535,1.8297,1.855,1.8735,1.8827,1.8827,1.9621,1.9816,1.9478,1.9636,1.9769,1.9805,2.0291,2.146,2.2858,2.339,2.3617,2.3535,0.0,0.0,0.0,0.0,0.0,0.0,0.0,0.0,1.5808,1.6472,1.741,1.8155,1.8586,1.9251,1.8757,1.6415,1.684,1.794,1.9506,2.1437,2.3247,2.514,2.5369,2.5698,2.6094,2.5898,2.6066,2.646,2.6864,2.685,2.6763,2.6885,2.6871,2.6994,2.6438,2.622,2.6326,2.596,2.55,2.5007,2.4832,2.4261,2.3612,2.3238,2.2434,2.1336,2.094,1.972,1.8611,1.9475,1.8863,1.7925,1.8314,1.7688,1.6755,1.5927,1.4642,1.3439,1.3304,1.3233,1.3311,1.3709,1.398,1.4669,0.0,1.6599,1.6593,1.7435,1.809,1.8988,2.0135,2.1432,2.2837,2.4158,2.5911,2.6729,2.5668,2.652,2.6644,2.494,2.6645,2.7432,2.6575,2.6067,2.5411,2.4728,2.4498,2.4153,2.3376,2.2835,2.226,2.1911,2.0823,1.996,1.9509,1.8929,1.832,1.7796,1.7969,1.8028,1.7885,1.8535,1.8827,1.8827,1.892,1.898,1.8915,1.939,1.9643,1.9696,2.0256,2.0789,2.136,2.2272,2.2546,2.2467,0.0,0.0,0.0,0.0,0.0,0.0,0.0,0.0,0.0,1.5322,1.5642,1.5781,1.5604,1.545,1.5104,1.4364,1.5816,1.7457,1.9096,2.1701,2.3898,2.5649,2.6098,2.6416,2.6709,2.6743,2.68,2.6758,2.7201,2.7187,2.6758,2.6908,2.6857,2.671,2.6608,2.6514,2.678,2.6472,2.6234,2.589,2.559,2.5016,2.4039,2.3126,2.2249,2.1298,2.0346,1.9152,0.0,1.8413,1.809,1.7721,1.8317,1.7839,1.6851,1.6075,1.5116,1.4269,1.4429,1.4389,1.4469,1.5231,1.5912,1.662,1.7475,1.7969,1.8357,1.8731,1.9412,2.0053,2.0648,2.1804,2.2956,2.358,2.4822,2.5668,2.5056,2.5368,2.5348,2.4499,2.5008,2.5461,2.5175,2.4408,2.3816,2.353,2.2644,2.2045,2.1645,2.1306,2.0975,2.0845,2.0175,1.9654,1.9346,1.8197,1.768,1.7764,1.7064,1.7159,1.7983,1.8069,1.835,1.8827,1.8827,1.8827,1.8796,1.8791,1.8692,1.8567,1.8852,1.8922,1.911,2.0992,2.1844,2.1926,0.0,0.0,0.0,0.0,0.0,0.0,0.0,0.0,0.0,0.0,1.4563,1.4433,1.3904,1.3055,1.2655,1.2964,1.4667,1.6639,1.8525,2.1335,2.3779,2.5666,2.6369,2.6808,2.7006,2.7231,2.7274,2.715,2.7376,2.7332,2.7021,2.7107,2.7115,2.7041,2.7126,2.7282,2.748,2.7254,2.7027,2.6622,2.6291,2.5526,2.4426,2.3196,2.1881,2.0538,1.933,1.8171,1.7141,1.6935,1.6728,1.6677,1.736,1.7141,1.6498,1.5923,1.5318,1.4883,1.5097,1.5391,1.5872,1.6834,1.7809,1.8597,1.8838,1.9386,1.9867,1.996,2.0347,2.0681,2.0681,2.17,2.2462,2.2462,2.3638,2.4317,2.3946,2.3947,2.3665,2.3073,2.2567,2.2352,2.2598,2.2659,2.269,2.2674,2.1743,2.1018,2.0845,2.0456,2.0238,2.0155,1.9508,1.9095,1.8685,1.7633,1.7095,1.723,1.64,1.6505,1.7505,1.766,1.8071,1.8827,1.8827,1.8827,1.8812,1.8557,1.824,1.7906,1.7811,1.762,1.7632,1.9488,2.0569,2.1175,0.0,0.0,0.0,0.0,0.0,0.0,0.0,0.0,0.0,0.0,0.0,0.0,0.0,1.29,1.2123,1.2277,1.3487,1.5427,1.813,2.0179,2.2418,2.4979,2.5696,2.65,2.7452,2.7174,2.7305,2.7934,2.7627,2.7481,2.7481,2.7788,2.7934,2.7813,2.8286,2.8432,2.8432,2.8278,2.811,2.7702,2.7216,2.6113,2.4796,2.3493,2.1539,1.9263,1.8153,1.6711,1.5273,1.5149,1.4378,1.3763,1.4946,1.521,1.507,1.5324,1.499,1.4536,1.4549,1.5378,1.6526,1.7716,1.8878,1.9973,2.0815,2.1042,2.1136,2.143,2.1056,2.0681,2.0681,2.0681,2.0805,2.0805,2.2143,2.2702,2.1362,2.1817,2.1665,2.0077,1.9166,1.8642,0.0,2.1229,2.2806,2.2674,2.2408,2.1847,2.1203,2.0653,2.0096,1.9822,1.8722,1.7755,1.7254,1.6967,1.6448,1.5603,1.62,1.6302,1.594,1.7174,1.8071,1.8827,1.8827,1.8827,1.8827,1.8812,1.8605,1.8255,1.7906,1.7763,1.7715,1.7499,1.8423,1.9727,0.0,0.0,0.0,0.0,0.0,0.0,0.0,0.0,0.0,0.0,0.0,0.0,0.0,0.0,0.0,0.0,1.2602,1.4258,1.6036,1.8787,2.1028,2.2754,2.4262,2.5418,2.6164,2.6076,2.6339,2.6983,2.6661,2.6617,2.6837,2.6939,2.71,2.732,2.7422,2.7481,2.7466,2.7247,2.6524,2.5689,2.5524,2.436,2.2603,2.0699,1.8906,1.7086,0.0,1.4356,1.4131,1.3608,1.3237,1.3127,1.3952,1.4062,1.3913,1.4348,1.4596,1.503,1.6005,1.7128,1.8317,1.9492,2.0388,2.1096,2.1577,2.1697,2.1617,2.1323,2.0641,1.9973,1.9586,1.9359,1.9359,1.9746,2.0563,2.1081,2.0913,2.1012,2.067,1.9319,1.8958,0.0,0.0,0.0,0.0,2.0202,2.0048,1.9897,1.9693,1.9495,1.9181,1.8894,1.8442,1.8059,1.7489,1.7388,1.6951,1.628,1.6727,1.6647,1.633,1.6985,1.7419,1.7606,1.7419,1.734,1.734,1.734,1.7018,1.6506,1.6404,1.6096,1.5731,1.5933,1.6401,1.7158,0.0,0.0,0.0,0.0,0.0,0.0,0.0,0.0,0.0,0.0,0.0,0.0,0.0,0.0,0.0,0.0,0.0,1.3134,1.4543,1.6758,1.8599,1.9909,2.1482,2.2559,2.3062,2.3228,2.3676,2.4437,2.4232,2.4408,2.4964,2.5066,2.5359,2.5783,2.59,2.6018,2.6105,2.5351,2.4428,2.3336,2.2475,2.1204,1.9522,1.7694,1.6038,0.0,1.2738,1.2285,1.249,1.2305,1.2235,1.2361,1.3103,1.3495,1.3724,1.4118,1.4832,1.5873,1.7355,1.8651,1.9853,2.1136,2.183,2.2205,2.2285,2.2138,2.1737,2.0828,1.9947,1.9118,1.8424,1.805,1.8076,1.8784,1.9199,1.9693,2.0414,2.0254,1.9853,1.9305,1.8958,1.8624,0.0,0.0,0.0,1.8891,1.8955,1.9113,1.9113,1.9063,1.8972,1.8777,1.8777,1.8429,1.7966,1.7862,1.7418,1.6723,1.6675,1.6607,1.6785,1.6756,1.6857,1.7138,1.6951,1.6857,1.6857,1.6857,1.6558,1.5984,1.5871,1.5517,1.5078,1.5248,1.5476,1.5803,0.0,0.0,0.0,0.0,0.0,0.0,0.0,0.0,0.0,0.0,0.0,0.0,0.0,0.0,0.0,0.0,0.0,0.0,1.3641,1.4291,1.5267,1.6647,1.7692,1.834,1.8531,1.9017,1.9638,2.0603,2.0589,2.1057,2.1993,2.2271,2.274,2.334,2.3647,2.3954,2.4101,2.2716,2.171,2.0835,1.8442,1.6858,1.578,1.4457,1.3012,1.1676,1.0876,1.0542,1.0504,1.1353,1.1522,1.1611,1.2541,1.3535,1.4406,1.4843,1.5697,1.6921,1.8348,1.9668,2.0895,2.2417,2.2823,2.2941,2.2762,2.2204,2.1328,1.9907,1.8871,1.8063,1.7181,1.6807,1.6941,1.7849,1.805,1.8597,2.0067,1.9559,1.9225,1.976,1.9092,1.8571,1.8544,0.0,0.0,1.8945,0.0,1.9386,1.9386,1.9399,1.9399,1.9386,1.9372,1.911,1.8577,1.8276,1.7624,1.6749,1.6189,1.6325,1.7014,1.6402,1.6588,1.7261,1.7246,1.7232,1.7232,1.7232,1.695,1.6632,1.6402,1.6082,1.5676,1.5456,1.5375,1.5504,0.0,0.0,0.0,0.0,0.0,0.0,0.0,0.0,0.0,0.0,0.0,0.0,0.0,0.0,0.0,0.0,0.0,0.0,1.1843,1.3021,1.4067,1.4816,1.6271,1.7223,1.7635,1.777,1.8189,1.8921,1.8672,1.8803,1.9286,1.9374,1.9491,1.9652,1.9192,1.9048,1.9104,1.7943,1.6965,1.6151,1.5482,1.44,1.3199,1.2008,1.109,1.0279,0.9543,0.9273,0.9452,1.0916,1.2417,1.3783,1.4496,1.4518,1.4436,1.5468,1.6028,1.6379,1.7213,1.8426,1.9577,1.9787,1.9826,1.9529,1.9427,1.8522,1.7474,1.6691,1.581,1.4992,1.4364,1.51,1.6086,1.7194,1.8303,1.9466,2.0708,2.0695,2.0441,2.016,1.992,1.9626,1.9185,1.9345,0.0,0.0,1.9653,1.9693,1.9693,1.9893,1.9907,1.9693,1.9479,1.9225,1.8805,1.83,1.7859,1.7701,1.7107,1.6932,1.7123,1.6321,1.6042,1.6236,1.583,1.5642,1.5642,1.5642,1.547,1.5167,1.4876,1.4718,1.4612,1.4322,1.4401,1.4563,0.0,0.0,0.0,0.0,0.0,0.0,0.0,0.0,0.0,0.0,0.0,0.0,0.0,0.0,0.0,0.0,0.0,0.0,0.0,1.1782,1.2347,1.2654,1.3712,1.4355,1.4416,1.4756,1.5262,1.576,1.5862,1.6155,1.6623,1.6755,1.6791,1.6771,1.6383,1.617,1.5885,1.4653,1.3755,0.0,0.0,1.1149,1.0264,0.9448,0.9001,0.879,0.8391,0.8793,0.9746,1.1265,1.2711,1.3939,1.4668,1.4848,1.5004,1.6133,1.6629,1.6981,1.7798,1.8659,1.9409,1.9647,1.9413,1.8898,1.815,1.7189,1.6053,1.4534,1.3665,1.3015,1.24,1.2901,1.3811,1.512,1.6074,1.7138,1.857,1.8765,1.8741,1.8556,1.8544,1.8386,1.7973,1.8167,1.8277,0.0,1.9253,1.9987,1.9987,2.0027,1.9973,1.98,1.9519,1.9225,1.8931,1.8464,1.8183,1.8036,1.7435,1.7088,1.6941,1.6374,1.5998,1.5866,0.0,1.5369,1.5369,1.5369,1.536,1.5165,1.4747,1.4591,1.4565,1.4265,1.4099,1.3963,0.0,0.0,0.0,0.0,0.0,0.0,0.0,0.0,0.0,0.0,0.0,0.0,0.0,0.0,0.0,0.0,0.0,0.0,0.0,0.0,1.0546,1.0561,1.0941,1.0977,1.0575,1.1358,1.1905,1.2112,1.2755,1.336,1.3791,1.403,1.4191,1.4171,1.4074,1.3802,1.3397,1.2066,1.1183,1.0551,0.8893,0.8078,0.7721,0.0,0.7326,0.7531,0.7559,0.8674,1.0372,1.1719,1.271,1.3483,1.4378,1.5144,1.5909,1.6842,1.7282,1.7662,1.8763,1.9075,1.9443,1.9928,1.9521,1.8779,1.7546,1.656,1.5121,1.2758,1.2026,1.151,1.0888,1.0888,1.1412,1.2854,1.3211,1.3954,1.5696,1.591,1.607,1.653,1.6562,1.6466,1.6263,1.6423,1.6455,1.6252,1.8447,1.9672,1.9672,1.952,1.9337,1.9259,1.9141,1.9008,1.8744,1.8539,1.8357,1.8103,1.7488,1.7048,1.6754,1.646,1.6166,1.5885,0.0,0.0,1.5832,1.5642,1.5642,1.5589,1.5231,1.4953,1.4863,1.4661,1.4269,1.3887,0.0,0.0,0.0,0.0,0.0,0.0,0.0,0.0,0.0,0.0,1.0481,0.9803,0.0,0.0,0.0,0.0,0.0,0.0,0.0,0.0,0.0,0.9306,0.9921,1.0005,0.9482,1.0299,1.052,1.0045,1.0665,1.0704,1.011,1.0337,1.0334,1.013,0.9616,0.9308,0.922,0.8374,0.7959,0.7871,0.7702,0.7607,0.7579,0.7475,0.0,0.0,0.7664,0.8202,0.899,1.0778,1.31,1.5433,1.6333,1.6719,1.6882,1.7256,1.7137,1.6933,1.672,1.7186,1.7489,1.7042,1.6177,1.5063,1.3978,1.2581,1.1123,1.0002,0.9635,0.9597,0.9725,1.0658,1.1869,1.3303,1.4147,1.5004,1.6675,1.6614,1.6667,1.7152,1.7033,1.6904,1.6861,1.6894,0.0,0.0,0.0,1.7314,1.7189,1.6954,1.6763,1.6357,1.7244,1.7793,1.7744,1.8294,1.8464,1.841,1.7796,1.7355,1.7061,1.6767,1.6473,1.6179,0.0,0.0,1.5737,1.4867,1.458,1.4651,1.5179,1.5006,1.4514,1.5074,1.5057,1.4856,0.0,0.0,0.0,0.0,0.0,0.0,0.0,1.2254,1.2052,1.2256,1.1352,1.082,1.0979,1.0359,0.9959,0.0,0.0,0.0,0.0,0.0,0.0,0.8805,0.9114,0.9215,0.9224,0.9756,0.9907,0.9524,0.0,0.9906,0.9393,0.9452,0.919,0.8684,0.8326,0.7963,0.7431,0.7303,0.7216,0.7235,0.7445,0.7521,0.7521,0.0,0.0,0.0,0.7645,0.8023,0.8732,0.9847,1.1883,1.4088,1.5502,1.6193,1.631,1.6718,1.6759,1.6738,1.6735,1.6814,1.6912,1.6715,1.5695,1.437,1.3093,1.162,1.0135,0.9043,0.8581,0.8438,0.8684,0.9414,1.0288,1.1142,1.1849,1.2659,1.4023,1.4232,1.4345,1.4978,1.4838,1.4782,1.4782,1.4782,1.4782,1.4782,0.0,1.5101,1.6487,1.628,1.5924,1.558,1.6161,1.6514,1.6514,1.6594,1.667,1.6658,1.6006,1.5539,1.5258,1.5035,1.4748,1.4364,1.3761,0.0,1.4184,1.3703,1.3511,1.3488,1.3708,1.359,1.3305,1.3649,1.4001,1.4166,0.0,0.0,0.0,0.0,0.0,0.0,0.0,1.2312,1.2404,1.2691,1.2234,1.1779,1.163,1.074,1.0,0.0,0.0,0.0,0.0,0.0,0.0,0.0,0.0,0.0,0.8653,0.0,0.0,0.9064,0.9468,0.0,0.0,0.0,0.0,0.0,0.7891,0.7461,0.6735,0.6955,0.705,0.0,0.0,0.7483,0.0,0.0,0.0,0.0,0.0,0.791,0.859,0.9138,1.0367,1.1964,1.3665,1.4761,1.5498,1.5867,1.6304,1.6885,1.7143,1.7042,1.6975,1.7043,1.5894,1.4493,1.2993,1.1512,0.9984,0.8732,0.8096,0.7838,0.8199,0.8384,0.8683,0.9132,0.9567,1.0223,1.1273,1.1598,1.1979,1.2694,1.2816,1.284,1.284,1.284,0.0,0.0,0.0,0.0,1.5584,1.5432,1.5024,1.4748,1.5095,1.5213,1.5213,1.4981,1.4859,1.4848,1.4363,1.3922,1.341,1.347,1.3211,1.2705,1.2457,0.0,0.0,1.2436,1.2339,1.2415,1.2331,1.2268,1.2078,1.2268,1.2681,1.3238,0.0,0.0,0.0,0.0,0.0,0.0,0.0,1.1776,1.1911,1.2901,1.2067,1.1506,1.1846,1.1273,1.0488,0.0,0.0,0.0,0.0,0.0,0.0,0.0,0.0,0.0,0.0,0.0,0.0,0.7717,0.8322,0.0,0.0,0.0,0.0,0.0,0.0,0.6757,0.6501,0.6577,0.0,0.0,0.0,0.0,0.0,0.0,0.0,0.0,0.0,0.7636,0.8014,0.8996,0.9696,1.0348,1.1472,1.3287,1.5035,1.5252,1.6056,1.6944,1.7198,1.7442,1.7508,1.7265,1.5793,1.4192,1.2814,1.0969,0.947,0.8845,0.8024,0.778,0.864,0.8471,0.844,0.952,0.9527,0.9846,1.1053,1.1411,1.1792,1.2507,1.2735,1.284,1.284,1.284,1.284,0.0,0.0,0.0,1.2465,1.2574,1.2499,1.2147,1.3315,1.3904,1.3904,1.452,1.4859,1.4848,1.4363,1.3997,1.3645,1.3431,1.3207,1.295,0.0,0.0,0.0,1.1755,1.1365,1.1463,1.2318,1.2114,1.1434,1.2308,1.2544,1.2476,0.0,0.0,0.0,0.0,0.0,0.0,1.1676,1.1503,1.1752,1.2758,1.2414,1.1981,1.1704,1.1484,1.0693,0.897,0.0,0.0,0.0,0.0,0.0,0.0,0.0,0.0,0.0,0.0,0.7316,0.734,0.7723,0.0,0.0,0.0,0.0,0.0,0.0,0.6917,0.667,0.6861,0.0,0.0,0.0,0.0,0.0,0.0,0.0,0.0,0.0,0.0,0.7825,0.8108,0.8647,0.9233,0.9393,1.0398,1.1846,1.3611,1.5044,1.6169,1.6717,1.7284,1.7596,1.7057,1.5772,1.4213,1.2625,1.0905,0.9469,0.8836,0.814,0.7883,0.8499,0.8431,0.8436,0.8784,0.8849,0.9309,1.0468,1.0592,1.1068,1.2349,1.243,1.2483,0.0,0.0,1.2791,0.0,0.0,0.0,1.2052,1.2101,1.2028,1.1784,1.2251,1.2551,1.2429,1.2614,1.2643,1.2524,1.2229,1.1882,1.169,1.1618,1.1399,1.1089,0.0,0.0,0.0,1.0404,1.0207,1.0306,1.0699,1.06,1.0306,1.0699,1.122,1.1636,0.0,0.0,0.0,0.0,0.0,1.1129,1.1304,1.1311,1.1573,1.2414,1.2208,1.1732,1.1093,1.0683,0.9866,0.8282,0.7871,0.0,0.0,0.0,0.0,0.0,0.0,0.0,0.0,0.0,0.6889,0.7216,0.7369,0.7464,0.0,0.0,0.7359,0.7216,0.0,0.0,0.0,0.0,0.0,0.0,0.0,0.0,0.0,0.0,0.0,0.0,0.0,0.0,0.0,0.0,0.0,0.8382,0.808,0.8471,0.9482,1.1971,1.3601,1.4941,1.5819,1.6585,1.7067,1.6632,1.525,1.3508,1.2054,1.0416,0.8991,0.8499,0.8013,0.7891,0.843,0.8383,0.8304,0.8443,0.8586,0.9069,1.0015,1.0096,1.0509,1.177,1.1935,1.2102,0.0,1.2841,0.0,0.0,0.0,0.0,0.0,1.206,1.1955,1.1784,1.1776,1.1711,1.1581,1.1338,1.1159,1.1037,1.0802,1.0631,1.0509,1.0461,1.0266,0.9965,0.0,0.0,0.0,0.9681,0.9673,0.9624,0.9624,0.9624,0.9624,0.9624,1.0109,1.069,0.0,0.0,0.0,0.0,0.0,0.0,1.0947,1.117,1.1386,1.1744,1.1077,1.0352,0.9976,0.8741,0.7781,0.7365,0.7583,0.0,0.0,0.0,0.0,0.0,0.0,0.0,0.0,0.0,0.6738,0.7216,0.7226,0.7331,0.7521,0.7321,0.7226,0.7216,0.0,0.0,0.0,0.0,0.0,0.0,0.0,0.0,0.0,0.0,0.0,0.0,0.0,0.0,0.0,0.0,0.0,0.0,0.0,0.808,0.8751,1.0433,1.1663,1.2901,1.4538,1.5404,1.5876,1.5876,1.4107,1.2081,1.1106,0.9366,0.7936,0.7821,0.761,0.7721,0.8543,0.8363,0.8225,0.8617,0.8882,0.9199,0.9635,1.0245,1.0647,1.083,1.1243,1.1837,1.2217,1.2927,0.0,0.0,0.0,0.0,0.0,1.2134,1.1955,1.1784,1.1776,1.1776,1.1776,1.1411,1.1224,1.1216,1.0858,1.0688,1.068,1.0509,1.0331,0.0,0.0,0.0,0.0,0.9811,0.9778,0.9624,0.9624,0.9624,0.9624,0.9624,0.9624,0.9624,0.0,0.0,0.0,0.0,0.0,0.0,0.0,1.0619,1.0593,1.0654,1.0292,0.9995,0.9877,0.9032,0.8336,0.7804,0.728,0.0,0.0,0.0,0.0,0.0,0.0,0.0,0.0,0.0,0.6672,0.6946,0.7229,0.7464,0.7521,0.7541,0.7503,0.7362,0.6912,0.6949,0.0,0.0,0.0,0.0,0.0,0.0,0.0,0.0,0.0,0.0,0.0,0.0,0.0,0.0,0.0,0.0,0.0,0.0,0.0,0.824,0.9622,1.0983,1.156,1.2252,1.2687,1.2423,1.1335,1.0289,0.9405,0.8193,0.7358,0.7559,0.7242,0.7225,0.8103,0.8061,0.8103,0.8772,0.8964,0.9283,0.9902,1.0431,1.094,1.1709,1.2534,1.3248,0.0,0.0,0.0,0.0,0.0,0.0,0.0,1.2078,1.1833,1.1776,1.1776,1.1654,1.1403,1.1281,1.1102,1.0858,1.0745,1.0688,1.0688,1.0639,0.0,0.0,0.0,0.0,0.0,0.986,0.9786,0.9624,0.9624,0.9624,0.9624,0.9624,0.9624,0.9624,0.0,0.0,0.0,0.0,0.0,0.0,0.0,1.0368,1.0291,1.0173,0.9868,0.9603,0.9459,0.8843,0.822,0.7813,0.7085,0.0,0.0,0.0,0.0,0.0,0.0,0.0,0.6173,0.6295,0.6596,0.6965,0.722,0.7493,0.7579,0.7645,0.7588,0.7456,0.6863,0.6807,0.0,0.0,0.0,0.0,0.0,0.0,0.6671,0.0,0.0,0.0,0.0,0.0,0.0,0.0,0.0,0.0,0.0,0.0,0.0,0.0,0.7675,0.8796,0.9573,1.0273,1.0699,1.0442,0.9666,0.8653,0.802,0.7104,0.6506,0.6691,0.6741,0.6923,0.7654,0.778,0.7972,0.838,0.8551,0.8761,0.9138,0.9602,1.0277,1.097,1.1938,0.0,0.0,0.0,0.0,0.0,0.0,0.0,0.0,0.0,1.1768,1.213,1.1823,1.1565,1.133,1.1256,1.1078,1.0794,1.0794,1.0761,1.0688,1.0688,0.0,0.0,0.0,0.0,0.0,0.9989,0.9884,0.9721,0.9657,0.9624,0.9624,0.9624,0.9624,0.9624,0.0,0.0,0.0,0.0,0.0,0.0,0.0,1.0352,1.0233,1.0213,0.9629,0.9097,0.8877,0.813,0.7606,0.7408,0.0,0.0,0.0,0.0,0.0,0.0,0.0,0.0,0.6173,0.6192,0.6539,0.7197,0.7254,0.7483,0.7796,0.7645,0.7541,0.7428,0.672,0.6463,0.0,0.0,0.0,0.0,0.0,0.0,0.0,0.0,0.0,0.0,0.0,0.0,0.0,0.0,0.0,0.0,0.0,0.0,0.0,0.0,0.0,0.0,0.0,0.9005,0.9422,0.9579,0.8431,0.7265,0.6898,0.6061,0.0,0.5565,0.6165,0.6789,0.7232,0.7572,0.772,0.7582,0.7785,0.7909,0.7529,0.8251,0.8991,0.9342,0.9961,0.0,0.0,0.0,0.0,0.0,0.0,0.0,0.0,0.0,1.1631,1.2457,1.1811,1.1366,1.1618,1.1313,1.1249,1.1085,1.1068,1.097,1.0806,1.0806,0.0,0.0,0.0,0.0,0.0,1.0168,1.0054,0.9868,0.9697,0.9624,0.9624,0.9624,0.9624,0.9624,0.0,0.0,0.0,0.0,0.0,0.0,0.0,0.0,0.0,0.0,0.9316,0.8923,0.8189,0.7764,0.7538,0.0,0.0,0.0,0.0,0.0,0.0,0.0,0.0,0.0,0.6173,0.6323,0.6557,0.6866,0.7551,0.791,0.8014,0.8288,0.8024,0.7303,0.6567,0.5702,0.0,0.0,0.0,0.0,0.0,0.0,0.0,0.0,0.0,0.0,0.6284,0.6218,0.0,0.0,0.0,0.0,0.0,0.0,0.0,0.0,0.5446,0.548,0.5526,0.0,0.5966,0.5971,0.5677,0.5313,0.0,0.4971,0.4862,0.5281,0.5759,0.6321,0.7161,0.7572,0.7858,0.8173,0.8218,0.8139,0.7857,0.8788,0.9876,1.0576,1.1106,1.1364,0.0,0.0,0.0,0.0,0.0,0.0,0.0,0.0,1.0251,1.0361,1.009,1.0661,1.2207,1.2009,1.1819,1.1638,1.1492,1.1397,1.1354,1.1354,0.0,0.0,0.0,0.0,1.0682,1.0322,1.0054,0.9868,0.9697,0.9624,0.9624,0.9624,0.9624,0.9624,0.0,0.0,0.0,0.0,0.0,0.0,0.0,0.0,0.0,0.0,0.0,0.8949,0.8315,0.8103,0.0,0.0,0.0,0.0,0.0,0.0,0.0,0.0,0.0,0.622,0.6314,0.6417,0.6776,0.7277,0.7721,0.8089,0.8373,0.8505,0.8098,0.722,0.6188,0.5164,0.0,0.0,0.0,0.0,0.43,0.0,0.0,0.0,0.0,0.0,0.5888,0.5756,0.0,0.5903,0.5656,0.5325,0.0,0.0,0.0,0.0,0.5145,0.5067,0.4529,0.4648,0.4904,0.4838,0.4779,0.4735,0.4735,0.4556,0.4461,0.4801,0.5212,0.5695,0.6286,0.6741,0.7053,0.7171,0.7252,0.7397,0.7555,0.821,0.8954,0.9679,1.0032,0.0,0.0,0.0,0.0,0.0,0.0,0.0,0.0,0.0,0.9747,1.0073,0.9987,1.0266,1.1017,1.0807,1.09,1.1065,1.0707,1.0659,1.0907,1.0907,0.0,0.0,0.0,0.0,1.119,1.0894,1.0489,1.0194,1.0012,0.9797,0.9624,0.9624,0.9624,0.9624,0.0,0.0,0.0,0.0,0.0,0.0,0.0,0.0,0.0,0.0,0.0,0.0,0.0,0.0,0.0,0.0,0.0,0.0,0.0,0.0,0.0,0.0,0.6239,0.6388,0.6624,0.6596,0.6965,0.774,0.7891,0.8222,0.8703,0.8703,0.819,0.7212,0.5712,0.4779,0.0,0.0,0.0,0.0,0.43,0.0,0.0,0.0,0.0,0.0,0.0,0.0,0.0,0.5698,0.528,0.4677,0.561,0.0,0.0,0.0,0.0,0.0,0.4479,0.4692,0.5023,0.4953,0.4882,0.4828,0.4811,0.4572,0.4355,0.4355,0.4754,0.5216,0.5429,0.5887,0.6193,0.6054,0.6145,0.6465,0.7034,0.7269,0.7622,0.8171,0.8361,0.0,0.0,0.0,0.0,0.0,0.0,0.0,0.0,0.0,0.0,1.0191,1.0162,0.9778,0.8931,0.915,0.9651,1.0398,0.963,0.972,1.0578,1.0359,1.0359,0.0,0.0,0.0,1.1664,1.1371,1.1089,1.0706,1.051,1.0138,0.9805,0.978,0.9772,0.9764,0.0,0.0,0.0,0.0,0.0,0.0,0.0,0.0,0.0,0.0,0.0,0.0,0.0,0.0,0.0,0.0,0.0,0.0,0.0,0.0,0.0,0.6707,0.6529,0.6662,0.705,0.6889,0.704,0.7522,0.8401,0.8789,0.8713,0.9536,0.8959,0.707,0.5554,0.4665,0.43,0.43,0.0,0.0,0.0,0.0,0.0,0.0,0.0,0.0,0.0,0.0,0.0,0.5046,0.4931,0.4591,0.509,0.0,0.0,0.0,0.0,0.0,0.4615,0.4871,0.5061,0.4654,0.4697,0.4806,0.4703,0.4709,0.4671,0.4671,0.5027,0.553,0.6105,0.6599,0.6957,0.6924,0.6684,0.6769,0.0,0.0,0.7899,0.8198,0.0,0.0,0.0,0.0,0.0,0.0,0.0,0.0,0.0,0.0,0.0,0.8181,0.8066,0.7823,0.7561,0.9144,1.0378,1.1243,1.0224,1.0484,1.2001,1.1345,1.1345,0.0,0.0,1.1891,1.1882,1.1478,1.1274,1.1115,1.0915,1.0828,1.0776,1.0619,1.0567,1.044,0.0,0.0,0.0,0.0,0.0,0.0,0.0,0.0,0.0,0.0,0.0,0.0,0.0,0.0,0.0,0.0,0.0,0.0,0.0,0.0,0.7333,0.7352,0.7144,0.7125,0.7378,0.7447,0.7777,0.8316,0.9015,0.9447,0.9692,0.9285,0.8422,0.7211,0.5527,0.4619,0.43,0.4428,0.4434,0.0,0.0,0.0,0.0,0.0,0.0,0.0,0.0,0.0,0.0,0.0,0.4631,0.4527,0.4745,0.0,0.0,0.0,0.0,0.0,0.4431,0.4724,0.4958,0.4806,0.4996,0.517,0.4985,0.4893,0.4849,0.4849,0.5,0.5343,0.5794,0.6153,0.6502,0.6959,0.7085,0.7247,0.7655,0.7861,0.8062,0.0,0.0,0.0,0.0,0.0,0.0,0.0,0.0,0.0,0.0,0.0,0.0,0.0,0.7546,0.7426,0.7241,0.8133,0.9022,0.9802,0.8843,0.9354,1.1008,1.057,1.0899,1.1673,0.0,1.2219,1.2219,1.2018,1.1702,1.1496,1.1397,1.1185,1.0984,1.0896,1.0799,1.0703,0.0,0.0,0.0,0.0,0.0,0.0,0.0,0.0,0.0,0.0,0.0,0.0,0.0,0.0,0.0,0.0,0.0,0.0,0.0,0.74,0.7503,0.7564,0.7597,0.7741,0.7825,0.8042,0.8486,0.9167,0.9592,1.0038,1.0435,0.8676,0.7643,0.7327,0.5658,0.4858,0.4694,0.4724,0.4718,0.0,0.0,0.0,0.0,0.0,0.0,0.0,0.0,0.0,0.0,0.0,0.0,0.0,0.0,0.0,0.0,0.4333,0.43,0.4311,0.4365,0.4626,0.4898,0.4991,0.5262,0.5491,0.5415,0.5306,0.5246,0.5333,0.5328,0.5371,0.5583,0.5866,0.6295,0.6997,0.7437,0.7758,0.797,0.81,0.0,0.0,0.0,0.0,0.0,0.0,0.0,0.0,0.0,0.0,0.0,0.0,0.0,0.0,0.7491,0.7383,0.7198,0.7198,0.7627,0.8484,0.7598,0.8257,1.0131,0.9911,1.0351,1.1455,1.211,1.2436,1.2436,1.2436,1.2243,1.1889,1.1889,1.1654,1.1272,1.1272,1.1147,1.0977,0.0,0.0,0.0,0.0,0.0,0.0,0.0,0.0,0.0,0.0,0.0,0.0,0.0,0.0,0.0,0.0,0.0,0.0,0.0,0.7226,0.7168,0.6941,0.766,0.8307,0.8902,0.8562,0.8779,0.9517,1.0027,1.0234,1.0225,0.7974,0.6917,0.6958,0.5768,0.5481,0.5749,0.5297,0.5338,0.5756,0.503,0.0,0.0,0.0,0.0,0.0,0.0,0.0,0.0,0.0,0.0,0.0,0.0,0.0,0.4447,0.4333,0.43,0.4349,0.4637,0.4811,0.5007,0.5012,0.5203,0.5496,0.592,0.5926,0.5931,0.6268,0.6252,0.6214,0.6339,0.6741,0.7143,0.7432,0.7877,0.8231,0.8361,0.0,0.0,0.0,0.0,0.0,0.0,0.0,0.0,0.0,0.0,0.0,0.0,0.0,0.0,0.0,0.0,0.7339,0.7323,0.7323,0.7714,0.8484,0.7598,0.8589,1.1017,1.0131,1.068,1.2327,1.2327,1.2436,1.2436,1.2436,1.2427,1.2309,1.2309,1.2187,1.2009,1.2009,1.1878,1.169,0.0,0.0,0.0,0.0,0.0,0.0,0.0,0.0,0.0,0.0,0.0,0.0,0.0,0.0,0.0,0.0,0.0,0.0,0.0,0.7022,0.7082,0.7428,0.7206,0.7491,0.8453,0.908,0.9395,0.9508,0.9648,0.9748,0.9795,0.8122,0.721,0.704,0.5994,0.548,0.5426,0.528,0.5267,0.5345,0.4981,0.0,0.0,0.0,0.0,0.0,0.0,0.0,0.0,0.0,0.462,0.4527,0.4659,0.462,0.4447,0.4333,0.43,0.4322,0.4409,0.4768,0.5143,0.5219,0.5469,0.5746,0.5931,0.6165,0.641,0.6622,0.6692,0.6747,0.6861,0.7154,0.7508,0.7899,0.8182,0.8416,0.0,0.0,0.0,0.0,0.0,0.0,0.0,0.0,0.0,0.0,0.0,0.0,0.0,0.0,0.0,0.0,0.0,0.7301,0.7225,0.7225,0.7421,0.7709,0.7533,0.8136,0.963,0.9286,1.0017,1.1564,1.1564,1.1891,1.2436,1.2436,1.2436,1.2436,1.2436,1.2389,1.2323,1.2323,1.2191,1.202,0.0,0.0,0.0,0.0,0.0,0.0,0.0,0.0,0.0,0.0,0.0,0.0,0.0,0.0,0.0,0.0,0.0,0.0,0.7312,0.7003,0.7025,0.7487,0.6925,0.7056,0.8057,0.8977,0.9376,0.9274,0.908,0.8958,0.9072,0.7737,0.711,0.6988,0.6099,0.5752,0.5779,0.5596,0.5524,0.5569,0.5446,0.5238,0.0,0.0,0.0,0.0,0.0,0.0,0.0,0.0,0.4382,0.4414,0.4414,0.4414,0.4409,0.4365,0.4327,0.43,0.43,0.4681,0.5105,0.5224,0.561,0.6013,0.6203,0.6469,0.6763,0.7073,0.7176,0.7247,0.7361,0.7519,0.7752,0.0,0.8345,0.853,0.0,0.0,0.0,0.0,0.0,0.0,0.0,0.0,0.0,0.0,0.0,0.0,0.0,0.0,0.0,0.0,0.0,0.7236,0.7154,0.7192,0.723,0.7274,0.7437,0.7893,0.8633,0.8633,0.9579,1.1126,1.1126,1.1564,1.2436,1.2436,1.2436,1.2436,1.2436,1.2436,1.2436,1.2436,1.2351,1.2238,0.0,0.0,0.0,0.0,0.0,0.0,0.0,0.0,0.0,0.0,0.0,0.0,0.0,0.0,0.0,0.0,0.0,0.0,0.7493,0.7267,0.7012,0.6848,0.6917,0.7278,0.797,0.8255,0.8536,0.8901,0.8247,0.7993,0.7841,0.6844,0.6453,0.6675,0.6234,0.6489,0.7226,0.6385,0.6288,0.6615,0.6581,0.6379,0.6079,0.0,0.0,0.0,0.0,0.0,0.0,0.0,0.4393,0.4344,0.4649,0.449,0.4327,0.4436,0.4393,0.4306,0.4306,0.4567,0.4871,0.4991,0.5561,0.6246,0.6855,0.6893,0.7008,0.7725,0.7785,0.7741,0.785,0.7872,0.7915,0.8035,0.8356,0.0,0.0,0.0,0.0,0.0,0.0,0.0,0.0,0.0,0.0,0.0,0.0,0.0,0.0,0.0,0.0,0.0,0.0,0.0,0.7154,0.7274,0.7394,0.7513,0.7513,0.7847,0.8491,0.8484,0.9478,1.1126,1.1126,1.1564,1.2436,1.2436,1.2436,1.2436,1.2436,1.2436,1.2436,1.2436,1.2436,1.2436,0.0,0.0,0.0,0.0,0.0,0.0,0.0,0.0,0.0,0.0,0.0,0.0,0.0,0.0,0.0,0.0,0.0,0.0,0.7512,0.7529,0.7483,0.7277,0.6781,0.6801,0.7318,0.7133,0.7497,0.8444,0.7618,0.7231,0.7084,0.6742,0.6451,0.6234,0.6924,0.7242,0.7277,0.7389,0.7531,0.7626,0.6921,0.6407,0.6094,0.0,0.0,0.0,0.0,0.0,0.0,0.0,0.0,0.0,0.4501,0.4594,0.4648,0.4512,0.4567,0.4637,0.4469,0.4806,0.5262,0.5469,0.5931,0.6513,0.7203,0.7263,0.7334,0.7888,0.8111,0.8166,0.8024,0.8068,0.0,0.8291,0.0,0.0,0.0,0.0,0.0,0.0,0.0,0.0,0.0,0.0,0.0,0.0,0.0,0.0,0.0,0.0,0.0,0.0,0.0,0.0,0.7154,0.7856,0.8121,0.8164,0.8164,0.8106,0.7755,0.7658,0.8575,1.0241,1.0241,1.1008,1.2436,1.2436,1.2436,1.2436,1.2436,1.2436,1.2436,1.2436,1.2436,1.2436,0.0,0.0,0.0,0.0,0.0,0.0,0.0,0.0,0.0,0.0,0.7494,0.7172,0.0,0.0,0.0,0.0,0.0,0.0,0.0,0.7837,0.7877,0.7636,0.6854,0.6508,0.6787,0.661,0.6881,0.7527,0.7136,0.6827,0.6614,0.721,0.7303,0.7111,0.7796,0.8016,0.7786,0.7476,0.7333,0.7258,0.6928,0.6802,0.6664,0.0,0.0,0.0,0.0,0.0,0.0,0.0,0.0,0.0,0.4522,0.4539,0.461,0.4556,0.4616,0.4681,0.4626,0.5018,0.5513,0.5801,0.6301,0.6899,0.7578,0.7785,0.7943,0.8329,0.8486,0.8513,0.8367,0.8323,0.0,0.0,0.0,0.0,0.0,0.0,0.0,0.0,0.0,0.0,0.0,0.0,0.0,0.0,0.0,0.0,0.0,0.0,0.0,0.0,0.0,0.0,0.7154,0.7709,0.7955,0.8009,0.8399,0.827,0.802,0.7885,0.8673,1.0351,1.068,1.1446,1.2436,1.2436,1.2436,1.2436,1.2436,1.2436,1.2436,1.2436,1.2436,1.2436,0.0,0.0,0.0,0.0,0.0,0.0,0.0,0.0,0.0,0.0,0.7736,0.725,0.0,0.0,0.0,0.0,0.0,0.0,0.0,0.8032,0.8265,0.7817,0.7198,0.6769,0.6423,0.6701,0.6688,0.6451,0.6756,0.6749,0.6544,0.7936,0.8511,0.8487,0.8607,0.8678,0.8587,0.7175,0.6511,0.6448,0.7032,0.7477,0.7806,0.7232,0.0,0.0,0.0,0.0,0.0,0.0,0.0,0.0,0.4568,0.4477,0.4371,0.4649,0.4643,0.4556,0.48,0.5203,0.5648,0.6067,0.673,0.7426,0.7975,0.8388,0.8704,0.8883,0.8867,0.8807,0.8764,0.859,0.8437,0.0,0.0,0.0,0.0,0.0,0.0,0.0,0.0,0.0,0.0,0.0,0.0,0.0,0.0,0.0,0.0,0.0,0.0,0.0,0.0,0.0,0.7122,0.7243,0.7304,0.0,0.8084,0.8542,0.8791,0.8654,0.9478,1.1126,1.2001,1.2436,1.2436,1.2436,1.2436,1.2436,1.2436,1.2436,1.2436,1.2436,1.2436,1.2436,0.0,0.0,0.0,0.0,0.0,0.0,0.0,0.0,0.0,0.0,0.0,0.0,0.0,0.0,0.0,0.0,0.0,0.0,0.0,0.7772,0.8265,0.7817,0.8662,0.8713,0.7604,0.7605,0.724,0.6308,0.6607,0.66,0.64,0.7133,0.7361,0.714,0.8068,0.8556,0.8676,0.856,0.8816,0.9341,0.8846,0.8795,0.8852,0.8131,0.7433,0.0,0.0,0.0,0.0,0.0,0.0,0.0,0.4711,0.4734,0.4714,0.4593,0.4626,0.4806,0.5045,0.5328,0.5752,0.6584,0.754,0.8312,0.8443,0.8823,0.9057,0.8731,0.8943,0.9073,0.8693,0.8666,0.86,0.0,0.0,0.0,0.0,0.0,0.0,0.0,0.0,0.0,0.0,0.0,0.0,0.0,0.0,0.0,0.0,0.0,0.0,0.7024,0.7024,0.6975,0.6877,0.772,0.8112,0.0,0.8221,0.8825,0.9521,0.9485,1.0131,1.1126,1.2001,1.2436,1.2436,1.2436,1.2436,1.2436,1.2436,1.2436,1.2436,1.2436,1.2436,1.2436,0.0,0.0,0.0,0.0,0.0,0.0,0.0,0.0,0.0,0.0,0.0,0.0,0.0,0.0,0.0,0.0,0.0,0.0,0.0,0.0,0.9019,0.8604,0.9059,0.8827,0.7696,0.7313,0.7032,0.6872,0.6718,0.6512,0.6448,0.782,0.8479,0.857,0.9024,0.9447,0.9817,0.9045,0.8735,0.8634,0.8212,0.8014,0.8007,0.7619,0.7129,0.6597,0.6432,0.0,0.0,0.0,0.0,0.0,0.0,0.0,0.4758,0.4613,0.4676,0.4828,0.5175,0.5534,0.6062,0.7143,0.7964,0.8535,0.8649,0.891,0.9063,0.8812,0.9008,0.9073,0.8595,0.86,0.0,0.0,0.0,0.0,0.0,0.0,0.0,0.0,0.0,0.0,0.0,0.0,0.0,0.0,0.0,0.0,0.0,0.6964,0.6899,0.6899,0.6899,0.6866,0.6801,0.7287,0.7529,0.7636,0.8381,0.9481,1.0749,1.0401,1.0766,1.1648,1.2079,1.2295,1.2304,1.2398,1.2436,1.2436,1.2436,1.2436,1.2436,1.2436,1.2436,1.2436,0.0,0.0,0.0,0.0,0.0,0.0,0.0,0.0,0.0,0.0,0.0,0.0,0.0,0.0,0.0,0.0,0.0,0.0,0.0,0.0,0.0,0.9593,0.9316,0.8751,0.7837,0.7297,0.7142,0.7529,0.7281,0.7097,0.708,0.8897,0.9916,1.0291,1.0225,1.0502,1.0907,0.9266,0.8115,0.7513,0.7513,0.7408,0.7276,0.7346,0.719,0.6836,0.6802,0.6358,0.5792,0.5459,0.0,0.0,0.0,0.0,0.4742,0.4694,0.4722,0.4843,0.5256,0.5841,0.6575,0.7568,0.8117,0.8443,0.866,0.8818,0.8916,0.8894,0.9003,0.897,0.853,0.0,0.0,0.0,0.0,0.0,0.0,0.0,0.0,0.0,0.0,0.0,0.0,0.0,0.0,0.0,0.0,0.0,0.6806,0.689,0.6978,0.6978,0.7083,0.7177,0.7154,0.7177,0.7188,0.7188,0.857,1.004,1.1511,1.1002,1.1186,1.2087,1.2124,1.2143,1.2153,1.2361,1.2436,1.2436,1.2436,1.2436,1.2436,1.2436,1.2436,1.2436,0.0,0.0,0.0,0.0,0.0,0.0,0.0,0.0,0.0,0.0,0.95,0.9204,0.0,0.0,0.0,0.0,0.0,0.0,0.0,0.0,0.0,0.9852,1.0636,1.0462,0.889,0.9438,0.9037,0.7699,0.9066,0.9552,0.9076,0.9075,0.9142,0.9402,0.9776,1.0267,1.0741,0.9797,0.9554,0.9834,0.9834,0.9811,0.9765,0.9581,0.912,0.8564,0.8299,0.789,0.7373,0.6635,0.6525,0.0,0.0,0.0,0.5117,0.4882,0.4803,0.4861,0.539,0.6236,0.7085,0.7557,0.7992,0.8296,0.8432,0.8638,0.8764,0.8655,0.8818,0.8889,0.8617,0.0,0.0,0.0,0.0,0.0,0.0,0.0,0.0,0.0,0.0,0.0,0.0,0.0,0.0,0.0,0.0,0.0,0.6801,0.7321,0.7673,0.7673,0.8392,0.8628,0.8492,0.8628,0.8699,0.8699,0.9035,0.9727,1.0672,1.0425,1.0861,1.1869,1.2058,1.2143,1.2153,1.2361,1.2436,1.2436,1.2436,1.2436,1.2436,1.2436,1.2436,1.2436,0.0,0.0,0.0,0.0,0.0,0.0,0.0,0.0,0.0,0.0,0.0,1.002,0.0,0.0,0.0,0.0,0.0,0.0,0.0,0.0,0.0,1.0582,1.0621,1.0308,0.953,0.899,0.8892,0.9154,0.9119,0.9715,1.1101,1.113,1.1257,1.1443,1.1161,1.1261,1.1581,1.0789,1.0119,0.9776,0.9776,0.9486,0.9163,0.9276,0.8907,0.827,0.7982,0.7579,0.701,0.6264,0.611,0.6154,0.5603,0.0,0.0,0.0,0.495,0.5026,0.5707,0.635,0.685,0.7472,0.7735,0.7899,0.8155,0.8296,0.8372,0.8388,0.8421,0.8437,0.0,0.0,0.0,0.0,0.0,0.0,0.0,0.0,0.0,0.0,0.0,0.0,0.0,0.0,0.0,0.0,0.0,0.8269,0.8269,0.8522,0.8646,0.8561,0.8955,0.9123,0.8959,0.9123,0.9419,0.9935,0.9904,1.0464,1.1191,1.1102,1.1253,1.1652,1.1746,1.186,1.1973,1.2181,1.2332,1.2436,1.2436,1.2436,1.2436,1.2436,1.2436,1.2436,0.0,0.0,0.0,0.0,0.0,0.0,0.0,0.0,0.0,0.0,0.0,0.0,0.0,0.0,0.0,0.0,0.0,0.0,0.0,0.0,0.0,1.0818,1.0443,0.9992,0.9614,0.8904,0.9029,1.0032,0.951,1.0465,1.2651,1.3236,1.3746,1.4128,1.2991,1.2574,1.2566,1.1685,1.0795,0.9913,0.9667,0.9163,0.8672,0.904,0.884,0.829,0.8179,0.7943,0.7572,0.6814,0.6635,0.6667,0.6417,0.6142,0.0,0.0,0.0,0.521,0.5842,0.6228,0.6553,0.7061,0.736,0.758,0.8159,0.8167,0.8121,0.8369,0.8171,0.7992,0.0,0.0,0.0,0.0,0.0,0.0,0.0,0.0,0.0,0.0,0.0,0.0,0.0,0.0,0.0,0.0,0.0,0.8689,0.8689,0.9108,0.9257,0.913,0.9665,0.9975,0.9737,0.9975,1.036,1.0889,1.0889,1.12,1.1813,1.1813,1.1737,1.1595,1.1652,1.1765,1.1917,1.2124,1.2304,1.2436,1.2436,1.2436,1.2436,1.2436,1.2436,1.2436,0.0,0.0,0.0,0.0,0.0,0.0,0.0,0.0,0.0,0.0,0.0,0.0,1.0659,1.0188,1.0085,1.0575,1.0611,0.0,0.0,0.0,0.0,0.9992,1.0669,0.0,0.878,1.0451,1.0684,0.9361,1.1467,1.2825,1.3689,1.4535,1.5503,1.6414,1.4855,1.386,1.3387,1.2324,1.1786,1.1678,1.0659,1.0039,0.9825,0.9813,0.9801,0.9837,1.0063,0.0,0.0,0.0,0.0,0.0,0.0,0.814,0.7794,0.0,0.0,0.0,0.5587,0.594,0.6313,0.6397,0.6884,0.7512,0.8452,0.8137,0.7993,0.8964,0.84,0.772,0.0,0.0,0.0,0.0,0.0,0.0,0.0,0.0,0.0,0.0,0.0,0.0,0.0,0.0,0.0,0.0,0.0,0.6907,0.6907,0.8472,0.9309,0.9294,1.0871,1.1709,1.17,1.1709,1.1709,1.1719,1.1719,1.1709,1.1813,1.1813,1.1813,1.1813,1.202,1.2115,1.2143,1.2342,1.2427,1.2436,1.2436,1.2436,1.2436,1.2436,1.2436,1.2436,0.0,0.0,0.0,0.0,0.0,0.0,0.0,0.0,0.0,0.0,0.0,0.0,0.0,1.0312,1.0185,1.0911,1.0972,0.0,0.0,0.0,0.0,1.0669,1.0443,1.0282,1.0207,1.0065,1.03,1.0939,1.1438,1.246,1.408,1.4386,1.4883,1.5403,1.4823,1.4364,1.393,1.2699,1.2168,1.2107,1.1383,1.1045,1.09,1.0311,1.0188,1.0131,0.0,0.0,0.0,0.0,0.0,0.0,0.0,0.0,0.7962,0.7069,0.6412,0.5963,0.5786,0.5777,0.594,0.6405,0.6665,0.6866,0.7419,0.7877,0.8289,0.7961,0.8135,0.0,0.0,0.0,0.0,0.0,0.0,0.0,0.0,0.0,0.0,0.0,0.0,0.0,0.0,0.0,0.0,0.0,0.0,0.0,0.8757,0.9298,0.9578,0.9473,1.0107,1.0808,1.1362,1.1898,1.2219,1.2219,1.2219,1.2219,1.2219,1.2219,1.2219,1.2219,1.2295,1.2257,1.2143,1.2219,1.2247,1.2257,1.2389,1.2361,1.2266,1.2389,1.2436,1.2436,0.0,0.0,0.0,0.0,0.0,0.0,0.0,0.0,0.0,1.1238,0.0,0.0,0.0,0.0,1.0644,1.1175,1.125,1.1178,1.0997,1.1069,1.1105,1.1105,1.0594,1.0443,1.0669,1.0296,1.0545,1.1513,1.1695,1.2591,1.4171,1.4256,1.4545,1.4968,1.4606,1.4389,1.4232,1.3169,1.2771,1.2771,1.189,1.1636,1.1745,1.1298,1.1129,0.0,0.0,0.0,0.0,0.0,0.0,0.0,0.0,0.0,0.0,0.7069,0.6546,0.6316,0.5804,0.5656,0.579,0.6223,0.6442,0.6551,0.7099,0.7951,0.8563,0.8119,0.8639,0.0,0.0,0.0,0.0,0.0,0.0,0.0,0.0,0.0,0.0,0.0,0.0,0.0,0.0,0.0,0.0,0.0,0.0,0.0,0.9023,0.9691,1.0405,1.1039,1.0833,1.0975,1.1684,1.2332,1.2548,1.2342,1.2342,1.237,1.2436,1.2436,1.2507,1.2548,1.2408,1.2361,1.2238,1.2238,1.22,1.2162,1.2361,1.2313,1.2162,1.2361,1.2436,1.2436,0.0,0.0,0.0,0.0,0.0,0.0,0.0,0.0,1.1226,1.1492,0.0,0.0,0.0,0.0,0.0,1.1552,1.1552,1.1552,1.154,1.1274,1.1129,1.1129,0.0,0.0,0.9916,1.1178,1.1433,1.0697,1.2283,1.3285,1.3894,1.4135,1.4678,1.539,1.4352,1.4039,1.4244,1.3713,1.3652,1.3773,1.2216,1.189,1.2385,1.2626,0.0,0.0,1.3326,1.3169,0.0,1.1057,0.0,0.0,0.0,0.0,0.0,0.0,0.6487,0.6284,0.0,0.0,0.0,0.6035,0.6166,0.6583,0.7781,0.8226,0.8631,0.9384,0.9935,0.0,0.0,0.0,0.0,0.0,0.0,0.0,0.0,0.0,0.0,0.0,0.0,0.0,0.0,0.0,0.0,0.0,0.0,0.7376,0.7604,0.9581,1.1764,1.4062,1.298,1.2558,1.2981,1.2981,1.2664,1.2143,1.2143,1.2238,1.2427,1.2427,1.2636,1.2876,1.2558,1.2436,1.2436,1.2436,1.2323,1.2162,1.2361,1.2313,1.2162,1.2361,1.2436,1.2436,0.0,0.0,0.0,0.0,0.0,0.0,1.0701,1.1087,1.1443,0.0,0.0,0.0,1.1834,1.2023,1.2095,1.2095,1.2095,1.2023,1.183,1.1564,1.1419,1.1419,1.0621,1.0143,0.9916,0.9974,1.0201,1.0697,1.0719,1.1663,1.3338,1.2677,1.3009,1.4051,1.3761,1.3664,1.3701,1.3157,1.3411,1.4099,1.3085,1.3,1.3435,1.3121,0.0,0.0,0.0,1.3423,1.3213,0.0,1.2904,1.2659,0.0,0.0,0.9113,0.0,0.0,0.6565,0.5761,0.0,0.0,0.0,0.0,0.0,0.6529,0.7232,0.8025,0.8509,0.8698,0.0,0.0,0.0,0.0,0.0,0.0,0.0,0.0,0.0,0.0,0.0,0.0,0.0,0.0,0.0,0.0,0.0,0.782,0.8152,0.914,0.9691,1.0664,1.2181,1.1764,1.1955,1.2881,1.3106,1.3026,1.276,1.2346,1.2172,1.2219,1.248,1.276,1.3214,1.3326,1.3474,1.363,1.2762,1.2323,1.2162,1.2361,1.2313,1.2162,1.2361,1.2436,1.2436,0.0,0.0,0.0,0.0,0.0,1.0939,1.1276,1.1429,1.165,0.0,0.0,0.0,1.2158,1.2687,1.2843,1.2506,1.2481,1.2361,1.2095,1.1842,1.1697,1.1697,1.1074,1.0761,1.0761,1.0643,1.0593,1.0767,1.0624,1.1131,1.233,1.1794,1.2192,1.335,1.323,1.3302,1.3483,1.294,1.3326,1.4244,1.3556,1.3676,1.422,1.4026,1.3954,0.0,0.0,0.0,1.4364,1.3683,1.3333,0.0,0.0,0.0,0.0,0.0,0.0,0.6714,0.5909,0.5739,0.5847,0.6037,0.0,0.0,0.6297,0.7391,0.8497,0.0,0.8853,0.0,0.0,0.0,0.0,0.0,0.0,0.0,0.0,0.0,0.0,0.0,0.0,0.0,0.0,0.0,0.0,0.9354,0.903,0.9574,1.1319,1.1101,1.1647,1.3264,1.2646,1.2559,1.3118,1.3246,1.2934,1.2388,1.1983,1.1973,1.2134,1.2326,1.2605,1.3163,1.3454,1.3773,1.3923,1.3156,1.2646,1.2472,1.2469,1.2313,1.2162,1.2361,1.2436,1.2436,0.0,0.0,1.0079,1.0662,1.0668,1.0838,1.1517,1.1668,1.1939,0.0,1.2662,1.2638,1.2904,1.3507,1.3616,1.2904,1.2783,1.2638,1.2373,1.2107,1.1962,1.1962,1.1938,1.1834,1.1594,1.184,1.1555,1.0637,1.0781,1.0971,1.1327,1.1144,1.1793,1.2885,1.2733,1.2889,1.3219,1.2889,1.3338,1.4171,1.3761,1.4123,1.492,0.0,1.5234,1.5306,1.5765,1.5922,1.5623,1.3723,1.294,0.0,0.0,0.0,0.0,0.0,0.7285,0.6929,0.6187,0.5992,0.611,0.0,0.0,0.0,0.662,0.804,0.9299,0.0,0.0,0.0,0.0,0.0,0.0,0.0,0.0,0.0,0.0,0.0,0.0,0.0,0.0,0.0,0.0,0.8679,0.901,1.1193,1.0664,1.1319,1.3599,1.295,1.3501,1.5779,1.4378,1.3634,1.3534,1.3297,1.2677,1.175,1.163,1.1811,1.2173,1.2279,1.2615,1.3087,1.3398,1.3709,1.3984,1.3557,1.3301,1.3128,1.2586,1.2332,1.2307,1.237,1.2436,1.2436,0.0,0.9959,1.0056,1.0487,1.0674,1.1142,1.2012,1.2326,1.2733,1.3549,1.3809,1.4014,1.4292,1.4075,1.3845,1.3688,1.329,1.2928,1.265,1.2385,1.224,1.224,1.2035,1.1261,0.9877,0.9922,0.962,0.8776,0.8194,0.9061,1.1327,1.0539,1.0733,1.1651,1.2381,1.233,1.1838,1.2862,1.3471,1.3688,1.4014,1.4883,1.5982,1.603,1.6054,1.6066,1.6163,1.6066,1.5789,1.4957,1.4323,1.3708,0.0,0.0,0.0,0.9321,0.0,0.0,0.0,0.0,0.0,0.0,0.0,0.0,0.7223,0.755,0.7948,0.0,0.7334,0.7459,0.0,0.0,0.0,0.0,0.0,0.0,0.0,0.0,0.0,0.0,0.0,0.0,0.0,0.8642,0.8907,1.0327,1.22,1.3511,1.4051,1.3511,1.3727,1.5148,1.3588,1.3106,1.4029,1.3372,1.306,1.3078,1.2486,1.2445,1.2941,1.3344,1.3766,1.435,1.4815,1.5247,1.5388,1.4471,1.403,1.389,1.2852,1.2635,1.3038,1.2536,1.2436,1.2436,1.0067,0.9715,0.9655,1.0388,1.059,1.0926,1.195,1.2314,1.2725,1.3392,1.3947,1.4299,1.434,1.4316,1.4099,1.3568,1.3278,1.3,1.2723,1.2578,1.2506,1.2506,1.1957,1.1222,1.0292,0.9885,0.9258,0.8406,0.8487,0.8973,0.9932,0.9923,1.0134,1.0559,1.153,1.169,1.1261,1.2733,1.3544,1.3942,1.434,0.0,1.5547,1.5934,1.6091,1.6103,1.6235,1.6115,1.5825,1.5439,1.5125,0.0,0.0,1.2417,1.1729,0.0,0.9807,0.8959,0.0,0.0,0.0,0.8302,0.0,0.0,0.0,0.8519,0.8867,0.8718,0.7706,0.7509,0.9362,0.0,0.0,0.0,0.0,0.0,0.0,0.0,0.0,0.0,0.0,0.0,0.0,0.8864,0.8976,1.0209,1.2159,1.3495,1.4159,1.3943,1.4266,1.5458,1.4478,1.4093,1.4412,1.3746,1.3405,1.3377,1.284,1.2699,1.3104,1.3534,1.3901,1.4245,1.4907,1.5128,1.503,1.4493,1.4169,1.4062,1.2871,1.2545,1.2772,1.2545,1.2436,1.2436,0.9901,0.9468,0.9352,1.0287,1.0524,1.0895,1.1889,1.2352,1.2705,1.3036,1.3689,1.4049,1.3734,1.4131,1.4098,1.331,1.2944,1.2861,1.3012,1.2647,1.2504,1.2626,1.1992,1.1477,1.1262,1.0336,0.9401,0.8544,0.9061,0.9061,0.8544,0.9497,0.9838,0.9771,1.0846,1.1198,1.1302,1.2452,1.3409,1.4256,1.469,1.4896,1.5028,1.5765,1.6018,1.5994,1.6211,1.6115,1.5849,1.5584,1.5535,1.5354,1.4135,1.338,0.0,0.0,0.0,0.0,0.0,0.0,0.0,0.0,0.0,0.9787,0.0,0.0,0.0,0.9547,0.8473,0.0,0.0,0.0,0.0,0.0,0.0,0.0,0.0,0.0,0.0,0.0,0.0,0.0,0.0,0.9021,0.9183,1.0192,1.1458,1.2625,1.3751,1.3879,1.4438,1.5351,1.5258,1.5048,1.4616,1.4129,1.3679,1.3379,1.3139,1.3128,1.3413,1.3667,1.3887,1.4074,1.4752,1.4854,1.4426,1.4256,1.4169,1.4062,1.2871,1.2436,1.2545,1.2436,1.2436,1.2436,0.9361,0.9371,0.9431,0.9962,1.0731,1.1435,1.2007,1.2615,1.3125,1.3405,1.3746,1.3699,1.3148,1.3383,1.3668,1.3772,1.2352,1.2248,1.3956,1.2416,1.1742,1.229,1.2493,1.2082,1.0942,1.0267,0.9401,0.8544,0.7753,0.7753,0.8544,0.9497,0.9913,0.9885,1.0742,1.1305,1.1695,1.2158,1.2998,1.4039,1.5016,1.5547,0.0,1.6392,1.6453,1.6235,1.6272,1.6115,1.5849,0.0,1.5656,1.5692,0.0,1.4328,1.404,1.3397,0.0,0.0,0.0,0.0,0.0,0.0,1.1025,0.0,0.0,0.0,1.0122,0.8643,0.0,0.0,0.0,0.0,0.0,0.0,0.0,0.0,0.0,0.0,0.0,0.0,0.0,0.0,0.0,0.0,0.9438,0.9713,1.0941,1.1923,1.2433,1.2886,1.3295,1.3609,1.403,1.4341,1.4234,1.3767,1.3733,1.4129,1.3879,1.4086,1.4529,1.4791,1.4922,1.4957,1.5323,1.5443,1.5246,1.4511,1.4169,1.4062,1.2871,1.2772,1.3098,1.2555,1.2436,1.2436,0.9507,0.9507,0.9723,1.0416,1.0641,1.0862,1.121,1.1671,1.2441,1.3581,1.3804,1.4072,1.4473,1.4482,1.4662,1.5036,1.4148,1.3837,0.0,0.0,1.2808,1.3459,1.2048,1.1103,1.079,0.9242,0.8205,0.7665,0.7841,0.7841,0.7665,0.8623,0.9087,0.8983,0.9557,1.0445,1.1608,1.24,1.329,1.4208,0.0,1.5475,0.0,1.6199,1.638,1.6284,1.6296,1.6127,1.5743,0.0,1.5036,0.0,0.0,0.0,0.0,0.0,0.0,0.0,0.0,0.0,0.0,0.0,0.0,0.0,1.0975,0.0,1.0651,0.0,0.0,0.0,0.0,0.0,0.0,0.0,0.5854,0.0,0.0,0.0,0.0,0.0,0.0,0.0,0.0,0.0,0.0,0.0,0.0,0.9722,1.0671,1.1841,1.2886,1.3625,1.4629,1.5137,1.5137,1.4792,1.4711,1.4906,1.4761,1.4743,1.4956,1.5209,1.533,1.5354,1.5608,1.5517,1.5211,1.4449,1.3954,1.364,1.2762,1.2545,1.2762,1.2436,1.2436,1.2455,0.9979,0.9809,0.9914,1.0573,1.0641,1.075,1.1082,1.1268,1.1861,1.3275,1.3487,1.3932,1.5087,1.5263,1.5614,1.6252,1.5212,1.4641,0.0,0.0,1.2958,0.0,0.0,0.0,1.0839,0.9175,0.814,0.7834,0.8017,0.7753,0.7143,0.8105,0.8471,0.8357,0.8666,0.9732,1.131,1.2415,1.3314,1.4283,1.5311,1.5511,1.5282,1.5934,1.6223,1.6284,1.6296,1.591,1.5304,1.4195,1.4223,0.0,1.288,0.0,0.0,0.0,0.0,0.0,1.3954,0.0,0.0,0.0,0.0,0.0,0.0,0.0,0.0,0.0,0.0,0.0,0.0,0.0,0.0,0.0,0.0,0.598,0.0,0.0,0.0,0.0,0.0,0.0,0.0,0.0,0.0,0.0,0.0,0.0,0.9036,1.0632,1.1973,1.2951,1.4506,1.5388,1.5458,1.52,1.5175,1.5499,1.4676,1.4595,1.5221,1.4781,1.4862,1.5511,1.5164,1.5033,1.4832,1.4256,1.3748,1.3207,1.2663,1.2436,1.2436,1.2436,1.2474,1.255,1.0539,1.0279,1.0038,1.0047,1.0741,1.1526,1.2183,1.1822,1.1756,1.2351,1.2446,1.2909,1.3985,1.4898,1.5849,0.0,0.0,1.3868,1.5243,0.0,1.0993,0.0,0.0,1.2962,0.0,1.079,1.0338,0.9836,0.8009,0.7136,0.7143,0.8105,0.8544,0.8544,0.8723,0.944,1.0677,1.1725,1.2832,1.4024,1.5599,1.5946,1.5511,0.0,1.6054,1.6284,1.6284,0.0,0.0,1.3984,1.3162,0.0,0.0,0.0,0.0,0.0,0.0,0.0,0.0,0.0,0.0,1.4026,0.0,0.0,0.0,0.0,1.2324,0.0,0.0,0.0,0.0,0.0,0.0,0.6498,0.0,0.0,0.0,0.0,0.0,0.0,0.0,0.0,0.0,0.0,0.0,0.0,0.0,0.0,0.778,0.8979,0.9995,1.0609,1.275,1.4028,1.4277,1.4028,1.4432,1.5499,1.3162,1.3267,1.5383,1.3162,1.3383,1.5395,1.3709,1.3614,1.4594,1.3654,1.3315,1.3207,1.2663,1.2436,1.2436,1.2436,1.2569,1.2758,1.0425,1.0362,1.0362,1.0435,1.0543,1.091,1.1696,1.1548,1.1946,1.3423,1.3807,0.0,0.0,1.6813,1.7182,0.0,0.0,1.6128,1.6159,1.5087,0.0,0.0,0.0,1.3802,0.0,0.0,0.0,0.9242,0.8625,0.7856,0.7143,0.7401,0.7929,0.8472,0.8058,0.9035,1.1013,1.0837,1.146,1.2665,0.0,1.3521,1.3816,0.0,0.0,1.5395,1.4653,1.471,0.0,1.2287,1.2404,1.3143,1.1009,1.137,1.2536,1.2955,1.3474,0.0,0.0,0.0,1.3362,1.4424,0.0,0.0,0.0,0.0,0.0,0.0,0.0,0.0,0.0,0.0,0.7617,0.662,0.6669,0.0,0.0,0.0,0.0,0.0,0.0,0.0,0.0,0.0,0.0,0.0,0.0,0.0,0.0,0.8652,0.9705,1.0078,1.1784,1.3203,1.4028,1.324,1.3495,1.4585,1.3066,1.2636,1.3388,1.2421,1.2421,1.3173,1.2295,1.2519,1.3398,1.2724,1.2762,1.3207,1.2663,1.2436,1.2436,1.2436,1.2484,1.2587,1.1039,1.0997,1.0856,1.0662,1.0654,1.0953,1.1633,1.2073,1.2831,1.4182,1.4931,0.0,1.811,0.0,1.8336,0.0,1.7969,1.6808,1.6389,1.5061,0.0,1.4262,1.3754,0.0,0.0,0.0,0.0,0.0,0.8629,0.8085,0.7305,0.7251,0.7485,0.8131,0.7638,0.827,0.9815,1.0059,1.0554,1.1221,0.0,1.2055,0.0,0.0,1.4387,1.4953,0.0,1.4138,1.4263,1.1138,1.1453,1.2805,1.0468,1.095,1.2437,1.2595,1.3059,1.362,1.4289,1.3646,0.0,1.4275,1.3111,0.0,1.3333,0.0,0.0,0.0,0.0,0.0,0.0,0.0,0.0,0.6867,0.6866,0.0,0.0,0.6026,0.0,0.0,0.0,0.0,0.0,0.0,0.0,0.0,0.0,0.0,0.0,0.0,0.8855,0.9114,1.0681,1.181,1.2519,1.1873,1.22,1.3403,1.1655,1.1319,1.22,1.1109,1.0992,1.1755,1.0983,1.1101,1.1982,1.1764,1.1991,1.2545,1.2436,1.2484,1.2559,1.2559,1.2654,1.2824,1.2331,1.19,1.1208,1.0743,1.1142,1.168,0.0,0.0,1.4392,0.0,1.5772,1.7067,1.8491,1.8762,1.9284,2.0284,1.7704,1.5931,1.5882,1.3254,0.0,0.0,1.1527,1.1281,0.9521,0.0,0.0,0.0,0.0,0.774,0.7597,0.7441,0.7366,0.7373,0.7406,0.7285,0.7178,0.9147,0.9949,0.9823,1.1318,1.1552,1.0971,1.1052,0.0,1.4556,1.3857,1.3517,1.2874,1.0628,1.0474,1.1299,1.1381,1.2094,1.2999,1.3559,1.3803,1.3541,1.2685,1.3133,1.372,1.3709,0.0,0.0,0.0,0.0,1.2965,0.0,0.0,0.0,0.0,0.0,0.0,0.7204,0.7374,0.7476,0.0,0.0,0.0,0.0,0.0,0.0,0.0,0.0,0.0,0.0,0.0,0.0,0.0,0.0,0.7407,0.7991,0.9335,1.0015,0.9953,1.0031,1.0672,1.1873,0.9251,0.9361,1.1764,0.914,0.9244,1.1193,0.9574,0.9471,1.0562,1.0899,1.1017,1.1126,1.2001,1.2468,1.2776,1.2786,1.3041,1.3419,1.2673,1.2034,1.1298,1.0793,1.1317,1.1983,0.0,0.0,0.0,0.0,1.6604,1.7596,1.9019,1.9192,1.925,1.9629,1.8484,0.0,0.0,0.0,0.0,1.5194,1.5593,1.4923,1.2885,1.2871,0.0,0.9422,0.0,0.8489,0.7597,0.7441,0.7222,0.6962,0.7284,0.7368,0.7428,0.7675,0.7853,0.7901,0.8768,0.9361,0.0,0.0,1.0732,1.1584,1.0577,1.0782,1.1125,0.8729,0.8838,0.9832,0.9517,0.9753,1.0607,1.2615,1.3295,1.3429,1.3706,1.3366,1.2859,1.2803,1.2452,1.2106,0.0,0.0,0.0,0.0,0.0,0.0,0.0,0.0,0.0,0.7088,0.6798,0.0,0.0,0.0,0.0,0.6396,0.0,0.0,0.0,0.0,0.0,0.0,0.0,0.0,0.0,0.0,0.0,0.7536,0.8254,0.9017,0.9894,0.9008,0.914,1.0343,0.8809,0.8374,0.903,0.8152,0.8042,0.8589,0.7925,0.8146,0.903,0.9147,0.9581,1.0131,1.0351,1.1098,1.2074,1.2757,1.3154,1.34,1.3534,1.3291,1.2871,1.2358,0.0,0.0,1.2853,1.3904,0.0,1.5435,1.7028,0.0,1.8815,1.9297,1.9495,1.9316,1.8468,0.0,1.7766,0.0,0.0,1.5159,1.4751,1.3584,1.1604,1.1462,0.0,0.8883,0.0,0.8348,0.7787,0.7409,0.7177,0.6995,0.707,0.7095,0.7133,0.7032,0.7078,0.7252,0.7673,0.0,0.0,0.8639,0.8823,0.8886,0.8249,0.9173,1.0228,0.7952,0.8334,0.9673,0.8989,0.9233,0.9983,1.1002,1.17,1.2089,1.1738,1.1955,1.2128,1.1791,1.1458,1.146,1.1875,1.2058,1.1819,0.0,0.0,0.0,0.0,0.0,0.0,0.0,0.0,0.0,0.0,0.0,0.0,0.0,0.6383,0.0,0.0,0.0,0.0,0.0,0.0,0.0,0.0,0.0,0.0,0.7461,0.7872,0.8384,0.8895,0.8375,0.8406,0.8927,0.8011,0.7709,0.7826,0.7715,0.7493,0.7382,0.7382,0.7598,0.7931,0.8374,0.8816,0.9265,0.9846,1.0744,1.1811,1.248,1.3057,1.3523,1.4484,1.4458,1.4358,0.0,0.0,0.0,0.0,1.4376,0.0,1.5223,0.0,1.873,1.8541,1.9382,1.9807,1.941,0.0,1.7749,1.7798,1.5763,1.4337,1.3699,1.2323,1.075,0.9019,0.8617,0.8266,0.0,0.0,0.7633,0.7898,0.7295,0.7073,0.7095,0.6792,0.6675,0.6606,0.6857,0.7073,0.7301,0.7437,0.7388,0.723,0.729,0.7187,0.6991,0.685,0.8186,0.9616,0.7733,0.8315,0.9682,0.8901,0.943,1.0128,0.9495,0.9981,1.0377,0.9016,1.0036,1.1219,1.0562,1.0562,1.0891,1.1764,1.1328,1.0672,1.0453,1.0341,0.0,0.0,0.0,0.0,0.0,0.0,0.0,0.0,0.0,0.0,0.0,0.0,0.0,0.0,0.0,0.0,0.0,0.0,0.0,0.0,0.0,0.0,0.7522,0.7997,0.0,0.7904,0.0,0.8115,0.7786,0.7442,0.7265,0.7493,0.7493,0.7382,0.7265,0.7493,0.7382,0.7265,0.8042,0.8387,0.8431,0.9631,1.0763,1.1618,1.1927,1.2603,1.3324,1.4085,1.3122,1.2602,0.0,0.0,1.2885,1.4703,1.5311,1.5902,1.729,1.8604,1.942,1.9382,1.9855,2.0072,1.9836,1.9475,0.0,0.0,0.0,0.0,1.6669,1.5078,1.3373,1.1869,1.0458,0.9137,0.0,0.0,0.7384,0.7459,0.7156,0.6929,0.6685,0.6949,0.6802,0.6415,0.6605,0.0,0.7067,0.7279,0.7464,0.7573,0.7296,0.716,0.7095,0.6877,0.7015,0.7178,0.667,0.683,0.7229,0.7627,0.8106,0.8765,0.9875,1.0485,1.0554,0.9943,1.0113,1.0233,0.914,0.9794,1.0453,0.9699,1.0131,1.046,0.9375,0.9244,0.9029,0.8533,0.0,0.0,0.0,0.0,0.0,0.0,0.0,0.0,0.0,0.0,0.0,0.0,0.0,0.0,0.0,0.0,0.0,0.0,0.0,0.0,0.0,0.0,0.0,0.0,0.0,0.0,0.7832,0.7416,0.7265,0.7265,0.7265,0.7265,0.7154,0.7265,0.7265,0.7265,0.7376,0.7438,0.7669,0.8857,0.9453,0.9731,1.0726,1.1148,1.1511,1.4943,1.448,1.4051,0.0,0.0,0.0,0.0,1.6174,0.0,1.7377,1.8367,1.9117,1.9117,1.9684,1.9977,1.977,1.9562,1.9306,1.8995,1.8494,1.7706,1.6671,1.5127,0.0,1.1699,1.0019,0.8705,0.8078,0.0,0.0,0.7334,0.6801,0.6623,0.6573,0.6796,0.681,0.673,0.0,0.0,0.7182,0.7361,0.7502,0.7578,0.7339,0.7285,0.7312,0.7073,0.6948,0.6861,0.6616,0.6573,0.6616,0.6957,0.7315,0.7648,0.8461,0.9078,0.9594,0.914,0.9363,0.9683,0.8947,0.9258,0.9588,0.9044,0.9375,0.9588,0.9051,0.894,0.8845,0.854,0.8126,0.0,0.0,0.0,0.0,0.0,0.0,0.0,0.0,0.0,0.0,0.0,0.0,0.0,0.0,0.0,0.0,0.0,0.0,0.0,0.0,0.0,0.0,0.0,0.0,0.0,0.7719,0.741,0.7247,0.7247,0.7472,0.7472,0.7247,0.7472,0.7359,0.7252,0.7317,0.7415,0.7535,0.8129,0.8689,0.9239,0.9795,1.0308,1.1027,1.6105,1.6067,0.0,0.0,1.5142,0.0,1.6673,1.7556,1.7939,1.7509,1.8366,1.8938,1.8938,1.9562,1.9902,1.9684,1.9477,1.9269,1.9061,1.8444,1.7545,1.6407,1.4444,1.2763,1.1484,0.9413,0.8232,0.0,0.0,0.0,0.0,0.6561,0.6438,0.0,0.0,0.0,0.0,0.0,0.7225,0.7345,0.747,0.7535,0.7546,0.7421,0.7432,0.7491,0.7301,0.723,0.7182,0.6844,0.6763,0.6785,0.6687,0.6823,0.7024,0.7051,0.775,0.8344,0.8039,0.8633,0.9236,0.8897,0.8897,0.9022,0.8994,0.9008,0.9015,0.8954,0.894,0.8852,0.8581,0.8343,0.0,0.0,0.0,0.0,0.0,0.0,0.0,0.0,0.0,0.0,0.0,0.0,0.0,0.0,0.0,0.0,0.0,0.0,0.0,0.0,0.0,0.7596,0.8032,0.0,0.7739,0.0,0.7466,0.7377,0.7372,0.7601,0.7601,0.7372,0.7601,0.7601,0.7383,0.7508,0.7616,0.7703,0.7731,0.8274,0.897,0.897,0.9457,1.0301,0.0,0.0,0.0,0.0,0.0,0.0,1.8931,1.9362,1.9475,1.9634,1.9643,1.9807,1.9807,2.0034,2.011,1.9911,1.9694,1.9486,1.9278,1.7536,1.6959,1.7715,1.4045,1.2265,1.2954,1.0091,0.8274,0.0,0.0,0.0,0.0,0.0,0.0,0.0,0.0,0.0,0.0,0.7013,0.7225,0.7345,0.747,0.7584,0.7671,0.7546,0.7508,0.7513,0.7491,0.7486,0.7448,0.7192,0.697,0.6801,0.679,0.6948,0.716,0.7269,0.7317,0.747,0.7916,0.822,0.8477,0.8684,0.901,0.9306,0.9164,0.9239,0.9266,0.8994,0.894,0.8886,0.8716,0.8669,0.8513,0.0,0.0,0.0,0.0,0.0,0.0,0.7611,0.0,0.0,0.0,0.0,0.0,0.0,0.0,0.0,0.0,0.0,0.0,0.7149,0.0,0.7693,0.802,0.8016,0.0,0.791,0.7602,0.7502,0.7502,0.7502,0.7502,0.7502,0.7502,0.7502,0.7513,0.7633,0.7693,0.7709,0.7812,0.7983,0.7994,0.7994,0.8116,0.836,0.0,0.0,0.0,0.0,0.0,0.0,0.0,1.9186,1.9826,1.9911,1.9921,1.9921,1.9921,1.9996,1.9959,1.9741,1.9533,1.8987,1.7935,1.7095,1.6282,1.5663,1.3212,1.196,1.2107,0.9974,0.8475,0.0,0.0,0.0,0.0,0.0,0.0,0.0,0.0,0.6877,0.6959,0.7247,0.7442,0.7562,0.7611,0.7698,0.778,0.7589,0.7606,0.772,0.7655,0.7627,0.7611,0.7519,0.7323,0.71,0.6959,0.7073,0.7274,0.7323,0.7503,0.7783,0.799,0.8353,0.8698,0.895,0.9158,0.9367,0.9306,0.934,0.9347,0.9232,0.913,0.9022,0.8872,0.8771,0.8655,0.0,0.0,0.0,0.0,0.0,0.0,0.0,0.0,0.7353,0.0,0.0,0.0,0.0,0.0,0.0,0.0,0.0,0.0,0.7265,0.0,0.7674,0.7954,0.7804,0.7809,0.7875,0.7674,0.7627,0.7627,0.7627,0.7627,0.7627,0.7627,0.7665,0.7736,0.7785,0.7801,0.7807,0.785,0.7872,0.7872,0.7872,0.7872,0.8005,1.8352,0.0,1.7826,0.0,1.8229,1.8625,1.845,1.9159,1.9921,1.9921,1.9968,1.9987,1.993,1.9921,1.9855,1.9703,1.9108,1.8238,1.7298,1.6186,1.507,1.4296,1.2397,0.0,1.1457,0.9888,0.872,0.8291,0.7877,0.0,0.0,0.0,0.0,0.0,0.6997,0.7133,0.7225,0.747,0.7622,0.7703,0.7736,0.7801,0.785,0.7687,0.7725,0.7861,0.778,0.7752,0.7747,0.7714,0.7584,0.7525,0.7209,0.7279,0.7442,0.7558,0.7852,0.8137,0.839,0.8671,0.9072,0.9313,0.9401,0.9496,0.9456,0.9483,0.9496,0.9456,0.9293,0.9123,0.9022,0.8879,0.8764,0.0,0.0,0.0,0.0,0.0,0.0,0.0,0.7441,0.7346,0.7366,0.0,0.0,0.0,0.0,0.0,0.0,0.0,0.0,0.0,0.0,0.0,0.0,0.7737,0.7635,0.7685,0.7773,0.7752,0.7752,0.7752,0.7752,0.7752,0.7752,0.7796,0.7872,0.7872,0.7872,0.7872,0.7872,0.7872,0.7877,0.791,0.7926,0.7943,1.9155,1.9108,1.9221,2.0053,1.9855,1.9722,2.0148,2.0044,1.9921,1.9921,2.0091,2.0138,1.994,1.9921,1.9921,1.9921,1.8326,1.7324,1.7493,1.4462,1.3315,0.0,0.0,1.0653,1.1457,1.0,0.9008,0.8416,0.0,0.0,0.7328,0.0,0.7149,0.7154,0.7279,0.7334,0.735,0.7595,0.7698,0.7709,0.7823,0.7872,0.7872,0.7867,0.7867,0.7872,0.7872,0.7872,0.785,0.7741,0.7937,0.8147,0.7668,0.7595,0.7817,0.8051,0.817,0.8289,0.8878,0.9116,0.9242,0.9486,0.9707,0.9781,0.9639,0.9713,0.9774,0.9639,0.9367,0.915,0.915,0.9035,0.8886,0.8737,0.0,0.0,0.0,0.0,0.0,0.0,0.7719,0.7692,0.74,0.0,0.0,0.0,0.0,0.0,0.0,0.0,0.0,0.736,0.7374,0.0,0.7644,0.7715,0.769,0.7698,0.7812,0.7872,0.7872,0.7872,0.7872,0.7872,0.7872,0.7872,0.7872,0.7872,0.7872,0.7872,0.7872,0.7872,0.7883,0.8008,0.8051,0.8068,1.826,1.9077,1.9864,1.9996,2.0138,2.0195,2.0034,1.9193,1.9007,1.9765,1.9093,1.8927,1.9756,2.0044,1.9959,0.0,1.8175,1.6875,0.0,1.3846,1.2491,1.1867,1.0804,1.0225,1.0393,0.9612,0.9171,0.8905,0.0,0.0,0.0,0.7747,0.7725,0.7649,0.7769,0.7823,0.7834,0.7997,0.8019,0.7948,0.7981,0.7948,0.7872,0.7872,0.7872,0.7872,0.7872,0.7872,0.7989,0.8077,0.8308,0.8303,0.8377,0.845,0.8414,0.8534,0.8647,0.8885,0.9004,0.9242,0.9486,0.9612,0.9713,0.9808,0.9768,0.9788,0.9781,0.9639,0.953,0.9435,0.9327,0.9184,0.9035,0.8893,0.0,0.0,0.0,0.0,0.0,0.0,0.755,0.7516,0.0,0.7434,0.0,0.0,0.0,0.0,0.0,0.0,0.0,0.0,0.7968,0.0,0.8182,0.7973,0.7814,0.7818,0.7856,0.7872,0.7872,0.7872,0.7872,0.7872,0.7872,0.7872,0.7872,0.7872,0.7872,0.7872,0.7872,0.7921,0.8002,0.804,0.8106,0.8193,1.778,1.8954,2.0072,1.994,2.0138,2.0037,1.925,1.8427,1.8109,1.8348,1.768,1.7345,1.8164,1.8496,0.0,1.8705,1.7324,1.5856,1.4451,1.2856,1.1505,1.0563,1.0373,1.0134,0.9845,0.0,0.0,0.9198,0.872,0.8345,0.8079,0.8106,0.8084,0.8013,0.8089,0.8122,0.8127,0.8204,0.8193,0.8122,0.8122,0.8051,0.7937,0.7937,0.791,0.7872,0.7872,0.7872,0.7994,0.8244,0.8488,0.861,0.8976,0.9035,0.9086,0.8966,0.908,0.92,0.932,0.9566,0.97,0.9761,0.9795,0.9822,0.9822,0.9822,0.9795,0.9707,0.9646,0.9578,0.9483,0.9293,0.9123,0.9035,0.0,0.8682,0.8194,0.0,0.0,0.0,0.0,0.0,0.0,0.7746,0.0,0.0,0.0,0.0,0.0,0.0,0.0,0.8262,0.8188,0.0,0.8445,0.8031,0.7801,0.7872,0.7915,0.7915,0.7872,0.7921,0.7937,0.7937,0.7888,0.7899,0.7937,0.7888,0.7872,0.7872,0.7872,0.7948,0.8057,0.8106,0.8198,0.8323,1.7447,1.8689,0.0,0.0,1.9765,0.0,1.7981,1.7639,1.7112,1.5866,1.5816,1.5854,1.5704,1.5816,1.6379,1.7463,0.0,0.0,0.0,1.1781,1.0688,1.0574,1.0449,1.0215,0.9856,0.9742,0.9557,0.9302,0.8851,0.8562,0.8443,0.8323,0.8269,0.8258,0.8258,0.8258,0.8258,0.8258,0.8253,0.8247,0.8247,0.8176,0.8068,0.8057,0.7986,0.7883,0.7872,0.7872,0.7994,0.8244,0.8616,0.8867,0.9233,0.9477,0.9727,0.9477,0.9342,0.9457,0.9714,0.9836,0.9869,1.0012,0.9951,0.9856,0.9856,0.9856,0.9856,0.9856,0.9747,0.9652,0.9639,0.9388,0.9178,0.9171,0.8913,0.8608,0.8316,0.0,0.0,0.0,0.0,0.0,0.0,0.8241,0.8309,0.0,0.0,0.0,0.0,0.0,0.8194,0.833,0.81,0.8106,0.8377,0.7898,0.7769,0.7883,0.7997,0.7997,0.7899,0.8013,0.8068,0.8062,0.7943,0.7959,0.8057,0.7943,0.7894,0.7894,0.7894,0.797,0.8095,0.8204,0.8323,0.8443,0.0,0.0,1.725,1.8182,1.7679,1.7234,1.7672,1.6141,1.5113,1.5704,1.4836,1.4489,1.5513,1.5719,1.5374,1.4632,1.4007,1.3555,1.3359,1.1611,1.0726,1.0693,1.0498,1.0259,0.9981,0.9856,0.9633,0.9302,0.9101,0.8894,0.8687,0.866,0.8595,0.8503,0.8503,0.8503,0.8503,0.8503,0.8454,0.8372,0.8372,0.8301,0.8182,0.8089,0.8035,0.7997,0.7905,0.7872,0.7994,0.8244,0.843,0.8629,0.9007,0.9199,0.9387,0.9777,0.9787,0.9727,0.9964,0.9992,1.0005,1.0039,1.0114,1.0168,1.0168,1.0168,1.0168,1.0168,1.0148,1.0086,0.9964,0.97,0.9462,0.9347,0.8981,0.8608,0.8316,0.8269,0.0,0.0,0.8194,0.8411,0.8492,0.8486,0.8486,0.0,0.0,0.0,0.0,0.0,0.8693,0.8615,0.8232,0.8158,0.8535,0.8105,0.7894,0.8008,0.804,0.8089,0.8149,0.8182,0.8193,0.8193,0.816,0.8166,0.8193,0.816,0.8149,0.8149,0.8149,0.8225,0.8334,0.8367,0.8448,0.8552,1.3571,1.4871,1.6141,1.6761,1.6372,1.6069,1.5888,1.4694,1.3833,1.3761,1.304,1.2869,1.3748,1.3748,1.3394,1.2692,1.2972,1.3019,1.2403,1.1244,1.071,1.0655,1.0481,1.0297,1.0106,0.9927,0.9688,0.9389,0.9269,0.9117,0.8932,0.8823,0.8736,0.8671,0.8611,0.859,0.859,0.859,0.8552,0.8497,0.8497,0.8421,0.8312,0.8247,0.8187,0.8127,0.8062,0.8035,0.816,0.8664,0.883,0.889,0.9268,0.9317,0.95,0.9621,0.9764,0.979,0.9876,1.0022,1.0154,1.0154,1.027,1.0358,1.0297,1.0283,1.0283,1.0283,1.0283,1.0236,1.008,0.9808,0.9537,0.9313,0.8845,0.8431,0.8194,0.8167,0.0,0.8147,0.8361,0.8501,0.858,0.8589,0.8497,0.8381,0.0,0.0,0.8144,0.8378,0.8636,0.8483,0.8391,0.8412,0.8545,0.8165,0.8073,0.8138,0.8193,0.8225,0.8236,0.8291,0.8318,0.8318,0.8258,0.8269,0.8312,0.8258,0.8236,0.8236,0.8236,0.8312,0.8416,0.8416,0.8492,0.859,1.3217,1.4278,1.5168,1.5366,1.5175,1.4815,1.3781,1.3407,1.2869,1.1632,1.1455,1.1455,1.1455,1.1455,1.1455,1.1455,1.2295,1.233,1.1128,1.09,1.0704,1.0563,1.0465,1.0335,1.0177,0.9954,0.9737,0.9541,0.94,0.9264,0.9128,0.8921,0.8812,0.8791,0.8687,0.8633,0.8617,0.8617,0.8606,0.859,0.859,0.853,0.8443,0.8426,0.8356,0.8258,0.8242,0.8236,0.8236,0.8869,0.9136,0.9154,0.9404,0.9544,0.946,0.9317,0.9398,0.9557,0.9666,0.9921,1.0189,1.021,1.031,1.0364,1.0243,1.0216,1.0216,1.0216,1.0216,1.0163,0.9988,0.97,0.9399,0.9118,0.8548,0.8099,0.7885,0.0,0.7965,0.8213,0.833,0.8507,0.8527,0.8605,0.8549,0.8249,0.8506,0.0,0.0,0.8359,0.8268,0.8153,0.8343,0.8455,0.8455,0.8325,0.8263,0.8263,0.8367,0.8372,0.8291,0.8394,0.8443,0.8437,0.8334,0.835,0.8437,0.8329,0.8291,0.8291,0.8291,0.835,0.8443,0.8443,0.8503,0.859,1.181,1.1982,1.255,1.3732,1.2942,1.255,1.3553,1.2586,1.181,1.1455,1.1455,1.1455,1.1455,1.1455,1.1455,1.1455,1.15,1.1417,1.1248,1.1025,1.0791,1.0563,1.0541,1.0378,1.0057,0.9911,0.9818,0.978,0.9563,0.9345,0.9133,0.9095,0.9024,0.8921,0.8905,0.884,0.8742,0.8742,0.8682,0.859,0.859,0.8579,0.8552,0.8454,0.8405,0.8378,0.8274,0.8236,0.8236,0.8364,0.843,0.8519,0.8649,0.8716,0.88,0.8684,0.8944,0.9168,0.9453,0.9552,0.9583,0.9701,0.9745,0.9889,1.0128,1.0261,1.0261,1.0261,1.0261,1.0045,0.9519,0.9271,0.9065,0.8555,0.8094,0.7717,0.7502,0.0,0.7737,0.7867,0.8341,0.8769,0.8891,0.8854,0.8885,0.905,0.8909,0.8726,0.843,0.8591,0.8483,0.8071,0.8237,0.8204,0.8204,0.8329,0.8388,0.8388,0.841,0.8459,0.8535,0.8552,0.8562,0.8562,0.8541,0.8546,0.8557,0.8541,0.853,0.853,0.853,0.8546,0.8562,0.8562,0.8573,0.859,1.1455,1.1455,1.1649,1.2419,1.19,1.1726,1.2431,1.19,1.1531,1.1465,1.1455,1.1455,1.1455,1.1455,1.1455,1.1455,1.134,1.127,1.127,1.1112,1.0938,1.0759,1.0688,1.0487,1.0128,0.9998,0.9905,0.9835,0.9666,0.9497,0.9323,0.9193,0.9106,0.9046,0.8981,0.8883,0.8769,0.8769,0.8698,0.859,0.859,0.859,0.8584,0.853,0.8508,0.8503,0.8443,0.8426,0.8426,0.8682,0.8722,0.8772,0.8772,0.8856,0.8951,0.8822,0.8951,0.9209,0.9552,0.9722,0.9795,0.9857,1.0011,1.0283,1.0419,1.0419,1.0419,1.0419,1.0219,0.9837,0.9508,0.9268,0.8921,0.8586,0.8047,0.0,0.0,0.7605,0.7858,0.8139,0.8396,0.8641,0.877,0.8666,0.8568,0.8608,0.8574,0.854,0.8402,0.852,0.8436,0.8253,0.8307,0.8361,0.8426,0.8481,0.8508,0.8508,0.8508,0.8535,0.859,0.859,0.859,0.859,0.859,0.859,0.859,0.859,0.859,0.859,0.859,0.859,0.859,0.859,0.859,0.859,1.146,1.1476,1.1509,1.1536,1.159,1.1612,1.1552,1.1569,1.1563,1.1465,1.1455,1.1455,1.1455,1.1455,1.1455,1.1455,1.1368,1.1302,1.1275,1.1215,1.109,1.0884,1.0732,1.0525,1.0253,1.0128,1.0003,0.9878,0.9764,0.9633,0.9481,0.9302,0.9198,0.9171,0.9073,0.897,0.8851,0.8823,0.8742,0.8628,0.86,0.859,0.859,0.859,0.859,0.859,0.859,0.859,0.8584,0.8851,0.9006,0.9029,0.9029,0.9115,0.9223,0.8949,0.8966,0.9257,0.9502,0.9704,0.9781,0.9781,0.992,1.0197,1.0335,1.0335,1.0335,1.0335,0.9973,0.9721,0.946,0.9115,0.8777,0.8539,0.0,0.0,0.0,0.7709,0.7975,0.8319,0.8476,0.8637,0.8733,0.8601,0.8503,0.841,0.8492,0.8486,0.8367,0.8448,0.8497,0.8497,0.847,0.8497,0.8584,0.859,0.859,0.859,0.859,0.859,0.859,0.859,0.859,0.859,0.859,0.859,0.859,0.859,0.859,0.859,0.859,0.859,0.859,0.859,0.859,0.859,1.1476,1.1547,1.1661,1.1775,1.1705,1.1672,1.1775,1.1607,1.1465,1.1455,1.1455,1.1455,1.1455,1.1455,1.1455,1.1455,1.1449,1.1395,1.1281,1.1373,1.1226,1.077,1.0536,1.04,1.0373,1.0253,1.0128,1.0008,0.9883,0.9709,0.9487,0.947,0.94,0.9291,0.928,0.9215,0.9101,0.8986,0.8867,0.8747,0.8633,0.859,0.859,0.859,0.859,0.859,0.859,0.859,0.859,0.8584,0.866,0.8758,0.8758,0.884,0.8938,0.8938,0.9019,0.9084,0.897,0.8943,0.8954,0.8954,0.8948,0.9087,0.9504,0.9642,0.9642,0.9642,0.9498,0.9452,0.8916,0.8722,0.8557,0.8171,0.0,0.0,0.758,0.7784,0.7978,0.8121,0.8563,0.872,0.8731,0.884,0.891,0.8899,0.8905,0.8861,0.8736,0.8742,0.8747,0.8747,0.8633,0.8579,0.859,0.859,0.859,0.859,0.859,0.859,0.859,0.859,0.859,0.859,0.859,0.859,0.859,0.859,0.859,0.859,0.859,0.859,0.859,0.859,0.859,0.859,1.1465,1.1552,1.1629,1.1596,1.1737,1.1819,1.1721,1.1694,1.1656,1.158,1.1504,1.1455,1.1455,1.1455,1.1455,1.1455,1.1455,1.1433,1.1389,1.1427,1.1308,1.0976,1.0802,1.0612,1.0389,1.0264,1.0182,1.0134,0.9932,0.9829,0.9813,0.959,0.9459,0.9416,0.934,0.9242,0.9133,0.9084,0.8948,0.8764,0.872,0.8655,0.8595,0.8671,0.8704,0.8709,0.8785,0.8812,0.8812,0.8812,0.8845,0.8883,0.8883,0.8965,0.9079,0.915,0.9258,0.9345,0.9296,0.9226,0.9188,0.9264,0.943,0.9712,0.9856,0.9856,0.9833,0.9752,0.9536,0.9192,0.9003,0.8894,0.8684,0.8503,0.0,0.8088,0.8155,0.8198,0.828,0.8475,0.8725,0.8883,0.8883,0.8992,0.9035,0.8959,0.9024,0.9014,0.8889,0.8883,0.8883,0.8883,0.884,0.8812,0.8812,0.8736,0.8704,0.8698,0.8622,0.8628,0.8698,0.8622,0.8628,0.8698,0.8622,0.859,0.859,0.859,0.859,0.859,0.859,0.859,0.859,0.859,0.859,0.859,1.152,1.1639,1.171,1.159,1.177,1.1868,1.1667,1.171,1.1732,1.1645,1.1563,1.1514,1.1514,1.1476,1.1455,1.1455,1.1455,1.1455,1.1455,1.1455,1.1351,1.1112,1.0987,1.077,1.0449,1.0324,1.0242,1.0204,0.9998,0.9916,0.9954,0.9709,0.9557,0.9481,0.94,0.9296,0.9188,0.915,0.9035,0.8883,0.8845,0.8774,0.8709,0.8796,0.8829,0.884,0.8921,0.8954,0.8954,0.8954,0.8976,0.9008,0.9008,0.9117,0.9269,0.9383,0.9476,0.9546,0.9546,0.9481,0.9438,0.9525,0.9837,0.9985,0.9985,0.9985,0.9962,0.9871,0.9501,0.9302,0.9302,0.9133,0.897,0.8894,0.8677,0.8546,0.8633,0.8644,0.8687,0.8812,0.8965,0.9046,0.9014,0.9117,0.9155,0.9068,0.9139,0.9133,0.9014,0.897,0.8986,0.9063,0.9063,0.9101,0.9177,0.8943,0.8807,0.8769,0.8725,0.8747,0.8823,0.8742,0.8725,0.8769,0.872,0.866,0.859,0.8628,0.8622,0.859,0.859,0.859,0.859,0.859,0.8611,0.8644,1.1661,1.1824,1.1949,1.1841,1.1819,1.1781,1.1656,1.1639,1.1639,1.1639,1.1634,1.1634,1.1634,1.1525,1.1455,1.1455,1.1455,1.1455,1.1455,1.1455,1.1351,1.1112,1.0987,1.0808,1.0563,1.0449,1.0329,1.0204,1.0085,0.996,0.984,0.984,0.9715,0.9492,0.9487,0.9421,0.9296,0.9182,0.9133,0.9122,0.9003,0.8954,0.8954,0.8954,0.8954,0.8954,0.8954,0.8954,0.8954,0.8954,0.9035,0.9133,0.9139,0.9302,0.9514,0.9633,0.9671,0.9671,0.9671,0.9671,0.9671,0.9671,0.9671,0.9671,0.9671,0.9671,0.9671,0.9671,0.9671,0.9671,0.9671,0.9568,0.941,0.9177,0.9139,0.9052,0.8812,0.8986,0.909,0.897,0.916,0.9258,0.915,0.9237,0.9302,0.9302,0.9302,0.9253,0.9144,0.9019,0.9063,0.9296,0.9302,0.9421,0.9661,0.9193,0.8894,0.8774,0.8894,0.8954,0.8954,0.8954,0.8889,0.878,0.8899,0.8812,0.86,0.872,0.8698,0.859,0.859,0.859,0.859,0.859,0.8666,0.8769,1.1754,1.1819,1.1857,1.1824,1.1955,1.2025,1.19,1.1813,1.1764,1.1764,1.1618,1.1509,1.1509,1.1476,1.1455,1.1455,1.1455,1.1455,1.1455,1.1455,1.1384,1.1226,1.1188,1.1014,1.0688,1.065,1.0574,1.0449,1.0248,1.0172,1.0215,0.996,0.9802,0.9726,0.9557,0.9465,0.9427,0.9302,0.9253,0.9253,0.9215,0.915,0.909,0.9166,0.915,0.909,0.9171,0.9198,0.9198,0.9198,0.9226,0.9269,0.9356,0.9492,0.9622,0.9661,0.9726,0.9786,0.9786,0.9851,0.9894,0.9807,0.9786,0.9786,0.9786,0.9786,0.9764,0.9688,0.9671,0.9671,0.9671,0.9639,0.959,0.9519,0.9438,0.9389,0.94,0.9318,0.9269,0.9318,0.9313,0.9291,0.9258,0.9285,0.9302,0.9302,0.9302,0.9291,0.9253,0.922,0.9231,0.9302,0.9302,0.9302,0.9296,0.9231,0.9182,0.9144,0.9014,0.8997,0.9079,0.8992,0.8981,0.9024,0.897,0.8861,0.872,0.8753,0.8698,0.859,0.859,0.859,0.8595,0.8682,0.8742,0.8785,1.1873,1.1922,1.1944,1.1895,1.2004,1.2058,1.1938,1.19,1.1884,1.1884,1.1759,1.165,1.1601,1.1558,1.1509,1.146,1.1455,1.1455,1.1455,1.1455,1.1422,1.1346,1.1346,1.1177,1.0819,1.0764,1.0677,1.0558,1.0318,1.0242,1.0307,1.0036,0.9883,0.9829,0.9688,0.9601,0.9552,0.9481,0.9449,0.9449,0.9449,0.9432,0.9421,0.9487,0.947,0.9427,0.9546,0.9557,0.9514,0.9514,0.9487,0.947,0.959,0.9677,0.9748,0.9796,0.9856,0.9911,0.9911,0.9965,1.0003,0.9927,0.9911,0.9911,0.9911,0.9911,0.9889,0.9824,0.9807,0.9807,0.9807,0.9807,0.9791,0.9742,0.9671,0.9633,0.9666,0.9541,0.9476,0.9552,0.9492,0.9449,0.9449,0.9405,0.9356,0.9307,0.9302,0.9302,0.9302,0.9351,0.9378,0.9378,0.9421,0.9416,0.9345,0.9367,0.9329,0.9237,0.9139,0.9128,0.9198,0.9122,0.9133,0.9198,0.9177,0.9095,0.8986,0.9035,0.8954,0.8802,0.8802,0.8774,0.8747,0.8867,0.8943,0.8997,1.2004,1.2085,1.2123,1.202,1.2004,1.1971,1.1868,1.1928,1.1987,1.1987,1.1982,1.1933,1.183,1.171,1.159,1.1482,1.146,1.1455,1.1455,1.1455,1.1455,1.1455,1.1455,1.1297,1.096,1.0835,1.071,1.059,1.034,1.0221,1.0215,1.0085,0.996,0.9851,0.984,0.978,0.9682,0.9671,0.9677,0.9688,0.9688,0.9748,0.9835,0.9835,0.9829,0.984,0.9949,0.9916,0.9824,0.9824,0.9758,0.9704,0.9807,0.9845,0.9873,0.9987,1.0019,1.0019,1.0019,1.0019,1.0019,1.0019,1.0019,1.0019,1.0019,1.0019,1.0025,1.0036,1.0025,1.0025,1.0036,1.0025,0.9981,0.9873,0.9845,0.9807,0.9715,0.9682,0.9671,0.9682,0.9677,0.9671,0.9671,0.9568,0.9459,0.9345,0.9334,0.9334,0.9334,0.9443,0.9503,0.9503,0.9601,0.9655,0.9655,0.9541,0.9378,0.9166,0.9258,0.9302,0.9302,0.9302,0.9302,0.9313,0.9432,0.9416,0.9313,0.9438,0.9351,0.915,0.915,0.9079,0.8997,0.9106,0.9215,0.9318,1.2112,1.2074,1.2053,1.2118,1.2134,1.2123,1.2096,1.2036,1.1987,1.1987,1.1911,1.1846,1.1824,1.171,1.1623,1.1596,1.1509,1.1455,1.1455,1.1455,1.1455,1.1455,1.1455,1.1373,1.1199,1.1085,1.0965,1.084,1.0509,1.0346,1.034,1.0123,1.0008,0.9976,0.9878,0.9824,0.9796,0.9709,0.972,0.9802,0.9802,0.9813,0.9835,0.9835,0.978,0.9709,0.9737,0.9731,0.9704,0.9704,0.9748,0.9807,0.9829,0.9905,0.9987,1.0014,1.0019,1.0019,1.0019,1.0019,1.0019,1.0019,1.0019,1.0019,1.0019,1.0019,1.0047,1.0144,1.009,1.0052,1.0144,1.0085,1.0014,0.9987,0.99,0.9862,0.9932,0.9786,0.9704,0.9791,0.972,0.9671,0.9671,0.9644,0.9617,0.959,0.959,0.959,0.959,0.9617,0.9628,0.9628,0.9563,0.9525,0.9525,0.9497,0.9459,0.941,0.934,0.9302,0.9302,0.9302,0.9302,0.9313,0.9432,0.9416,0.9313,0.9438,0.94,0.9269,0.9269,0.9253,0.9231,0.9258,0.928,0.9318,1.2172,1.2118,1.2096,1.2161,1.2172,1.2172,1.2172,1.2118,1.2074,1.2074,1.2025,1.1966,1.1906,1.1792,1.1677,1.1558,1.1493,1.1455,1.1455,1.1455,1.1455,1.1455,1.1455,1.1427,1.1362,1.1243,1.1096,1.0922,1.0672,1.0525,1.046,1.0221,1.0106,1.0101,0.9981,0.9927,0.9921,0.9862,0.9873,0.9927,0.9927,0.9992,1.0095,1.0036,1.0014,1.0008,1.0008,0.9976,0.9921,0.9921,0.9927,0.9927,0.9927,0.997,1.0019,1.0019,1.0019,1.0019,1.0019,1.0063,1.0106,1.0106,1.015,1.0166,1.0047,1.0063,1.0128,1.0188,1.0199,1.0199,1.0204,1.015,1.009,1.003,0.9965,0.9949,1.0014,0.9916,0.9856,0.9916,0.9873,0.9813,0.9753,0.9748,0.9726,0.9671,0.972,0.9726,0.9671,0.9829,0.9845,0.9677,0.9715,0.9688,0.9574,0.9574,0.9601,0.965,0.9536,0.9476,0.9476,0.9416,0.9421,0.9476,0.9487,0.9487,0.9487,0.9546,0.9536,0.947,0.9416,0.9427,0.9476,0.9476,0.9514,0.9574,1.2227,1.2221,1.2227,1.2205,1.2221,1.2227,1.2205,1.2205,1.2194,1.2172,1.2172,1.2134,1.2031,1.19,1.1732,1.1504,1.1465,1.1455,1.1455,1.1455,1.1455,1.1455,1.1455,1.1455,1.1455,1.1357,1.1199,1.0982,1.0819,1.0683,1.0579,1.0324,1.0204,1.0199,1.0074,1.0019,1.0019,1.0019,1.0019,1.0019,1.0019,1.0144,1.0313,1.021,1.0237,1.0329,1.0346,1.0291,1.0204,1.0204,1.0123,1.0019,1.0019,1.0036,1.0047,1.0025,1.0036,1.0052,1.0052,1.0128,1.021,1.0226,1.0313,1.0335,1.0128,1.0161,1.0242,1.0259,1.0329,1.0362,1.028,1.0231,1.0172,1.0068,1.0036,1.0019,1.0019,1.0019,1.0019,1.0019,1.0019,0.9981,0.9878,0.9867,0.9829,0.9737,0.9835,0.9856,0.9769,1.0063,1.0095,0.9802,0.996,0.996,0.9764,0.9758,0.9807,0.99,0.9829,0.9758,0.9693,0.9552,0.9541,0.9633,0.953,0.9546,0.9639,0.9661,0.9671,0.9661,0.9579,0.9595,0.9666,0.9644,0.9699,0.9791,1.2352,1.2411,1.2455,1.2346,1.2417,1.2449,1.2346,1.233,1.2292,1.2183,1.2172,1.2167,1.215,1.1949,1.1764,1.1623,1.1514,1.1455,1.1455,1.1455,1.1455,1.1455,1.1455,1.1455,1.1455,1.1438,1.1362,1.1226,1.0895,1.0726,1.0704,1.0362,1.0204,1.0199,1.0074,1.0019,1.0019,1.0019,1.0019,1.0019,1.0019,1.0041,1.0068,1.0052,1.0057,1.0085,1.0188,1.0215,1.0204,1.0204,1.0123,1.0019,1.0019,1.0095,1.0161,1.0052,1.0095,1.0177,1.0177,1.0188,1.0226,1.0335,1.0373,1.0378,1.0346,1.0351,1.0389,1.0487,1.0443,1.0411,1.0492,1.034,1.0199,1.0182,1.009,1.0019,1.0019,1.0019,1.0019,1.0019,1.0019,1.0014,0.9998,0.9992,0.9987,0.9976,1.0085,1.0144,1.0134,1.028,1.034,1.0291,1.0215,1.0166,1.0134,1.0134,1.0139,1.0155,1.0248,1.0123,0.9807,0.9584,0.9497,0.9508,0.9492,0.9497,0.9519,0.9628,0.9671,0.9677,0.9758,0.9742,0.9655,0.9552,0.9519,0.9536,1.2477,1.2498,1.252,1.2466,1.2498,1.252,1.2466,1.2395,1.2335,1.2281,1.2216,1.2172,1.2172,1.202,1.1841,1.165,1.1585,1.1525,1.146,1.1455,1.1455,1.1455,1.1455,1.1455,1.1455,1.1455,1.1427,1.1373,1.1145,1.0965,1.0835,1.0606,1.0465,1.0394,1.0204,1.0123,1.0123,1.0123,1.0085,1.0025,1.0095,1.0123,1.0112,1.0047,1.0063,1.0128,1.0182,1.0248,1.0307,1.0307,1.0269,1.0226,1.0226,1.0302,1.0389,1.0335,1.0405,1.0503,1.0503,1.0552,1.0601,1.0585,1.0634,1.0666,1.0596,1.0585,1.0579,1.0558,1.0568,1.0579,1.0558,1.0416,1.0286,1.0215,1.0101,1.0019,1.0019,1.0019,1.0019,1.0019,1.0019,1.0019,1.0019,1.0019,1.0019,1.0019,1.0134,1.0204,1.0204,1.0378,1.0449,1.0389,1.0394,1.0367,1.0307,1.0307,1.0335,1.04,1.0389,1.0302,1.0139,0.9965,0.9813,0.9677,0.9617,0.9508,0.9389,0.9443,0.9503,0.9568,0.9546,0.9552,0.9568,0.9584,0.9546,0.9497]},{"header":{"parameterUnit":"m.s-1","parameterCategory":1,"la1":30.6,"la2":28.766,"lo1":-90.7593,"lo2":-88.6598,"dy":0.0162,"dx":0.0183,"nx":116,"ny":114,"refTime":"2023-04-22T06:00:00:Z","depth":0,"parameterNumber":3,"parameterNumberName":"V-component_of_WINDS"},"data":[0.0,0.0,0.0,0.0,0.0,0.0,0.0,0.0,0.0,0.0,0.0,0.0,0.0,0.0,0.0,0.0,0.0,0.0,0.0,0.0,0.0,0.0,0.0,0.0,0.0,0.0,0.0,0.0,0.0,0.0,0.0,0.0,0.0,0.0,0.0,0.0,0.0,0.0,0.0,0.0,0.0,0.0,0.0,0.0,0.0,0.0,0.0,0.0,0.0,0.0,0.0,0.0,0.0,0.0,0.0,0.0,0.0,0.0,0.0,0.0,0.0,0.0,0.0,0.0,0.0,0.0,0.0,0.0,0.0,0.0,0.0,0.0,0.0,0.0,0.0,0.0,0.0,0.0,0.0,0.0,0.0,0.0,0.0,0.0,0.0,0.0,0.0,0.0,0.0,0.0,0.0,0.0,0.0,0.0,0.0,0.0,0.0,0.0,0.0,0.0,0.0,0.0,0.0,0.0,0.0,0.0,0.0,0.0,0.0,0.0,0.0,0.0,0.0,0.0,0.0,0.0,0.0,0.0,0.0,0.0,0.0,0.0,0.0,0.0,0.0,0.0,0.0,0.0,0.0,0.0,0.0,0.0,0.0,0.0,0.0,0.0,0.0,0.0,0.0,0.0,0.0,0.0,0.0,0.0,0.0,0.0,0.0,0.0,0.0,0.0,0.0,0.0,0.0,0.0,0.0,0.0,0.0,0.0,0.0,0.0,0.0,0.0,0.0,0.0,0.0,0.0,0.0,0.0,0.0,0.0,0.0,0.0,0.0,0.0,0.0,0.0,0.0,0.0,0.0,0.0,0.0,0.0,0.0,0.0,0.0,0.0,0.0,0.0,0.0,0.0,0.0,0.0,0.0,0.0,0.0,0.0,0.0,0.0,0.0,0.0,0.0,0.0,0.0,0.0,0.0,0.0,0.0,0.0,0.0,0.0,0.0,0.0,0.0,0.0,0.0,0.0,0.0,0.0,0.0,0.0,0.0,0.0,0.0,0.0,0.0,0.0,0.0,0.0,0.0,0.0,0.0,0.0,0.0,0.0,0.0,0.0,0.0,0.0,0.0,0.0,0.0,0.0,0.0,0.0,0.0,0.0,0.0,0.0,0.0,0.0,0.0,0.0,0.0,0.0,0.0,0.0,0.0,0.0,0.0,0.0,0.0,0.0,0.0,0.0,0.0,0.0,0.0,0.0,0.0,0.0,0.0,0.0,0.0,0.0,0.0,0.0,0.0,0.0,0.0,0.0,0.0,0.0,0.0,0.0,0.0,0.0,0.0,0.0,0.0,0.0,0.0,0.0,0.0,0.0,0.0,0.0,0.0,0.0,0.0,0.0,0.0,0.0,0.0,0.0,0.0,0.0,0.0,0.0,0.0,0.0,0.0,0.0,0.0,0.0,0.0,0.0,0.0,0.0,0.0,0.0,0.0,0.0,0.0,0.0,0.0,0.0,0.0,0.0,0.0,0.0,0.0,0.0,0.0,0.0,0.0,0.0,0.0,0.0,0.0,0.0,0.0,0.0,0.0,0.0,0.0,0.0,0.0,0.0,0.0,0.0,0.0,0.0,0.0,0.0,0.0,0.0,0.0,0.0,0.0,0.0,0.0,0.0,0.0,0.0,0.0,0.0,0.0,0.0,0.0,0.0,0.0,0.0,0.0,0.0,0.0,0.0,0.0,0.0,0.0,0.0,0.0,0.0,0.0,0.0,0.0,0.0,0.0,0.0,0.0,0.0,0.0,0.0,0.0,0.0,0.0,0.0,0.0,0.0,0.0,0.0,0.0,0.0,0.0,0.0,0.0,0.0,0.0,0.0,0.0,0.0,0.0,0.0,0.0,0.0,0.0,0.0,0.0,0.0,0.0,0.0,0.0,0.0,0.0,0.0,0.0,0.0,0.0,0.0,0.0,0.0,0.0,0.0,0.0,0.0,0.0,0.0,0.0,0.0,0.0,0.0,0.0,0.0,0.0,0.0,0.0,0.0,0.0,0.0,0.0,0.0,0.0,0.0,0.0,0.0,0.0,0.0,0.0,0.0,0.0,0.0,0.0,0.0,0.0,0.0,0.0,0.0,0.0,0.0,0.0,0.0,0.0,0.0,0.0,0.0,0.0,0.0,0.0,0.0,0.0,0.0,0.0,0.0,0.0,0.0,0.0,0.0,0.0,0.0,0.0,0.0,0.0,0.0,0.0,0.0,0.0,0.0,0.0,0.0,0.0,0.0,0.0,0.0,0.0,0.0,0.0,0.0,0.0,0.0,0.0,0.0,0.0,0.0,0.0,0.0,0.0,0.0,0.0,0.0,0.0,0.0,0.0,0.0,0.0,0.0,0.0,0.0,0.0,0.0,0.0,0.0,0.0,0.0,0.0,0.0,0.0,0.0,0.0,0.0,0.0,0.0,0.0,0.0,0.0,0.0,0.0,0.0,0.0,0.0,0.0,0.0,0.0,0.0,0.0,0.0,0.0,0.0,0.0,0.0,0.0,0.0,0.0,0.0,0.0,0.0,0.0,0.0,0.0,0.0,0.0,0.0,0.0,0.0,0.0,0.0,0.0,0.0,0.0,0.0,0.0,0.0,0.0,0.0,0.0,0.0,0.0,0.0,0.0,0.0,0.0,0.0,0.0,0.0,0.0,0.0,0.0,0.0,0.0,0.0,0.0,0.0,0.0,0.0,0.0,0.0,0.0,0.0,0.0,0.0,0.0,0.0,0.0,0.0,0.0,0.0,0.0,0.0,0.0,0.0,0.0,0.0,0.0,0.0,0.0,0.0,0.0,0.0,0.0,0.0,0.0,0.0,0.0,0.0,0.0,0.0,0.0,0.0,0.0,0.0,0.0,0.0,0.0,0.0,0.0,0.0,0.0,0.0,0.0,0.0,0.0,0.0,0.0,0.0,0.0,0.0,0.0,0.0,0.0,0.0,0.0,0.0,0.0,0.0,0.0,0.0,0.0,0.0,0.0,0.0,0.0,0.0,0.0,0.0,0.0,0.0,0.0,0.0,0.0,0.0,0.0,0.0,0.0,0.0,0.0,0.0,0.0,0.0,0.0,0.0,0.0,0.0,0.0,0.0,0.0,0.0,0.0,0.0,0.0,0.0,0.0,0.0,0.0,0.0,0.0,0.0,0.0,0.0,0.0,0.0,0.0,0.0,0.0,0.0,0.0,0.0,0.0,0.0,0.0,0.0,0.0,0.0,0.0,0.0,0.0,0.0,0.0,0.0,0.0,0.0,0.0,0.0,0.0,0.0,0.0,0.0,0.0,0.0,0.0,0.0,0.0,0.0,0.0,0.0,0.0,0.0,0.0,0.0,0.0,0.0,0.0,0.0,0.0,0.0,0.0,0.0,0.0,0.0,0.0,0.0,0.0,0.0,0.0,0.0,0.0,0.0,0.0,0.0,0.0,0.0,0.0,0.0,0.0,0.0,0.0,0.0,0.0,0.0,0.0,0.0,0.0,0.0,0.0,0.0,0.0,0.0,0.0,0.0,0.0,0.0,0.0,0.0,0.0,0.0,0.0,0.0,0.0,0.0,0.0,0.0,0.0,0.0,0.0,0.0,0.0,0.0,0.0,0.0,0.0,0.0,0.0,0.0,0.0,0.0,0.0,0.0,0.0,0.0,0.0,0.0,0.0,0.0,0.0,0.0,0.0,0.0,0.0,0.0,0.0,0.0,0.0,0.0,0.0,0.0,0.0,0.0,0.0,0.0,0.0,0.0,0.0,0.0,0.0,0.0,0.0,0.0,0.0,0.0,0.0,0.0,0.0,0.0,0.0,0.0,0.0,0.0,0.0,0.0,0.0,0.0,0.0,0.0,0.0,0.0,0.0,0.0,0.0,0.0,0.0,0.0,0.0,0.0,0.0,0.0,0.0,0.0,0.0,0.0,0.0,0.0,0.0,0.0,0.0,0.0,0.0,0.0,0.0,0.0,0.0,0.0,0.0,0.0,0.0,0.0,0.0,0.0,0.0,0.0,0.0,0.0,0.0,0.0,0.0,0.0,0.0,0.0,0.0,0.0,0.0,0.0,0.0,0.0,0.0,0.0,0.0,0.0,0.0,0.0,0.0,0.0,0.0,0.0,0.0,0.0,0.0,0.0,0.0,0.0,0.0,0.0,0.0,0.0,0.0,0.0,0.0,0.0,0.0,0.0,0.0,0.0,0.0,0.0,0.0,0.0,0.0,0.0,0.0,0.0,0.0,0.0,0.0,0.0,0.0,0.0,0.0,0.0,0.0,0.0,0.0,0.0,0.0,0.0,0.0,0.0,0.0,0.0,0.0,0.0,0.0,0.0,0.0,0.0,0.0,0.0,0.0,0.0,0.0,0.0,0.0,0.0,0.0,0.0,0.0,0.0,0.0,0.0,0.0,0.0,0.0,0.0,0.0,0.0,0.0,0.0,0.0,0.0,0.0,0.0,0.0,0.0,0.0,0.0,0.0,0.0,0.0,0.0,0.0,0.0,0.0,0.0,0.0,0.0,0.0,0.0,0.0,0.0,0.0,0.0,0.0,0.0,0.0,0.0,0.0,0.0,0.0,0.0,0.0,0.0,0.0,0.0,0.0,0.0,0.0,0.0,0.0,0.0,0.0,0.0,0.0,0.0,0.0,0.0,0.0,0.0,0.0,0.0,0.0,0.0,0.0,0.0,0.0,0.0,0.0,0.0,0.0,0.0,0.0,0.0,0.0,0.0,0.0,0.0,0.0,0.0,0.0,0.0,0.0,0.0,0.0,0.0,0.0,0.0,0.0,0.0,0.0,0.0,0.0,0.0,0.0,0.0,0.0,0.0,0.0,0.0,0.0,0.0,0.0,0.0,0.0,0.0,0.0,0.0,0.0,0.0,0.0,0.0,0.0,0.0,0.0,0.0,0.0,0.0,0.0,0.0,0.0,0.0,0.0,0.0,0.0,0.0,0.0,0.0,0.0,0.0,0.0,0.0,0.0,0.0,0.0,0.0,0.0,0.0,0.0,0.0,0.0,0.0,0.0,0.0,0.0,0.0,0.0,0.0,0.0,0.0,0.0,0.0,0.0,0.0,0.0,0.0,0.0,0.0,0.0,0.0,0.0,0.0,0.0,0.0,0.0,0.0,0.0,0.0,0.0,0.0,0.0,0.0,0.0,0.0,0.0,0.0,0.0,0.0,0.0,0.0,0.0,0.0,0.0,0.0,0.0,0.0,0.0,0.0,0.0,0.0,0.0,0.0,0.0,0.0,0.0,0.0,0.0,0.0,0.0,0.0,0.0,0.0,0.0,0.0,0.0,0.0,0.0,0.0,0.0,0.0,0.0,0.0,0.0,0.0,0.0,0.0,0.0,0.0,0.0,0.0,0.0,0.0,0.0,0.0,0.0,0.0,0.0,0.0,0.0,0.0,0.0,0.0,0.0,0.0,0.0,0.0,0.0,0.0,0.0,0.0,0.0,0.0,0.0,0.0,0.0,0.0,0.0,0.0,0.0,0.0,0.0,0.0,0.0,0.0,0.0,0.0,0.0,0.0,0.0,0.0,0.0,0.0,0.0,0.0,0.0,0.0,0.0,0.0,0.0,0.0,0.0,0.0,0.0,0.0,0.0,0.0,0.0,0.0,0.0,0.0,0.0,0.0,0.0,0.0,0.0,0.0,0.0,0.0,0.0,0.0,0.0,0.0,0.0,0.0,0.0,0.0,0.0,0.0,0.0,0.0,0.0,0.0,0.0,0.0,0.0,0.0,0.0,0.0,0.0,0.0,0.0,0.0,0.0,0.0,0.0,0.0,0.0,0.0,0.0,0.0,0.0,0.0,0.0,0.0,0.0,0.0,0.0,0.0,0.0,0.0,0.0,0.0,0.0,0.0,0.0,0.0,0.0,0.0,0.0,0.0,0.0,0.0,0.0,0.0,0.0,0.0,0.0,0.0,0.0,0.0,0.0,0.0,0.0,0.0,0.0,0.0,0.0,0.0,0.0,0.0,0.0,0.0,0.0,0.0,0.0,0.0,0.0,0.0,0.0,0.0,0.0,0.0,0.0,0.0,0.0,0.0,0.0,0.0,0.0,0.0,0.0,0.0,0.0,0.0,0.0,0.0,0.0,0.0,0.0,0.0,0.0,0.0,0.0,0.0,0.0,0.0,0.0,0.0,1.8266,0.0,0.0,0.0,0.0,0.0,0.0,0.0,0.0,0.0,0.0,0.0,0.0,0.0,0.0,0.0,0.0,0.0,0.0,0.0,0.0,0.0,0.0,0.0,0.0,0.0,0.0,0.0,0.0,0.0,0.0,0.0,0.0,0.0,0.0,0.0,0.0,0.0,0.0,2.8264,2.8936,2.9779,3.0678,3.0474,2.9511,2.7929,0.0,0.0,0.0,0.0,0.0,0.0,0.0,0.0,0.0,0.0,0.0,0.0,0.0,0.0,0.0,0.0,0.0,0.0,0.0,0.0,0.0,0.0,0.0,0.0,0.0,0.0,0.0,0.0,0.0,0.0,0.0,0.0,0.0,0.0,0.0,0.0,0.0,0.0,0.0,0.0,0.0,0.0,0.0,0.0,0.0,0.0,0.0,0.0,0.0,0.0,0.0,0.0,0.0,0.0,0.0,0.0,0.0,0.0,0.0,0.0,0.0,0.0,0.0,0.0,0.0,0.0,0.0,0.0,0.0,0.0,0.0,1.8504,0.0,0.0,0.0,0.0,0.0,0.0,0.0,0.0,0.0,0.0,0.0,0.0,0.0,0.0,0.0,0.0,0.0,0.0,0.0,0.0,0.0,0.0,0.0,2.9122,2.8961,2.8464,2.9379,2.9799,0.0,0.0,0.0,0.0,0.0,0.0,0.0,2.9502,2.9392,2.8589,3.0445,3.2031,3.3291,3.3763,3.2855,3.072,2.9215,0.0,0.0,0.0,0.0,0.0,0.0,0.0,0.0,0.0,0.0,0.0,0.0,0.0,0.0,0.0,0.0,0.0,0.0,0.0,0.0,0.0,0.0,0.0,0.0,0.0,0.0,0.0,0.0,0.0,0.0,0.0,0.0,0.0,0.0,0.0,0.0,0.0,0.0,0.0,0.0,0.0,0.0,0.0,0.0,0.0,0.0,0.0,0.0,0.0,0.0,0.0,0.0,0.0,0.0,0.0,0.0,0.0,0.0,0.0,0.0,0.0,0.0,0.0,0.0,2.5063,2.5414,2.4296,2.3822,2.3631,2.1336,1.9922,1.915,0.0,0.0,0.0,0.0,0.0,0.0,0.0,0.0,0.0,0.0,0.0,0.0,0.0,0.0,0.0,0.0,0.0,0.0,0.0,0.0,0.0,0.0,2.9871,2.9894,2.9877,3.084,3.1165,3.0583,0.0,0.0,0.0,0.0,0.0,2.9664,2.9761,3.0053,3.0526,3.3421,3.5626,3.719,3.788,3.8133,3.7794,3.2699,3.0938,3.1651,0.0,0.0,0.0,0.0,0.0,0.0,0.0,0.0,0.0,0.0,0.0,0.0,0.0,0.0,0.0,0.0,0.0,0.0,0.0,0.0,0.0,0.0,0.0,0.0,0.0,0.0,0.0,0.0,0.0,0.0,0.0,0.0,0.0,0.0,0.0,0.0,0.0,0.0,0.0,0.0,0.0,2.061,2.1057,0.0,0.0,0.0,0.0,0.0,0.0,0.0,0.0,0.0,0.0,0.0,0.0,0.0,0.0,2.5632,2.6193,2.6701,2.7302,2.7939,2.7929,2.727,2.6616,2.63,2.6242,2.4839,0.0,2.0657,1.9345,0.0,0.0,0.0,0.0,0.0,0.0,0.0,0.0,0.0,0.0,0.0,0.0,0.0,0.0,0.0,0.0,0.0,0.0,0.0,0.0,0.0,3.0081,3.0812,3.0791,3.3642,3.446,3.2142,3.3805,0.0,0.0,0.0,3.0958,3.0642,3.1075,3.244,3.4758,3.7584,3.9628,4.0821,4.1355,4.1683,4.165,3.8019,3.5354,3.3427,3.1986,0.0,0.0,0.0,0.0,0.0,0.0,0.0,0.0,0.0,0.0,0.0,0.0,0.0,0.0,0.0,0.0,0.0,0.0,0.0,0.0,0.0,0.0,0.0,0.0,0.0,0.0,0.0,0.0,0.0,0.0,0.0,0.0,0.0,0.0,0.0,0.0,0.0,0.0,0.0,2.2985,2.4142,2.3125,2.4885,2.5683,0.0,0.0,0.0,0.0,0.0,0.0,0.0,0.0,0.0,2.6247,2.6852,2.7491,2.8243,2.8752,2.9484,3.0478,3.0749,3.0954,3.0881,2.9954,2.9493,2.9348,2.7792,2.6476,2.5134,2.2676,2.17,2.1633,0.0,0.0,0.0,0.0,0.0,2.0801,0.0,0.0,0.0,0.0,0.0,0.0,0.0,0.0,0.0,0.0,0.0,0.0,2.9184,3.1006,3.2377,3.2843,3.6088,3.6901,3.3939,3.5205,3.4789,3.1759,3.1564,3.1564,3.1623,3.3155,3.5562,3.8764,4.1336,4.3192,4.4304,4.4788,4.5052,4.5068,4.3414,4.0148,3.5856,3.4399,3.2095,2.9343,0.0,0.0,0.0,0.0,0.0,0.0,0.0,0.0,0.0,0.0,0.0,0.0,0.0,0.0,0.0,0.0,0.0,0.0,0.0,0.0,0.0,0.0,0.0,0.0,0.0,0.0,0.0,0.0,0.0,0.0,0.0,0.0,0.0,0.0,0.0,0.0,0.0,2.503,2.6717,2.4792,2.7324,2.8589,0.0,0.0,0.0,0.0,0.0,0.0,2.8253,2.8321,2.8637,2.9325,2.9983,3.0492,3.0821,3.13,3.2108,3.3275,3.3275,3.3544,3.3993,3.2845,3.2273,3.2152,3.0476,2.958,2.911,2.5988,2.406,2.3172,2.336,2.3131,2.2742,2.3305,2.3408,2.3288,0.0,0.0,0.0,0.0,0.0,0.0,0.0,0.0,0.0,0.0,0.0,2.9215,3.1921,3.346,3.5167,3.7091,3.7343,3.6967,3.61,3.4718,3.3516,3.2593,3.1876,3.1842,3.2525,3.6156,3.9213,4.1724,4.3941,4.5829,4.7507,4.8174,4.8665,4.8923,4.8048,4.4909,3.9871,3.6258,3.3335,3.0939,2.969,0.0,0.0,0.0,0.0,0.0,0.0,0.0,0.0,0.0,0.0,0.0,0.0,0.0,0.0,0.0,0.0,0.0,0.0,0.0,0.0,0.0,0.0,0.0,0.0,0.0,0.0,0.0,0.0,0.0,0.0,0.0,0.0,0.0,0.0,0.0,0.0,0.0,0.0,2.5132,2.9198,0.0,0.0,0.0,0.0,3.0131,3.0172,3.0258,3.033,3.034,3.0672,3.1302,3.2018,3.2976,3.4203,3.4262,3.4651,3.534,3.534,3.537,3.54,3.4681,3.4382,3.4292,3.2915,3.193,3.1096,2.7881,2.6491,2.6333,2.5704,2.5435,2.5405,2.5465,2.5076,2.4537,0.0,0.0,0.0,0.0,0.0,0.0,0.0,0.0,2.6229,2.7038,2.9307,3.1436,3.2906,3.6687,3.9565,4.0723,4.2523,4.2475,3.9867,3.8764,3.6987,3.4322,3.3539,3.4438,3.7031,4.0899,4.4199,4.6983,4.9791,5.1227,5.139,5.1666,5.1511,5.115,5.0537,4.9012,4.6535,4.17,3.8003,3.5156,3.2224,3.01,0.0,0.0,0.0,0.0,0.0,0.0,0.0,0.0,0.0,0.0,0.0,0.0,0.0,0.0,0.0,0.0,0.0,0.0,0.0,0.0,0.0,0.0,0.0,0.0,0.0,0.0,0.0,0.0,0.0,0.0,0.0,0.0,0.0,0.0,0.0,0.0,0.0,3.0776,3.3941,0.0,3.3448,3.3499,3.3583,3.3416,3.3874,3.4462,3.5054,3.5493,3.5973,3.6658,3.6907,3.7033,3.7048,3.6621,3.6529,3.6709,3.6283,3.6321,3.6723,3.6013,3.546,3.5003,3.4149,3.3395,3.2677,3.107,2.9461,2.7829,2.7141,2.6871,2.6931,2.738,2.7111,2.6572,0.0,0.0,0.0,0.0,0.0,0.0,0.0,0.0,2.6001,2.7055,3.0268,3.3264,3.5599,4.0008,4.3485,4.5342,4.6215,4.5403,4.2534,4.0534,3.8208,3.527,3.5656,3.7482,4.0707,4.4819,4.8161,5.0617,5.3191,5.4115,5.3391,5.3391,5.2977,5.2218,5.1878,5.148,5.0735,4.675,4.2765,3.8871,3.563,3.3524,3.1933,0.0,0.0,0.0,0.0,0.0,0.0,0.0,0.0,0.0,0.0,0.0,0.0,0.0,0.0,0.0,0.0,0.0,0.0,0.0,0.0,0.0,0.0,0.0,0.0,0.0,0.0,0.0,0.0,0.0,0.0,0.0,0.0,0.0,0.0,0.0,3.425,3.5007,3.7761,3.8983,3.7444,3.7415,3.751,3.7546,3.7838,3.8262,3.8937,3.8893,3.9089,3.9532,3.9532,3.9283,3.8805,3.8184,3.781,3.7747,3.7033,3.6966,3.7354,3.6966,3.6535,3.6038,3.5124,3.4395,3.3759,3.3026,3.1627,2.9803,2.9192,2.8757,2.8637,2.9325,2.9146,2.8577,0.0,0.0,0.0,0.0,0.0,0.0,0.0,2.4485,2.5559,2.7024,3.033,3.4696,4.0197,4.3345,4.6641,5.0846,4.7867,4.5303,4.3912,3.9747,3.6741,3.5421,3.8215,4.094,4.332,4.7838,5.0907,5.2459,5.3977,5.4322,5.3625,5.3563,5.3115,5.2321,5.2287,5.2287,5.2192,5.1035,4.7369,4.2105,3.9817,3.761,3.5374,0.0,0.0,0.0,0.0,0.0,0.0,0.0,0.0,0.0,0.0,0.0,0.0,0.0,0.0,0.0,0.0,0.0,0.0,0.0,0.0,0.0,0.0,0.0,0.0,0.0,0.0,0.0,0.0,0.0,0.0,0.0,0.0,0.0,3.1709,3.5272,3.7763,3.7556,4.0492,4.1997,4.0713,4.1839,4.2634,4.2634,4.207,4.1736,4.1736,4.0414,3.9721,3.969,3.969,3.9628,3.9596,3.893,3.8581,3.855,3.7793,3.7445,3.7472,3.7413,3.7413,3.735,3.5989,3.5049,3.4407,3.3599,3.2958,3.2413,3.1796,3.1177,3.0668,3.1327,3.1091,3.0368,0.0,0.0,0.0,0.0,0.0,0.0,0.0,2.4559,2.5742,2.7793,3.2833,3.7571,4.1055,4.6248,4.9941,5.1012,4.8383,4.6041,4.4572,4.0451,3.8459,3.9284,4.1181,4.4561,4.9597,5.2046,5.5057,5.8759,5.918,5.9007,5.8269,5.717,5.5943,5.4667,5.4115,5.3873,5.3839,5.2957,5.1321,4.8939,4.4164,4.1273,3.9389,0.0,0.0,0.0,0.0,0.0,0.0,0.0,0.0,0.0,0.0,0.0,0.0,0.0,0.0,0.0,0.0,0.0,0.0,0.0,0.0,0.0,0.0,0.0,0.0,0.0,0.0,0.0,0.0,0.0,0.0,0.0,0.0,3.7019,3.6386,3.8569,4.0943,4.2888,4.5102,4.6019,4.5032,4.5421,4.5421,4.4768,4.4702,4.464,4.464,4.4286,4.3801,4.3277,4.3244,4.2737,4.1721,4.1107,4.0434,3.9859,3.9178,3.8796,3.8733,3.8311,3.8051,3.8051,3.7176,3.6474,3.5707,3.5023,3.4305,3.367,3.2975,3.2609,3.2507,3.264,3.2029,3.1083,0.0,0.0,0.0,0.0,0.0,0.0,0.0,2.4658,2.6089,2.8406,3.413,3.9124,4.2334,4.7175,5.0458,5.0959,4.7785,4.522,4.3958,4.1395,4.1006,4.3313,4.6204,4.9539,5.3414,5.629,5.9003,6.1636,6.1682,6.1305,6.0586,5.9334,5.7967,5.6564,5.6115,5.6038,5.6286,5.5174,5.4625,5.4093,5.0021,4.6986,4.4475,4.1186,3.9643,3.8913,3.6743,3.6274,3.6282,3.3424,0.0,0.0,0.0,0.0,0.0,0.0,0.0,0.0,0.0,0.0,0.0,0.0,0.0,0.0,0.0,0.0,0.0,0.0,0.0,0.0,0.0,0.0,0.0,0.0,3.9355,4.2078,4.2668,4.3796,4.5276,4.7312,4.8505,4.8837,4.8034,4.8145,4.7855,4.7058,4.6836,4.6576,4.6278,4.6196,4.5845,4.5109,4.5673,4.5211,4.3731,4.3356,4.2622,4.1477,4.08,4.028,3.9901,3.9525,3.9335,0.0,3.8417,3.7481,3.6529,3.5851,3.5016,0.0,0.0,0.0,0.0,0.0,3.3055,3.2154,0.0,0.0,0.0,0.0,0.0,0.0,0.0,2.4625,2.6262,2.8855,3.4431,3.9609,4.3346,4.6812,4.9284,5.0335,4.6467,4.3642,4.2808,4.264,4.4064,4.7579,5.1893,5.4828,5.6152,6.021,6.2498,6.2869,6.2892,6.2551,6.1899,6.0861,5.9669,5.8383,5.8141,5.8363,5.8897,5.7384,5.7104,5.7509,5.5973,5.3194,4.9644,4.6892,4.5595,4.5,4.2588,4.062,3.8902,3.7504,0.0,0.0,0.0,0.0,0.0,0.0,0.0,0.0,0.0,0.0,0.0,0.0,0.0,0.0,0.0,0.0,0.0,0.0,0.0,0.0,0.0,0.0,0.0,0.0,4.3202,4.6431,4.9282,4.9759,5.0025,5.078,5.0978,5.0798,5.0149,5.0161,4.9921,4.9073,4.8513,4.7928,4.7295,0.0,0.0,0.0,0.0,4.703,4.5458,4.5407,4.4578,4.3009,4.2285,4.1609,4.0802,4.0802,4.0802,4.072,3.9569,3.8468,3.7253,3.6637,3.5646,3.4348,3.3758,3.39,3.4526,3.4526,3.4059,0.0,0.0,0.0,0.0,0.0,0.0,0.0,0.0,2.3209,2.5186,2.8591,3.399,3.8626,4.1559,4.5611,4.8132,4.8242,4.5146,4.3138,4.2943,4.4112,4.7086,5.2315,5.4063,5.7061,6.1748,6.2749,6.4387,6.6812,6.6908,6.655,6.5622,6.3643,6.223,6.1254,5.9372,5.897,5.9621,5.8659,5.8324,5.8366,5.7438,5.5098,5.2121,5.0887,4.9627,4.8344,4.6916,4.7032,4.7283,4.3647,4.2726,4.2392,3.8132,3.5259,0.0,0.0,0.0,0.0,0.0,0.0,0.0,0.0,0.0,0.0,0.0,0.0,0.0,0.0,0.0,0.0,0.0,0.0,0.0,4.3922,4.7417,5.0573,5.2631,5.3428,5.3452,5.2277,5.2853,5.2872,5.1804,5.1683,5.1142,4.9732,4.9546,4.9419,4.9247,4.9227,0.0,4.8208,4.8459,4.7824,4.6305,4.563,4.4527,4.3009,0.0,0.0,4.0802,4.0802,4.0802,4.0802,4.0535,3.9959,3.9157,3.9054,3.7921,3.6223,3.5646,3.5547,3.5678,3.5678,3.5295,3.471,0.0,0.0,0.0,0.0,0.0,0.0,0.0,2.2647,2.4421,2.7413,3.2204,3.6047,3.7831,4.1627,4.3639,4.2874,4.2517,4.2888,4.4091,4.7626,5.1814,5.6629,5.8861,6.1298,6.4158,6.4932,6.6098,6.768,6.7234,6.6897,6.6582,6.4999,6.3968,6.3296,6.2117,6.2224,6.3163,6.1579,6.1063,6.1262,6.0066,5.8362,5.6405,5.453,5.3291,5.24,5.177,5.1391,5.0814,4.8587,4.7211,4.586,4.2386,3.9984,3.7898,0.0,0.0,0.0,0.0,0.0,0.0,0.0,0.0,0.0,0.0,0.0,0.0,0.0,0.0,3.9373,3.9871,0.0,4.6204,4.7858,5.0449,5.2693,5.3983,5.4503,5.4433,5.3479,5.3818,5.3732,5.2671,5.2448,5.1904,5.076,5.0448,5.0218,4.9838,5.0124,4.9945,4.9234,4.9503,4.8924,4.7377,4.6716,4.547,4.3816,4.3225,4.245,4.1534,4.1534,4.1534,4.1534,4.1265,4.0722,4.0,3.8936,3.7988,3.7103,3.7204,3.6947,3.6605,3.697,3.6916,3.6612,0.0,0.0,0.0,0.0,0.0,0.0,0.0,2.2243,2.3697,2.5957,3.0013,3.3043,3.3914,3.7043,3.8665,3.7532,4.0195,4.3099,4.5816,5.1193,5.6261,6.0513,6.3311,6.5022,6.5659,6.6682,6.7412,6.789,6.7266,6.7004,6.7089,6.6378,6.5875,6.5474,6.5151,6.5779,6.6903,6.4799,6.4202,6.4589,6.2938,6.1765,6.0726,5.7801,5.6562,5.6235,5.5852,5.3983,5.1793,5.1962,5.0065,4.7301,4.5642,4.4222,4.2368,3.8319,3.7443,0.0,0.0,0.0,0.0,0.0,0.0,0.0,0.0,3.8125,3.9423,4.0598,4.2408,4.4123,4.5279,4.7849,5.0201,5.1423,5.2811,5.4052,5.4765,5.4745,5.4618,5.4499,5.4419,5.4186,5.3379,5.3102,5.266,5.1752,5.1558,5.1118,5.0215,5.0908,5.0929,5.0117,5.0481,5.0056,4.8621,4.7919,4.6578,4.4778,4.4201,4.3368,4.2409,4.2328,4.2287,4.2287,4.1839,4.1314,4.0609,3.8746,3.7975,3.8044,3.8363,3.8125,3.7669,3.8169,3.8351,3.8218,0.0,0.0,0.0,0.0,0.0,0.0,0.0,0.0,2.2788,2.4652,2.7997,3.0516,3.1395,3.3854,3.5462,3.5403,3.9913,4.4403,4.8279,5.3059,5.8268,6.3821,6.4402,6.5658,6.7976,6.7466,6.7903,6.9383,6.9982,6.9945,6.9267,6.9136,6.9099,6.8968,6.7549,6.7425,6.8138,6.719,6.6865,6.6884,6.5113,6.4035,6.3152,6.0537,5.9213,5.8621,5.7143,5.4179,5.1132,5.2438,5.079,4.8263,4.866,4.7309,4.5114,4.3171,3.969,3.6428,3.6062,3.563,3.5601,3.6911,3.7894,3.9763,0.0,4.5297,4.559,4.7902,4.9701,5.0785,5.0468,5.2387,5.4129,5.458,5.4938,5.5414,5.5999,5.5601,5.5238,5.5043,5.4934,5.472,5.4186,5.4345,5.3879,5.243,5.314,5.2998,5.1592,5.2516,5.2762,5.1934,5.1538,5.0998,5.0168,4.8675,4.711,4.5469,4.4476,4.3523,4.2652,4.2374,4.2287,4.2287,4.2246,4.2133,4.1991,4.0651,4.0052,3.9939,3.8911,3.8894,3.9341,3.8967,3.8854,3.8719,0.0,0.0,0.0,0.0,0.0,0.0,0.0,0.0,0.0,2.3258,2.5278,2.6791,2.7301,2.9522,3.114,3.1702,3.7716,4.3208,4.7265,5.3711,5.9522,6.4291,6.5416,6.6634,6.824,6.7891,6.8037,6.8808,6.9054,6.9018,6.8808,6.875,6.9063,6.9581,6.8866,6.907,6.9763,6.8961,6.8341,6.7887,6.6663,6.5168,6.345,6.1039,5.9115,5.7344,5.4781,5.2265,0.0,5.0248,4.9035,4.7714,4.8992,4.7712,4.537,4.3283,4.0972,3.9203,3.9643,3.9533,3.9753,4.1846,4.3718,4.5663,4.8012,4.937,5.0435,5.1463,5.3335,5.4723,5.4501,5.5352,5.6111,5.6233,5.608,5.5999,5.6276,5.5664,5.4985,5.4385,5.3937,5.3682,5.3989,5.3869,5.3492,5.285,5.3023,5.2895,5.2257,5.2733,5.2908,5.2581,5.1879,5.1201,5.0399,4.8995,4.7604,4.6278,4.504,4.4125,4.3415,4.2829,4.2454,4.2287,4.2287,4.2287,4.2216,4.1233,4.0547,4.0046,3.9523,3.923,3.9182,3.9273,3.9611,3.9966,0.0,0.0,0.0,0.0,0.0,0.0,0.0,0.0,0.0,0.0,2.3419,2.4503,2.5343,2.6619,2.7931,2.929,3.5191,4.0926,4.5852,5.2806,5.8854,6.3526,6.5265,6.6772,6.8123,6.7824,6.7932,6.8486,6.8186,6.8077,6.816,6.8377,6.8836,6.9536,6.9755,7.0155,7.0665,7.0082,6.95,6.8903,6.7607,6.5641,6.3219,6.0427,5.7375,5.4208,5.17,4.9255,4.7095,4.6214,4.5041,4.4309,4.6431,4.5846,4.4126,4.2589,4.1522,4.0891,4.1479,4.2286,4.3608,4.625,4.893,5.1096,5.1756,5.3261,5.4583,5.484,5.5904,5.6822,5.6822,5.6901,5.7024,5.7024,5.6717,5.6599,5.6757,5.5737,5.4753,5.4029,5.2844,5.2341,5.2916,5.3059,5.3131,5.3095,5.3146,5.3017,5.2581,5.2943,5.3069,5.285,5.2175,5.1412,5.0648,4.945,4.8273,4.702,4.5992,4.504,4.4157,4.3168,4.2573,4.2287,4.2287,4.2287,4.2251,4.168,4.0967,4.0217,4.0003,3.9575,3.9142,3.9301,3.9936,4.0678,0.0,0.0,0.0,0.0,0.0,0.0,0.0,0.0,0.0,0.0,0.0,0.0,0.0,2.6304,2.6757,2.9458,3.2762,3.7708,4.4874,4.9945,5.5486,6.1824,6.3599,6.5591,6.7945,6.7257,6.7583,6.914,6.838,6.8017,6.8017,6.8778,6.914,6.9274,7.0009,7.0372,7.0372,7.0434,7.0459,7.0326,6.7787,6.5452,6.2948,5.8885,5.3987,4.9216,4.8553,4.5297,4.1123,4.0251,3.8455,3.7058,4.0244,4.1229,4.1405,4.2103,4.1185,3.9937,3.9974,4.2249,4.5406,4.8673,5.1867,5.4876,5.7189,5.7813,5.807,5.8877,5.785,5.6822,5.6822,5.6822,5.6777,5.6777,5.694,5.7266,5.7904,5.6102,5.4651,5.4422,5.2302,5.0872,0.0,5.2216,5.3082,5.3095,5.4097,5.4074,5.248,5.3453,5.3749,5.3017,5.2504,5.1931,5.1194,5.0343,4.9157,4.7667,4.7385,4.6358,4.4704,4.3321,4.2573,4.2287,4.2287,4.2287,4.2287,4.2251,4.1787,4.1002,4.0217,3.9896,3.9789,3.9073,3.9509,4.0446,0.0,0.0,0.0,0.0,0.0,0.0,0.0,0.0,0.0,0.0,0.0,0.0,0.0,0.0,0.0,0.0,3.0423,3.4852,3.9443,4.621,5.2045,5.6319,6.005,6.2911,6.4758,6.4541,6.5192,6.6786,6.5989,6.5881,6.6424,6.6677,6.7076,6.7619,6.7873,6.8017,6.7981,6.7438,6.7768,6.8255,6.4383,6.2238,6.086,5.5733,5.0566,4.5699,0.0,3.9711,3.7546,3.6157,3.517,3.4877,3.7071,3.7363,3.7211,3.8632,3.9832,4.1295,4.3975,4.7058,5.0325,5.3555,5.6014,5.796,5.9281,5.9612,5.9391,5.8584,5.6712,5.4876,5.3812,5.3188,5.3188,5.4252,5.5367,5.6383,5.707,5.6575,5.5285,5.3078,5.2087,0.0,0.0,0.0,0.0,5.2287,5.3266,5.3573,5.3023,5.3928,5.4165,5.3355,5.3182,5.2447,5.1155,5.086,4.9936,4.8307,4.6911,4.5736,4.4563,4.3396,4.2844,4.2768,4.2844,4.2918,4.2918,4.2918,4.2122,4.0854,4.06,3.984,3.8934,3.9189,3.9842,4.0669,0.0,0.0,0.0,0.0,0.0,0.0,0.0,0.0,0.0,0.0,0.0,0.0,0.0,0.0,0.0,0.0,0.0,3.1513,3.5327,4.0962,4.6033,5.0221,5.3505,5.6187,5.8173,5.7855,5.8601,6.0484,5.9977,6.0412,6.1788,6.2041,6.2766,6.3816,6.4106,6.4396,6.4613,6.3947,6.3636,6.3254,5.9323,5.6712,5.4748,4.9967,4.5291,0.0,3.7258,3.4934,3.3405,3.2265,3.1873,3.2201,3.4134,3.5155,3.5987,3.776,4.0203,4.3316,4.7682,5.1242,5.4546,5.807,5.9979,6.1006,6.1227,6.0823,5.9722,5.7226,5.4803,5.2527,5.0618,4.9591,4.9664,5.161,5.2747,5.4106,5.6088,5.5647,5.4546,5.3041,5.2087,5.1169,0.0,0.0,0.0,5.1903,5.2794,5.3235,5.3235,5.3834,5.3949,5.3396,5.3396,5.2773,5.1445,5.115,5.023,4.8569,4.6764,4.5626,4.4894,4.3652,4.3069,4.2957,4.3032,4.3069,4.3069,4.3069,4.2305,4.1103,4.0812,3.9901,3.8773,3.8958,3.954,4.0377,0.0,0.0,0.0,0.0,0.0,0.0,0.0,0.0,0.0,0.0,0.0,0.0,0.0,0.0,0.0,0.0,0.0,0.0,3.2529,3.4501,3.8026,4.3652,4.4629,4.6263,4.8912,4.797,4.8605,5.0995,5.0959,5.2118,5.4436,5.5124,5.6283,5.7768,5.8528,5.9289,6.003,5.9565,5.8066,5.5725,5.281,4.9307,4.5506,4.2284,3.8608,3.4895,3.3473,3.1279,2.9058,2.8821,2.888,2.9475,3.1838,3.4805,3.7776,3.9699,4.2548,4.6177,5.1103,5.4779,5.8198,6.201,6.3566,6.3897,6.2965,6.1422,5.8998,5.5067,5.2201,4.9627,4.7205,4.6177,4.6544,4.904,4.9591,5.1096,5.5133,5.3739,5.2821,5.4289,5.2454,5.1022,5.0949,0.0,0.0,5.205,0.0,5.3261,5.3261,5.3298,5.3298,5.3261,5.3225,5.2863,5.2099,5.1253,5.0116,4.8642,4.7017,4.6101,4.581,4.4162,4.3214,4.2992,4.2956,4.292,4.292,4.292,4.2486,4.1687,4.0854,4.0056,3.9293,3.8497,3.8782,3.9613,0.0,0.0,0.0,0.0,0.0,0.0,0.0,0.0,0.0,0.0,0.0,0.0,0.0,0.0,0.0,0.0,0.0,0.0,2.7733,3.1052,3.4171,3.6902,4.0022,4.2629,4.4483,4.4261,4.5019,4.683,4.6214,4.654,4.7735,4.7953,4.8242,4.8641,4.9034,4.93,4.9445,4.8964,4.927,4.9707,4.5608,4.3992,4.3511,3.9586,3.6272,3.362,3.2739,3.1556,3.0441,3.0612,3.2138,3.4329,3.6105,3.8319,4.1051,4.5241,4.8967,5.275,5.7192,6.0743,6.3537,6.5229,6.4849,6.3878,6.3051,5.9651,5.5845,5.2939,4.8298,4.4165,4.2316,4.264,4.4195,4.7241,5.0288,5.3482,5.6895,5.6859,5.6161,5.539,5.473,5.3922,5.2711,5.3151,0.0,0.0,5.3995,5.4106,5.4106,5.4656,5.4693,5.4106,5.3518,5.2821,5.2018,5.0622,4.9743,4.9301,4.7647,4.6838,4.6727,4.5148,4.4377,4.4306,4.3789,4.3566,4.3566,4.3566,4.3088,4.2243,4.1434,4.0993,4.0698,3.989,4.011,4.0841,0.0,0.0,0.0,0.0,0.0,0.0,0.0,0.0,0.0,0.0,0.0,0.0,0.0,0.0,0.0,0.0,0.0,0.0,0.0,2.7589,2.9809,3.1919,3.3725,3.553,3.7312,3.7221,3.7775,3.9007,3.926,3.9985,4.1144,4.147,4.2087,4.285,4.2959,4.3248,4.3644,4.3167,4.2969,0.0,0.0,3.8252,3.7649,3.4956,3.3014,3.1694,3.1317,3.1977,3.3168,3.4414,3.6399,3.8823,4.1135,4.343,4.6178,5.078,5.439,5.7791,6.2069,6.5073,6.7133,6.7959,6.6603,6.4312,6.1274,5.7567,5.334,4.829,4.4349,4.1278,3.9629,4.0002,4.1883,4.5853,4.8746,5.1974,5.6314,5.6908,5.6833,5.6689,5.6651,5.6169,5.4907,5.5501,5.5835,0.0,5.5133,5.4913,5.4913,5.5023,5.4876,5.4399,5.3628,5.2821,5.2013,5.0729,4.9958,4.9554,4.7902,4.6948,4.6544,4.5295,4.4559,4.4191,0.0,4.3704,4.3704,4.3704,4.3376,4.2824,4.1646,4.1204,4.113,4.0283,4.0093,4.0265,0.0,0.0,0.0,0.0,0.0,0.0,0.0,0.0,0.0,0.0,0.0,0.0,0.0,0.0,0.0,0.0,0.0,0.0,0.0,0.0,2.5778,2.8246,2.7598,2.8046,2.9863,2.9783,3.0031,3.0747,3.2173,3.3488,3.4788,3.5617,3.6729,3.8156,3.8151,3.8707,3.9468,3.916,3.7753,3.5619,3.4699,3.301,3.0966,0.0,2.9937,2.9926,3.004,3.2374,3.5874,3.8939,4.125,4.3423,4.6663,4.9533,5.2445,5.6406,5.929,6.2108,6.5977,6.8203,6.952,7.0073,6.8077,6.4428,5.8764,5.5023,5.0642,4.3072,4.06,3.9489,3.8286,3.8286,4.0128,4.52,4.6844,4.9476,5.5194,5.5946,5.6509,5.8125,5.8238,5.7899,5.7185,5.7749,5.7862,5.7148,5.6354,5.5939,5.5939,5.5122,5.4607,5.4386,5.3681,5.2941,5.2206,5.1283,5.0435,4.9738,4.8049,4.6838,4.603,4.5223,4.4415,4.3644,0.0,0.0,4.3497,4.3566,4.3566,4.3419,4.1846,4.1364,4.1397,4.0556,3.9743,3.9215,0.0,0.0,0.0,0.0,0.0,0.0,0.0,0.0,0.0,0.0,2.2998,2.2018,0.0,0.0,0.0,0.0,0.0,0.0,0.0,0.0,0.0,2.5919,2.6359,2.712,2.8339,2.8883,2.9301,2.9591,2.9706,2.9609,2.9363,3.0235,3.0442,3.0058,3.0267,3.0445,3.0635,3.0715,3.0502,3.0162,3.0608,3.0511,3.0116,2.9981,0.0,0.0,3.0739,3.2295,3.5077,4.1676,4.6064,4.9321,5.2601,5.5995,5.9365,6.2222,6.452,6.6672,6.8979,7.0232,7.0802,7.0308,6.6739,6.2146,5.7666,5.1413,4.5456,4.1266,3.7936,3.613,3.7268,3.8432,4.1053,4.6778,4.8933,5.1898,5.7677,5.7938,5.8126,5.9816,5.9403,5.8952,5.8802,5.8915,0.0,0.0,0.0,5.7529,5.7567,5.6781,5.5696,5.435,5.387,5.3567,5.3419,5.1661,5.0729,5.0582,4.8893,4.7682,4.6874,4.6067,4.5259,4.4452,0.0,0.0,4.3532,4.3795,4.3892,4.3786,4.257,4.2673,4.3378,4.2276,4.1368,4.0818,0.0,0.0,0.0,0.0,0.0,0.0,0.0,2.405,2.4848,2.6739,2.5348,2.4302,2.4659,2.3267,2.2632,0.0,0.0,0.0,0.0,0.0,0.0,2.5392,2.5738,2.6573,2.7972,2.8741,2.9185,2.9312,0.0,2.9391,2.8697,2.9089,2.8927,2.8185,2.8333,2.8234,2.7975,2.8493,2.8676,2.8752,2.9585,2.9888,2.9888,0.0,0.0,0.0,3.0381,3.2179,3.5022,3.9494,4.4738,5.0372,5.5898,5.9395,6.1951,6.4065,6.6595,6.9055,7.0381,7.1406,7.1825,7.0988,6.6654,6.1026,5.5066,4.8872,4.3042,3.8403,3.5742,3.4812,3.6521,3.8112,4.0511,4.4687,4.7087,5.0306,5.5724,5.6557,5.7535,6.0075,6.0069,5.9842,5.9842,5.9842,5.9842,5.9842,0.0,5.8391,5.7975,5.6774,5.5535,5.4334,5.4123,5.4016,5.4016,5.2232,5.1305,5.1268,4.9631,4.8181,4.6958,4.662,4.5727,4.4538,4.4319,0.0,4.398,4.4132,4.4192,4.4117,4.3148,4.3103,4.3519,4.2962,4.2149,4.1434,0.0,0.0,0.0,0.0,0.0,0.0,0.0,2.5243,2.6153,2.8172,2.7478,2.6611,2.6122,2.4123,2.2998,0.0,0.0,0.0,0.0,0.0,0.0,0.0,0.0,0.0,2.7867,0.0,0.0,2.9416,3.0027,0.0,0.0,0.0,0.0,0.0,2.8214,2.7846,2.7266,2.7896,2.8275,0.0,0.0,2.9737,0.0,0.0,0.0,0.0,0.0,3.1724,3.4453,3.6651,4.1579,4.7984,5.4806,5.9203,6.2159,6.3638,6.6628,6.9662,7.0725,7.1673,7.2091,7.099,6.6205,5.9792,5.2599,4.6607,4.119,3.6027,3.4051,3.3951,3.6232,3.7432,3.9166,4.2507,4.4531,4.7586,5.3034,5.4562,5.6358,5.972,6.0293,6.0408,6.0408,6.0408,0.0,0.0,0.0,0.0,5.7657,5.6606,5.5583,5.4565,5.443,5.4397,5.4397,5.2677,5.1818,5.178,5.0091,4.8551,4.7154,4.6974,4.6073,4.4674,4.4541,0.0,0.0,4.4465,4.4493,4.439,4.3724,4.3498,4.3551,4.3498,4.281,4.1986,0.0,0.0,0.0,0.0,0.0,0.0,0.0,2.511,2.6595,2.8976,2.7424,2.6305,2.6923,2.5468,2.3978,0.0,0.0,0.0,0.0,0.0,0.0,0.0,0.0,0.0,0.0,0.0,0.0,2.9839,2.9757,0.0,0.0,0.0,0.0,0.0,0.0,2.71,2.6318,2.638,0.0,0.0,0.0,0.0,0.0,0.0,0.0,0.0,0.0,3.0625,3.2141,3.6083,3.8888,4.1503,4.6013,5.329,6.0302,6.1174,6.4396,6.7958,6.9626,7.0612,7.0877,6.9247,6.3938,5.7453,5.1395,4.4407,3.834,3.5476,3.3104,3.2721,3.6692,3.633,3.7299,4.2942,4.342,4.535,5.2002,5.3683,5.5479,5.8842,5.9911,6.0408,6.0408,6.0408,6.0408,0.0,0.0,0.0,5.6813,5.7309,5.6965,5.5363,5.4933,5.4746,5.4746,5.2806,5.1818,5.178,5.0091,4.8814,4.798,4.7229,4.644,4.5538,0.0,0.0,0.0,4.465,4.4751,4.4726,4.4417,4.4433,4.4613,4.438,4.3745,4.3154,0.0,0.0,0.0,0.0,0.0,0.0,2.4898,2.5536,2.6708,2.9168,2.8721,2.7887,2.7241,2.657,2.5039,2.2202,0.0,0.0,0.0,0.0,0.0,0.0,0.0,0.0,0.0,0.0,2.8288,2.9169,2.9595,0.0,0.0,0.0,0.0,0.0,0.0,2.7744,2.7001,2.7517,0.0,0.0,0.0,0.0,0.0,0.0,0.0,0.0,0.0,0.0,3.1383,3.252,3.468,3.703,3.7675,4.2898,4.9822,5.5102,6.034,6.485,6.7049,6.9323,7.0574,6.8413,6.3259,5.7005,5.0637,4.3739,3.7978,3.5438,3.2955,3.2214,3.54,3.5457,3.6178,3.9624,4.033,4.2428,4.8213,4.9305,5.152,5.6878,5.7859,5.8727,0.0,0.0,6.0179,0.0,0.0,0.0,5.6702,5.6931,5.6587,5.5441,5.526,5.4912,5.4379,5.3052,5.2161,5.1668,5.0453,4.9492,4.8694,4.839,4.7479,4.6187,0.0,0.0,0.0,4.5065,4.5109,4.5087,4.4995,4.5019,4.5087,4.4995,4.4586,4.4197,0.0,0.0,0.0,0.0,0.0,2.3731,2.5241,2.5707,2.6616,2.8551,2.8936,2.85,2.7115,2.6607,2.5208,2.2301,2.2697,0.0,0.0,0.0,0.0,0.0,0.0,0.0,0.0,0.0,2.7631,2.8676,2.9282,2.9661,0.0,0.0,2.9244,2.8676,0.0,0.0,0.0,0.0,0.0,0.0,0.0,0.0,0.0,0.0,0.0,0.0,0.0,0.0,0.0,0.0,0.0,3.3619,3.2406,3.5286,4.0667,4.8465,5.5064,6.0487,6.3448,6.6518,6.8451,6.6708,6.1738,5.573,4.9732,4.2974,3.7451,3.54,3.2745,3.1648,3.4452,3.4584,3.4925,3.6938,3.7947,4.008,4.4712,4.6015,4.8403,5.3646,5.4969,5.6332,0.0,5.9769,0.0,0.0,0.0,0.0,0.0,5.674,5.6243,5.5441,5.5403,5.5097,5.4486,5.3339,5.2499,5.1926,5.0818,5.0015,4.9442,4.9213,4.8296,4.6882,0.0,0.0,0.0,4.5545,4.5507,4.5277,4.5277,4.5277,4.5277,4.5277,4.5132,4.4957,0.0,0.0,0.0,0.0,0.0,0.0,2.4587,2.5386,2.6186,2.701,2.7417,2.7323,2.6505,2.5207,2.4128,2.3359,2.3165,0.0,0.0,0.0,0.0,0.0,0.0,0.0,0.0,0.0,2.7024,2.8676,2.8714,2.9131,2.9888,2.9093,2.8714,2.8676,0.0,0.0,0.0,0.0,0.0,0.0,0.0,0.0,0.0,0.0,0.0,0.0,0.0,0.0,0.0,0.0,0.0,0.0,0.0,3.2406,3.5097,4.1844,4.858,5.479,5.8856,6.178,6.3676,6.3676,5.876,5.2855,4.859,4.1815,3.6171,3.5276,3.2319,3.0966,3.4263,3.3543,3.3296,3.5894,3.6996,3.8687,4.2155,4.4821,4.7053,4.8853,5.1242,5.3391,5.5107,5.8311,0.0,0.0,0.0,0.0,0.0,5.7084,5.6243,5.5441,5.5403,5.5403,5.5403,5.3683,5.2805,5.2766,5.1085,5.0283,5.0245,4.9442,4.8602,0.0,0.0,0.0,0.0,4.6156,4.6003,4.5277,4.5277,4.5277,4.5277,4.5277,4.5277,4.5277,0.0,0.0,0.0,0.0,0.0,0.0,0.0,2.4134,2.4657,2.5564,2.5796,2.6038,2.6417,2.5685,2.5097,2.494,2.3998,0.0,0.0,0.0,0.0,0.0,0.0,0.0,0.0,0.0,2.6759,2.7858,2.8995,2.9661,2.9888,3.0246,3.0094,2.9526,2.9353,2.9224,0.0,0.0,0.0,0.0,0.0,0.0,0.0,0.0,0.0,0.0,0.0,0.0,0.0,0.0,0.0,0.0,0.0,0.0,0.0,3.5341,4.1677,4.8538,5.1612,5.4699,5.6643,5.4901,5.1662,4.7892,4.4246,3.9391,3.5376,3.4454,3.2003,3.0684,3.2803,3.233,3.2803,3.654,3.7337,3.8667,4.2053,4.4737,4.7386,5.0215,5.4836,5.7958,0.0,0.0,0.0,0.0,0.0,0.0,0.0,5.6217,5.567,5.5403,5.5403,5.483,5.3645,5.3072,5.2231,5.1085,5.055,5.0283,5.0283,5.0054,0.0,0.0,0.0,0.0,0.0,4.6385,4.6042,4.5277,4.5277,4.5277,4.5277,4.5277,4.5277,4.5277,0.0,0.0,0.0,0.0,0.0,0.0,0.0,2.3562,2.3809,2.441,2.4577,2.5017,2.5988,2.5502,2.53,2.5755,2.4707,0.0,0.0,0.0,0.0,0.0,0.0,0.0,2.4991,2.5484,2.6456,2.7934,2.8957,2.9775,3.0397,3.0663,3.0435,2.9905,2.9726,2.9779,0.0,0.0,0.0,0.0,0.0,0.0,3.009,0.0,0.0,0.0,0.0,0.0,0.0,0.0,0.0,0.0,0.0,0.0,0.0,0.0,3.6107,4.138,4.5528,4.8853,5.0879,4.9656,4.6985,4.4001,4.1259,3.7417,3.4271,3.3638,3.1713,3.0594,3.2188,3.1796,3.2272,3.5589,3.6672,3.7947,4.0385,4.3764,4.7335,5.1061,5.5568,0.0,0.0,0.0,0.0,0.0,0.0,0.0,0.0,0.0,5.5365,5.5286,5.5033,5.4409,5.3301,5.2957,5.2117,5.0779,5.0779,5.0627,5.0283,5.0283,0.0,0.0,0.0,0.0,0.0,4.6997,4.65,4.5736,4.543,4.5277,4.5277,4.5277,4.5277,4.5277,0.0,0.0,0.0,0.0,0.0,0.0,0.0,2.3526,2.3535,2.3629,2.3831,2.4331,2.5242,2.4836,2.4879,2.5834,0.0,0.0,0.0,0.0,0.0,0.0,0.0,0.0,2.4991,2.5067,2.6228,2.86,2.8828,2.9737,3.1269,3.0663,3.0246,3.0073,2.9398,2.9456,0.0,0.0,0.0,0.0,0.0,0.0,0.0,0.0,0.0,0.0,0.0,0.0,0.0,0.0,0.0,0.0,0.0,0.0,0.0,0.0,0.0,0.0,0.0,4.3771,4.5799,4.6564,4.3885,4.0684,3.9123,3.574,0.0,3.2813,3.1353,3.0624,3.2286,3.1846,3.1851,3.3849,3.5484,3.6816,3.7852,4.2448,4.7357,5.1662,5.4408,0.0,0.0,0.0,0.0,0.0,0.0,0.0,0.0,0.0,5.5314,5.5053,5.4397,5.4052,5.4078,5.3225,5.236,5.1596,5.152,5.1061,5.0298,5.0298,0.0,0.0,0.0,0.0,0.0,4.7837,4.7302,4.6424,4.5621,4.5277,4.5277,4.5277,4.5277,4.5277,0.0,0.0,0.0,0.0,0.0,0.0,0.0,0.0,0.0,0.0,2.3955,2.4188,2.4652,2.4625,2.4655,0.0,0.0,0.0,0.0,0.0,0.0,0.0,0.0,0.0,2.4991,2.5598,2.6546,2.7797,3.0284,3.1724,3.2141,3.324,3.3104,3.1949,3.1231,3.0765,0.0,0.0,0.0,0.0,0.0,0.0,0.0,0.0,0.0,0.0,3.0213,3.0226,0.0,0.0,0.0,0.0,0.0,0.0,0.0,0.0,3.1287,3.2312,3.3928,0.0,3.7141,3.6665,3.5842,3.5029,0.0,3.3263,3.2055,3.1989,3.1072,3.0724,3.2302,3.1846,3.2421,3.6118,3.7069,3.7885,3.95,4.5208,5.0807,5.5048,5.781,5.9152,0.0,0.0,0.0,0.0,0.0,0.0,0.0,0.0,5.5308,5.4572,5.3788,5.3598,5.3949,5.3072,5.2234,5.1434,5.0786,5.0367,5.0177,5.0177,0.0,0.0,0.0,0.0,4.8686,4.8044,4.7302,4.6424,4.5621,4.5277,4.5277,4.5277,4.5277,4.5277,0.0,0.0,0.0,0.0,0.0,0.0,0.0,0.0,0.0,0.0,0.0,2.4095,2.4321,2.4393,0.0,0.0,0.0,0.0,0.0,0.0,0.0,0.0,0.0,2.5181,2.556,2.5977,2.7176,2.9185,3.0966,3.2444,3.3581,3.4112,3.3729,3.2569,3.1468,3.086,0.0,0.0,0.0,0.0,3.0598,0.0,0.0,0.0,0.0,0.0,3.0292,3.0318,0.0,3.0727,3.0893,3.0991,0.0,0.0,0.0,0.0,3.0744,3.1113,3.1236,3.3073,3.4891,3.4427,3.4002,3.3692,3.3692,3.2416,3.1246,3.1195,3.0733,3.0727,3.1966,3.1713,3.2485,3.6051,3.7309,3.9429,4.3965,4.841,5.2801,5.7076,5.9155,0.0,0.0,0.0,0.0,0.0,0.0,0.0,0.0,0.0,5.528,5.4348,5.3887,5.3437,5.2968,5.2533,5.1835,5.0961,5.0918,5.0688,5.0236,5.0236,0.0,0.0,0.0,0.0,4.9453,4.8638,4.7808,4.6953,4.6113,4.56,4.5277,4.5277,4.5277,4.5277,0.0,0.0,0.0,0.0,0.0,0.0,0.0,0.0,0.0,0.0,0.0,0.0,0.0,0.0,0.0,0.0,0.0,0.0,0.0,0.0,0.0,0.0,2.5256,2.5622,2.6569,2.6456,2.7934,3.1042,3.1648,3.2975,3.4908,3.4586,3.3787,3.253,3.12,3.0606,0.0,0.0,0.0,0.0,3.0598,0.0,0.0,0.0,0.0,0.0,0.0,0.0,0.0,3.1123,3.1553,3.1767,3.1417,0.0,0.0,0.0,0.0,0.0,3.0888,3.3383,3.5742,3.524,3.4737,3.435,3.4234,3.2532,3.0984,3.0984,3.0886,3.1168,3.2439,3.2558,3.3415,3.6177,3.826,4.2005,4.9266,5.1718,5.4233,5.8139,5.9493,0.0,0.0,0.0,0.0,0.0,0.0,0.0,0.0,0.0,0.0,5.4326,5.4172,5.3409,5.1973,5.1895,5.1446,5.0543,5.1331,5.1195,5.0306,5.0352,5.0352,0.0,0.0,0.0,5.0025,4.9251,4.8514,4.78,4.6923,4.6205,4.5638,4.5524,4.5485,4.5447,0.0,0.0,0.0,0.0,0.0,0.0,0.0,0.0,0.0,0.0,0.0,0.0,0.0,0.0,0.0,0.0,0.0,0.0,0.0,0.0,0.0,2.7153,2.6432,2.6721,2.8275,2.7631,2.8237,3.017,3.3695,3.5249,3.4946,3.6873,3.5931,3.2562,3.1903,3.1216,3.0598,3.0598,0.0,0.0,0.0,0.0,0.0,0.0,0.0,0.0,0.0,0.0,0.0,3.0563,3.1135,3.1661,3.0833,0.0,0.0,0.0,0.0,0.0,3.2328,3.4659,3.6013,3.3112,3.3421,3.4195,3.346,3.2986,3.2715,3.2715,3.2662,3.3492,3.6485,3.6954,3.8001,4.1378,4.4066,4.741,0.0,0.0,5.6205,5.8333,0.0,0.0,0.0,0.0,0.0,0.0,0.0,0.0,0.0,0.0,0.0,5.4743,5.3971,5.3138,5.215,5.1856,5.1584,5.1242,5.0818,5.0405,4.9986,5.0139,5.0139,0.0,0.0,5.0012,4.9974,4.9226,4.8833,4.8629,4.7753,4.7372,4.7143,4.6458,4.623,4.6138,0.0,0.0,0.0,0.0,0.0,0.0,0.0,0.0,0.0,0.0,0.0,0.0,0.0,0.0,0.0,0.0,0.0,0.0,0.0,0.0,2.9412,2.9488,2.8654,2.8578,2.932,2.9867,3.1193,3.3354,3.6159,3.754,3.7478,3.6896,3.5419,3.3211,3.1749,3.0907,3.0598,3.054,3.0579,0.0,0.0,0.0,0.0,0.0,0.0,0.0,0.0,0.0,0.0,0.0,3.1458,3.171,3.1283,0.0,0.0,0.0,0.0,0.0,3.1526,3.3615,3.5278,3.4195,3.5549,3.6787,3.5472,3.4814,3.4505,3.4505,3.4483,3.5222,3.7643,3.8852,4.1051,4.5881,4.8864,5.1563,5.4465,5.5935,5.7366,0.0,0.0,0.0,0.0,0.0,0.0,0.0,0.0,0.0,0.0,0.0,0.0,0.0,5.3691,5.284,5.1525,5.1352,5.1164,5.102,5.0798,5.0469,5.0174,5.0268,5.0197,5.0063,0.0,4.9933,4.9933,4.958,4.9214,4.8821,4.8403,4.7971,4.7577,4.7196,4.6777,4.6359,0.0,0.0,0.0,0.0,0.0,0.0,0.0,0.0,0.0,0.0,0.0,0.0,0.0,0.0,0.0,0.0,0.0,0.0,0.0,2.8871,3.0094,3.1206,3.0755,3.076,3.1383,3.2255,3.4036,3.6765,3.8471,3.9526,3.9989,3.6844,3.4835,3.3745,3.1686,3.0672,3.05,3.0693,3.0655,0.0,0.0,0.0,0.0,0.0,0.0,0.0,0.0,0.0,0.0,0.0,0.0,0.0,0.0,0.0,0.0,3.083,3.0598,3.0675,3.1062,3.2919,3.4853,3.551,3.7444,3.9069,3.8528,3.7754,3.7328,3.7947,3.7909,3.8218,3.9727,4.1738,4.4794,4.9784,5.2917,5.52,5.6708,5.7637,0.0,0.0,0.0,0.0,0.0,0.0,0.0,0.0,0.0,0.0,0.0,0.0,0.0,0.0,5.3304,5.2531,5.1215,5.1215,5.1035,5.0701,5.0841,5.0699,5.0358,5.0402,5.0313,5.0114,4.9959,4.9879,4.9879,4.9879,4.9565,4.9048,4.9048,4.8542,4.787,4.787,4.7338,4.6616,0.0,0.0,0.0,0.0,0.0,0.0,0.0,0.0,0.0,0.0,0.0,0.0,0.0,0.0,0.0,0.0,0.0,0.0,0.0,2.8714,2.9573,3.131,3.1906,3.3316,3.5704,3.4339,3.5211,3.8529,4.0214,4.1048,4.101,3.7921,3.5584,3.3823,3.2301,3.1083,3.0279,3.1234,3.1068,3.0318,3.1317,0.0,0.0,0.0,0.0,0.0,0.0,0.0,0.0,0.0,0.0,0.0,0.0,0.0,3.1642,3.083,3.0598,3.0946,3.2483,3.4234,3.5626,3.5665,3.7019,3.9108,4.2125,4.2164,4.2202,4.4601,4.4485,4.4214,4.5104,4.7966,5.0828,5.2879,5.6051,5.8565,5.9493,0.0,0.0,0.0,0.0,0.0,0.0,0.0,0.0,0.0,0.0,0.0,0.0,0.0,0.0,0.0,0.0,5.2221,5.2105,5.2105,5.1614,5.0701,5.0841,5.0644,5.0212,5.0358,5.0245,4.9906,4.9906,4.9879,4.9879,4.9879,4.9841,4.983,4.983,4.9337,4.8617,4.8617,4.8086,4.7327,0.0,0.0,0.0,0.0,0.0,0.0,0.0,0.0,0.0,0.0,0.0,0.0,0.0,0.0,0.0,0.0,0.0,0.0,0.0,2.9247,3.0076,3.1238,3.2172,3.3789,3.6254,3.7108,3.876,4.1182,4.1791,4.1808,4.1195,3.741,3.5047,3.3846,3.234,3.148,3.1172,3.1553,3.1476,3.1107,3.1009,0.0,0.0,0.0,0.0,0.0,0.0,0.0,0.0,0.0,3.138,3.171,3.1177,3.138,3.1642,3.083,3.0598,3.0752,3.1371,3.3924,3.6593,3.7135,3.8914,4.0887,4.2202,4.3866,4.5606,4.7115,4.7618,4.8005,4.8817,5.0906,5.342,5.6205,5.8217,5.988,0.0,0.0,0.0,0.0,0.0,0.0,0.0,0.0,0.0,0.0,0.0,0.0,0.0,0.0,0.0,0.0,0.0,5.195,5.1409,5.1409,5.1183,5.0825,5.1957,5.2103,5.1331,5.1355,5.0938,5.0089,5.0089,5.0012,4.9879,4.9879,4.9879,4.9879,4.9879,4.969,4.9424,4.9424,4.8894,4.8211,0.0,0.0,0.0,0.0,0.0,0.0,0.0,0.0,0.0,0.0,0.0,0.0,0.0,0.0,0.0,0.0,0.0,0.0,2.9055,2.9452,3.0129,3.1184,3.2233,3.3922,3.6344,3.8498,4.0611,4.2716,4.2717,4.2144,4.092,3.7611,3.5745,3.5132,3.3313,3.2622,3.2776,3.2569,3.2146,3.1583,3.1287,3.0887,0.0,0.0,0.0,0.0,0.0,0.0,0.0,0.0,3.1178,3.141,3.141,3.141,3.1371,3.1062,3.0791,3.0598,3.0598,3.3305,3.6323,3.7174,3.992,4.2783,4.4136,4.6032,4.8121,5.0326,5.1061,5.1563,5.2376,5.3498,5.5161,0.0,5.9377,6.0692,0.0,0.0,0.0,0.0,0.0,0.0,0.0,0.0,0.0,0.0,0.0,0.0,0.0,0.0,0.0,0.0,0.0,5.1486,5.0906,5.1177,5.1447,5.1757,5.2917,5.2812,5.1587,5.1587,5.1062,5.0188,5.0188,5.0089,4.9879,4.9879,4.9879,4.9879,4.9879,4.9879,4.9879,4.9879,4.9538,4.9083,0.0,0.0,0.0,0.0,0.0,0.0,0.0,0.0,0.0,0.0,0.0,0.0,0.0,0.0,0.0,0.0,0.0,0.0,2.9775,2.9147,2.949,3.1211,3.2195,3.3875,3.6323,3.802,4.0157,4.2795,4.2926,4.2099,4.0339,3.8815,3.805,3.7853,3.5353,3.4592,3.5124,3.4452,3.3119,3.146,3.2345,3.1708,3.0215,0.0,0.0,0.0,0.0,0.0,0.0,0.0,3.1255,3.0907,3.256,3.1952,3.0791,3.1565,3.1255,3.0636,3.0636,3.2493,3.4659,3.551,3.9572,4.4446,4.8778,4.9049,4.9861,5.4967,5.5393,5.5084,5.5857,5.6012,5.6321,5.7172,5.9455,0.0,0.0,0.0,0.0,0.0,0.0,0.0,0.0,0.0,0.0,0.0,0.0,0.0,0.0,0.0,0.0,0.0,0.0,0.0,5.0906,5.1757,5.2608,5.3459,5.3459,5.2503,5.074,5.0701,5.0525,5.0188,5.0188,5.0089,4.9879,4.9879,4.9879,4.9879,4.9879,4.9879,4.9879,4.9879,4.9879,4.9879,0.0,0.0,0.0,0.0,0.0,0.0,0.0,0.0,0.0,0.0,0.0,0.0,0.0,0.0,0.0,0.0,0.0,0.0,2.9851,2.9645,2.9737,3.0311,3.1904,3.3058,3.3707,3.6696,3.949,4.1971,4.2129,4.1008,3.8693,3.8238,3.706,3.5353,3.5622,3.52,3.4235,3.3331,3.2618,3.2074,3.1874,3.1145,3.0291,0.0,0.0,0.0,0.0,0.0,0.0,0.0,0.0,0.0,3.2029,3.2687,3.3073,3.2106,3.2493,3.2996,3.1797,3.4195,3.7444,3.8914,4.2202,4.6341,5.1254,5.1679,5.2182,5.6128,5.7714,5.8101,5.7095,5.7404,0.0,5.899,0.0,0.0,0.0,0.0,0.0,0.0,0.0,0.0,0.0,0.0,0.0,0.0,0.0,0.0,0.0,0.0,0.0,0.0,0.0,0.0,5.0906,5.1039,5.1275,5.1545,5.1545,5.191,5.2674,5.2017,5.1241,5.0336,5.0336,5.0174,4.9879,4.9879,4.9879,4.9879,4.9879,4.9879,4.9879,4.9879,4.9879,4.9879,0.0,0.0,0.0,0.0,0.0,0.0,0.0,0.0,0.0,0.0,2.6134,2.6305,0.0,0.0,0.0,0.0,0.0,0.0,0.0,2.9767,2.9918,3.0343,3.1569,3.2718,3.3738,3.6555,3.8531,3.9643,4.0469,3.973,3.7507,3.8431,3.8016,3.6581,3.7479,3.7313,3.6243,3.4432,3.3424,3.308,3.2592,3.166,3.0691,0.0,0.0,0.0,0.0,0.0,0.0,0.0,0.0,0.0,3.1671,3.23,3.2803,3.2416,3.2841,3.3305,3.2919,3.5704,3.9224,4.1274,4.4833,4.9088,5.3923,5.5393,5.6515,5.9261,6.0383,6.0576,5.9532,5.9223,0.0,0.0,0.0,0.0,0.0,0.0,0.0,0.0,0.0,0.0,0.0,0.0,0.0,0.0,0.0,0.0,0.0,0.0,0.0,0.0,0.0,0.0,5.0906,5.0825,5.0945,5.1292,5.0874,5.1488,5.2872,5.1983,5.1145,5.0313,5.0245,5.0076,4.9879,4.9879,4.9879,4.9879,4.9879,4.9879,4.9879,4.9879,4.9879,4.9879,0.0,0.0,0.0,0.0,0.0,0.0,0.0,0.0,0.0,0.0,2.7203,2.7296,0.0,0.0,0.0,0.0,0.0,0.0,0.0,2.9715,3.0056,3.1063,3.1492,3.2905,3.5518,3.7055,3.7454,3.6584,3.8315,3.8277,3.6647,3.9006,4.0043,3.9928,4.0062,3.9967,3.9547,3.6489,3.4707,3.3964,3.3808,3.2711,3.1307,3.2286,0.0,0.0,0.0,0.0,0.0,0.0,0.0,0.0,3.1506,3.1362,3.1101,3.256,3.2522,3.2416,3.4156,3.7019,4.0191,4.3169,4.7889,5.284,5.6747,5.9687,6.193,6.3207,6.3091,6.2665,6.2356,6.1118,6.0035,0.0,0.0,0.0,0.0,0.0,0.0,0.0,0.0,0.0,0.0,0.0,0.0,0.0,0.0,0.0,0.0,0.0,0.0,0.0,0.0,0.0,5.0674,5.0735,5.1161,0.0,5.1043,5.1048,5.1838,5.1029,5.0525,5.0188,4.9986,4.9879,4.9879,4.9879,4.9879,4.9879,4.9879,4.9879,4.9879,4.9879,4.9879,4.9879,0.0,0.0,0.0,0.0,0.0,0.0,0.0,0.0,0.0,0.0,0.0,0.0,0.0,0.0,0.0,0.0,0.0,0.0,0.0,2.9784,3.0056,3.1063,3.2902,3.4624,3.6162,3.6561,3.6396,3.5776,3.7469,3.743,3.5839,3.8962,3.9714,3.8524,3.9656,3.8994,3.6844,3.4017,3.2618,3.231,3.2448,3.226,3.192,3.2313,3.1879,0.0,0.0,0.0,0.0,0.0,0.0,0.0,3.1525,3.2153,3.2512,3.2174,3.2919,3.4195,3.5897,3.7909,4.0926,4.6844,5.3652,5.9145,6.0074,6.2781,6.4445,6.2124,6.3632,6.4561,6.1853,6.166,6.1195,0.0,0.0,0.0,0.0,0.0,0.0,0.0,0.0,0.0,0.0,0.0,0.0,0.0,0.0,0.0,0.0,0.0,0.0,4.9977,4.9977,4.9629,4.8933,4.944,4.9812,0.0,4.9795,5.0048,5.0755,5.0563,5.0358,5.0188,4.9986,4.9879,4.9879,4.9879,4.9879,4.9879,4.9879,4.9879,4.9879,4.9879,4.9879,4.9879,0.0,0.0,0.0,0.0,0.0,0.0,0.0,0.0,0.0,0.0,0.0,0.0,0.0,0.0,0.0,0.0,0.0,0.0,0.0,0.0,3.0694,3.2109,3.3807,3.5078,3.5823,3.5943,3.576,3.5354,3.6695,3.693,3.6108,3.887,3.989,3.9471,4.0291,3.9351,3.6961,3.4054,3.26,3.2223,3.2333,3.2141,3.182,3.2357,3.1828,3.0706,3.0261,0.0,0.0,0.0,0.0,0.0,0.0,0.0,3.1834,3.1816,3.2754,3.435,3.6826,3.9379,4.3131,5.0828,5.667,6.0731,6.1543,6.34,6.4483,6.2704,6.4097,6.4561,6.1157,6.1195,0.0,0.0,0.0,0.0,0.0,0.0,0.0,0.0,0.0,0.0,0.0,0.0,0.0,0.0,0.0,0.0,0.0,4.9552,4.9088,4.9088,4.9088,4.8856,4.8392,4.8755,4.8916,4.89,4.8777,4.8774,4.8991,4.9465,4.9587,4.9467,4.9364,4.9311,4.9349,4.9728,4.9879,4.9879,4.9879,4.9879,4.9879,4.9879,4.9879,4.9879,0.0,0.0,0.0,0.0,0.0,0.0,0.0,0.0,0.0,0.0,0.0,0.0,0.0,0.0,0.0,0.0,0.0,0.0,0.0,0.0,0.0,3.3456,3.4466,3.5097,3.5353,3.5468,3.55,3.542,3.6189,3.6942,3.774,3.9318,4.0523,4.1275,4.101,3.9891,3.8037,3.4884,3.3162,3.2542,3.2542,3.2086,3.1515,3.214,3.1454,3.0213,3.006,3.0237,3.051,3.0571,0.0,0.0,0.0,0.0,3.0809,3.1409,3.2076,3.3401,3.6814,4.0913,4.6056,5.3846,5.7753,6.0074,6.1621,6.2743,6.3439,6.3284,6.4058,6.3826,6.0692,0.0,0.0,0.0,0.0,0.0,0.0,0.0,0.0,0.0,0.0,0.0,0.0,0.0,0.0,0.0,0.0,0.0,4.843,4.8261,4.8129,4.8129,4.8114,4.8021,4.7867,4.8021,4.8099,4.8099,4.7991,4.7745,4.7492,4.8134,4.8452,4.8477,4.8628,4.8704,4.8742,4.9576,4.9879,4.9879,4.9879,4.9879,4.9879,4.9879,4.9879,4.9879,0.0,0.0,0.0,0.0,0.0,0.0,0.0,0.0,0.0,0.0,3.1815,3.1577,0.0,0.0,0.0,0.0,0.0,0.0,0.0,0.0,0.0,3.4358,3.5063,3.5604,3.5989,3.5849,3.5912,3.6222,3.6025,3.7957,4.1799,4.136,4.1665,4.2408,4.0718,3.9346,3.8085,3.4739,3.2777,3.1918,3.1918,3.1843,3.1694,3.1096,3.0787,3.0622,2.9925,3.0237,3.101,3.1217,3.1718,0.0,0.0,0.0,3.1422,3.0827,3.076,3.1581,3.5017,4.1724,4.8864,5.3768,5.6863,5.9029,5.9996,6.1466,6.2356,6.1582,6.2743,6.3245,6.1311,0.0,0.0,0.0,0.0,0.0,0.0,0.0,0.0,0.0,0.0,0.0,0.0,0.0,0.0,0.0,0.0,0.0,4.8392,4.7565,4.7114,4.7114,4.6991,4.6551,4.5821,4.6551,4.6935,4.6935,4.7587,4.7809,4.7647,4.7022,4.7044,4.7605,4.8363,4.8704,4.8742,4.9576,4.9879,4.9879,4.9879,4.9879,4.9879,4.9879,4.9879,4.9879,0.0,0.0,0.0,0.0,0.0,0.0,0.0,0.0,0.0,0.0,0.0,3.2269,0.0,0.0,0.0,0.0,0.0,0.0,0.0,0.0,0.0,3.4344,3.4741,3.5079,3.5258,3.54,3.5666,3.6043,3.6576,3.8963,4.2924,4.3037,4.3529,4.4247,4.2019,3.9927,3.7879,3.5016,3.3097,3.1976,3.1976,3.2023,3.1954,3.1066,3.0809,3.0864,3.0052,3.0397,3.1295,3.1492,3.1801,3.2031,3.1775,0.0,0.0,0.0,3.0816,3.2188,3.6549,4.1865,4.724,5.1531,5.4177,5.6205,5.8023,5.9029,5.9571,5.9687,5.9919,6.0035,0.0,0.0,0.0,0.0,0.0,0.0,0.0,0.0,0.0,0.0,0.0,0.0,0.0,0.0,0.0,0.0,0.0,4.8123,4.8123,4.7722,4.7223,4.6762,4.7165,4.6934,4.609,4.6934,4.7353,4.7248,4.7614,4.7694,4.7528,4.7148,4.6871,4.6733,4.7112,4.7567,4.8022,4.8856,4.9462,4.9879,4.9879,4.9879,4.9879,4.9879,4.9879,4.9879,0.0,0.0,0.0,0.0,0.0,0.0,0.0,0.0,0.0,0.0,0.0,0.0,0.0,0.0,0.0,0.0,0.0,0.0,0.0,0.0,0.0,3.4311,3.4427,3.4561,3.4668,3.5059,3.5551,3.6174,3.7444,4.0102,4.412,4.4682,4.5672,4.6943,4.3858,4.1128,3.8674,3.5962,3.4237,3.32,3.2377,3.1954,3.1808,3.1014,3.0828,3.094,3.0525,3.099,3.1846,3.2057,3.2254,3.2407,3.2259,3.1596,0.0,0.0,0.0,3.2436,3.6884,4.0461,4.3849,4.7959,5.0758,5.3094,5.5418,5.6325,5.6884,5.7717,5.7232,5.6863,0.0,0.0,0.0,0.0,0.0,0.0,0.0,0.0,0.0,0.0,0.0,0.0,0.0,0.0,0.0,0.0,0.0,4.8049,4.8049,4.7971,4.7624,4.6972,4.7503,4.7439,4.6811,4.7439,4.7716,4.7638,4.7638,4.7566,4.7378,4.7378,4.7074,4.6506,4.6733,4.7188,4.7795,4.8628,4.9349,4.9879,4.9879,4.9879,4.9879,4.9879,4.9879,4.9879,0.0,0.0,0.0,0.0,0.0,0.0,0.0,0.0,0.0,0.0,0.0,0.0,3.305,3.3852,3.4046,3.3036,3.2901,0.0,0.0,0.0,0.0,3.4561,3.4358,0.0,3.4889,3.5281,3.6068,3.72,3.8403,4.1624,4.6585,4.6451,4.807,5.0895,4.6062,4.2976,4.12,3.7931,3.6545,3.621,3.305,3.1362,3.0692,3.0655,3.0618,3.073,3.1436,0.0,0.0,0.0,0.0,0.0,0.0,3.2955,3.2155,0.0,0.0,0.0,3.3839,3.6473,3.9301,4.2806,4.6761,5.0262,5.1894,5.3644,5.5127,5.5808,5.5382,5.4929,0.0,0.0,0.0,0.0,0.0,0.0,0.0,0.0,0.0,0.0,0.0,0.0,0.0,0.0,0.0,0.0,0.0,4.8377,4.8377,4.8048,4.7893,4.7816,4.7562,4.7403,4.7365,4.7403,4.7403,4.7441,4.7441,4.7403,4.7378,4.7378,4.7378,4.7378,4.8211,4.859,4.8704,4.95,4.9841,4.9879,4.9879,4.9879,4.9879,4.9879,4.9879,4.9879,0.0,0.0,0.0,0.0,0.0,0.0,0.0,0.0,0.0,0.0,0.0,0.0,0.0,3.4263,3.4383,3.3831,3.377,0.0,0.0,0.0,0.0,3.4358,3.4427,3.4435,3.4458,3.5393,3.622,3.6929,3.8004,4.0755,4.4997,4.4941,4.5807,4.7404,4.5621,4.4209,4.2872,3.9082,3.7448,3.7262,3.5033,3.3993,3.3547,3.1972,3.1355,3.1414,0.0,0.0,0.0,0.0,0.0,0.0,0.0,0.0,3.2234,3.1562,3.0825,3.0676,3.2814,3.452,3.6473,3.9879,4.2686,4.5263,4.751,4.9732,5.1604,5.2485,5.2854,0.0,0.0,0.0,0.0,0.0,0.0,0.0,0.0,0.0,0.0,0.0,0.0,0.0,0.0,0.0,0.0,0.0,0.0,0.0,4.9663,4.9565,4.9273,4.8736,4.9127,4.9258,4.9213,4.9086,4.9007,4.9007,4.9007,4.9007,4.9007,4.9007,4.9007,4.9007,4.9311,4.9159,4.8704,4.9007,4.9121,4.9159,4.969,4.9576,4.9197,4.969,4.9879,4.9879,0.0,0.0,0.0,0.0,0.0,0.0,0.0,0.0,0.0,3.4587,0.0,0.0,0.0,0.0,3.4815,3.4649,3.4624,3.4401,3.3844,3.4067,3.4179,3.4179,3.4381,3.4427,3.4358,3.5612,3.6475,3.6795,3.8252,4.0551,4.3615,4.3875,4.4766,4.6067,4.4952,4.4283,4.3801,4.0531,3.9305,3.9305,3.6593,3.5813,3.6147,3.4773,3.4253,0.0,0.0,0.0,0.0,0.0,0.0,0.0,0.0,0.0,0.0,3.1562,3.0796,3.0366,3.17,3.2916,3.4597,3.7693,3.9557,4.1359,4.4199,4.6275,4.7952,4.9178,5.0279,0.0,0.0,0.0,0.0,0.0,0.0,0.0,0.0,0.0,0.0,0.0,0.0,0.0,0.0,0.0,0.0,0.0,0.0,0.0,5.0529,5.0445,5.0023,4.9286,4.9892,5.0021,4.9619,4.9462,4.9408,4.95,4.95,4.9614,4.9879,4.9879,4.97,4.9408,4.9765,4.9576,4.9083,4.9083,4.8932,4.878,4.9576,4.9386,4.878,4.9576,4.9879,4.9879,0.0,0.0,0.0,0.0,0.0,0.0,0.0,0.0,3.455,3.5367,0.0,0.0,0.0,0.0,0.0,3.5553,3.5553,3.5553,3.5516,3.4699,3.4253,3.4253,0.0,0.0,3.4583,3.6,3.682,3.7,3.9256,4.1192,4.276,4.3503,4.5175,4.7367,4.4172,4.3206,4.3838,4.2203,4.2017,4.2389,3.7596,3.6593,3.8116,3.8859,0.0,0.0,4.1014,4.0531,0.0,3.7628,0.0,0.0,0.0,0.0,0.0,0.0,3.0849,3.0213,0.0,0.0,0.0,3.6061,3.7346,3.8821,4.198,4.3328,4.4403,4.6125,4.7767,0.0,0.0,0.0,0.0,0.0,0.0,0.0,0.0,0.0,0.0,0.0,0.0,0.0,0.0,0.0,0.0,0.0,0.0,5.0874,5.088,5.0466,4.9962,4.9446,4.9741,4.9446,4.8447,4.8447,4.8531,4.8704,4.8704,4.9083,4.9841,4.9841,4.9305,4.8475,4.9446,4.9879,4.9879,4.9879,4.9424,4.878,4.9576,4.9386,4.878,4.9576,4.9879,4.9879,0.0,0.0,0.0,0.0,0.0,0.0,3.3939,3.4636,3.5219,0.0,0.0,0.0,3.6694,3.7002,3.7225,3.7225,3.7225,3.7002,3.6408,3.559,3.5144,3.5144,3.4741,3.4517,3.4583,3.6271,3.7099,3.7,3.8983,4.034,4.1051,4.1465,4.2221,4.3243,4.2352,4.2054,4.2166,4.0494,4.1274,4.3392,4.0271,4.0011,4.1349,4.0383,0.0,0.0,0.0,4.1311,4.0969,0.0,4.0617,3.9547,0.0,0.0,3.2861,0.0,0.0,3.191,3.1469,0.0,0.0,0.0,0.0,0.0,3.7998,3.9023,4.0342,4.3273,4.4748,0.0,0.0,0.0,0.0,0.0,0.0,0.0,0.0,0.0,0.0,0.0,0.0,0.0,0.0,0.0,0.0,0.0,5.0808,5.0756,5.0547,5.0445,5.0168,4.9781,4.9962,4.9796,4.9363,4.9344,4.9042,4.8466,4.8613,4.8818,4.9007,4.8256,4.8466,4.9315,4.888,4.9001,4.9566,4.9797,4.9424,4.878,4.9576,4.9386,4.878,4.9576,4.9879,4.9879,0.0,0.0,0.0,0.0,0.0,3.5501,3.5764,3.6249,3.667,0.0,0.0,0.0,3.7697,3.9045,3.9528,3.8488,3.8414,3.8042,3.7225,3.6445,3.5999,3.5999,3.5664,3.5474,3.5474,3.6813,3.7558,3.7549,3.8968,3.9801,4.0018,4.0139,4.051,4.1089,4.0717,4.094,4.1497,3.9825,4.1014,4.3838,4.172,4.2092,4.3763,4.3169,4.2946,0.0,0.0,0.0,4.4538,4.3729,4.2938,0.0,0.0,0.0,0.0,0.0,0.0,3.2637,3.2276,3.2545,3.316,3.4237,0.0,0.0,3.6175,3.6326,3.6805,0.0,4.1208,0.0,0.0,0.0,0.0,0.0,0.0,0.0,0.0,0.0,0.0,0.0,0.0,0.0,0.0,0.0,0.0,5.0469,5.0567,5.0427,5.0024,5.0073,4.9949,4.9504,4.9343,4.9002,4.8532,4.8173,4.7853,4.7473,4.7617,4.8022,4.8666,4.8094,4.8304,4.9126,4.8926,4.8837,4.8957,4.9532,4.9343,4.8662,4.9549,4.9386,4.878,4.9576,4.9879,4.9879,0.0,0.0,3.4861,3.5708,3.6602,3.7488,3.8265,3.8464,3.8749,0.0,3.8971,3.8897,3.9714,4.1571,4.1906,3.9714,3.9342,3.8897,3.8079,3.7262,3.6816,3.6816,3.6742,3.6694,3.677,3.7553,3.8091,3.8357,3.9209,3.9561,3.9502,3.9513,3.9813,4.0254,3.9482,3.9965,4.1295,3.9965,4.1051,4.3615,4.2352,4.3466,4.5918,0.0,4.6884,4.7107,4.8519,4.9002,4.8441,4.5597,4.4037,0.0,0.0,0.0,0.0,0.0,3.3554,3.2951,3.2979,3.3134,3.3788,0.0,0.0,0.0,3.572,3.4826,3.4107,0.0,0.0,0.0,0.0,0.0,0.0,0.0,0.0,0.0,0.0,0.0,0.0,0.0,0.0,0.0,0.0,5.051,5.0452,4.9973,5.0168,5.0024,4.9453,4.9627,4.9521,4.8925,4.854,4.7943,4.7199,4.6373,4.6101,4.6266,4.6215,4.6935,4.8375,4.8348,4.8342,4.8419,4.9144,4.9017,4.8371,4.9303,4.9211,4.857,4.9559,4.9462,4.8905,4.9614,4.9879,4.9879,0.0,3.4449,3.5071,3.6573,3.7535,3.8539,3.9911,4.0632,4.1325,4.201,4.25,4.3132,4.3986,4.3318,4.2612,4.2129,4.0903,3.9788,3.8934,3.8116,3.7671,3.7671,3.7039,3.6833,3.7187,3.8024,3.8584,3.8785,3.983,4.0042,3.9502,3.9679,3.9708,3.9652,3.9266,3.9405,3.9963,4.0794,4.146,4.2129,4.3132,4.5807,4.9187,4.9336,4.941,4.9447,4.9745,4.9447,4.8593,4.6727,4.5084,4.3476,0.0,0.0,0.0,3.6041,0.0,0.0,0.0,0.0,0.0,0.0,0.0,0.0,3.4725,3.4056,3.4086,0.0,3.5261,3.5474,0.0,0.0,0.0,0.0,0.0,0.0,0.0,0.0,0.0,0.0,0.0,0.0,0.0,4.9644,4.9875,5.0199,4.9857,4.9558,4.9408,4.9558,4.9499,4.9164,4.9416,4.9344,4.8927,4.8219,4.7495,4.676,4.6194,4.6043,4.6271,4.6157,4.6847,4.8059,4.8082,4.8356,4.8803,4.9246,4.9333,4.9251,4.9693,4.9749,4.9523,4.9814,4.9879,4.9879,3.5108,3.5329,3.6033,3.8101,3.918,4.0424,4.237,4.2592,4.296,4.4146,4.4916,4.501,4.4135,4.4061,4.3392,4.1757,4.0866,4.0011,3.9157,3.8711,3.8488,3.8488,3.8212,3.819,3.8411,3.8921,3.9315,3.9546,3.9928,4.0062,3.9835,3.9797,3.9542,3.9067,3.9239,3.9151,3.8952,4.0384,4.1683,4.2909,4.4135,0.0,4.785,4.9039,4.9522,4.9559,4.9968,4.9596,4.8704,4.7516,4.655,0.0,0.0,4.1258,4.0239,0.0,3.6923,3.5931,0.0,0.0,0.0,3.5607,0.0,0.0,0.0,3.3544,3.309,3.4018,3.338,3.3184,3.4939,0.0,0.0,0.0,0.0,0.0,0.0,0.0,0.0,0.0,0.0,0.0,0.0,4.8414,4.9029,4.9625,4.9224,4.9077,4.9377,4.9439,4.9346,4.9027,4.8877,4.8746,4.8652,4.7545,4.6749,4.6269,4.5529,4.5406,4.5697,4.606,4.693,4.8091,4.838,4.8721,4.916,4.9321,4.9415,4.9446,4.9769,4.9852,4.9835,4.9852,4.9879,4.9879,3.6007,3.6285,3.7162,3.9422,4.0692,4.2129,4.4372,4.4165,4.4308,4.5839,4.6585,4.6314,4.4573,4.4817,4.4377,4.2537,4.1054,4.0179,4.0048,3.9509,3.9063,3.8859,3.9223,3.9377,3.9276,3.9611,3.9924,4.0196,4.0042,4.0042,4.0196,3.9941,3.9456,3.8828,3.911,3.9051,3.8777,4.0103,4.189,4.3875,4.5212,4.5844,4.6252,4.8519,4.9299,4.9224,4.9893,4.9596,4.8779,4.7961,4.7813,4.7256,4.3503,4.276,0.0,0.0,0.0,0.0,0.0,0.0,0.0,0.0,0.0,3.4701,0.0,0.0,0.0,3.3023,3.2184,0.0,0.0,0.0,0.0,0.0,0.0,0.0,0.0,0.0,0.0,0.0,0.0,0.0,0.0,4.6954,4.7798,4.8471,4.8188,4.838,4.9168,4.9213,4.9134,4.9061,4.8394,4.8091,4.8183,4.6576,4.5814,4.5902,4.5077,4.504,4.5648,4.651,4.726,4.7897,4.8632,4.8968,4.9096,4.9309,4.9415,4.9446,4.9769,4.9879,4.9852,4.9879,4.9879,4.9879,3.72,3.7237,3.7826,3.9586,4.1123,4.2674,4.4421,4.5105,4.5772,4.6749,4.7545,4.8574,4.9939,4.6674,4.5776,4.9243,4.3434,4.0697,4.3274,4.0932,3.9013,3.8106,3.8738,3.891,3.8474,3.9346,3.9924,4.0196,4.0356,4.0356,4.0196,3.9941,3.9759,3.9646,3.8733,3.9102,4.0453,4.1376,4.2184,4.3206,4.6215,4.785,0.0,5.045,5.0636,4.9968,5.0079,4.9596,4.8779,0.0,4.8184,4.8296,0.0,4.4426,4.3534,4.1853,0.0,0.0,0.0,0.0,0.0,0.0,3.845,0.0,0.0,0.0,3.4727,3.2827,0.0,0.0,0.0,0.0,0.0,0.0,0.0,0.0,0.0,0.0,0.0,0.0,0.0,0.0,0.0,0.0,4.5875,4.6696,4.6464,4.6947,4.851,4.8513,4.8767,4.9491,4.9333,4.9202,4.9234,4.762,4.6735,4.6576,4.5754,4.5363,4.5388,4.6206,4.6615,4.6727,4.7512,4.7884,4.7988,4.899,4.9415,4.9446,4.9769,4.9835,4.975,4.989,4.9879,4.9879,3.813,3.813,3.8639,4.0276,4.1146,4.238,4.4549,4.6809,4.8105,4.7755,4.9356,5.0741,5.1318,4.9283,4.8333,4.9566,4.5917,4.3886,0.0,0.0,4.0933,4.1423,4.0675,4.0376,4.0623,4.0842,4.0784,4.0372,4.0339,4.0339,4.0372,4.0139,3.9756,3.9299,3.9806,4.0027,4.0152,4.2892,4.381,4.3726,0.0,4.7627,0.0,4.9856,5.0413,5.0116,5.0153,4.9633,4.8813,0.0,4.8054,0.0,0.0,0.0,0.0,0.0,0.0,0.0,0.0,0.0,0.0,0.0,0.0,0.0,3.5899,0.0,3.4568,0.0,0.0,0.0,0.0,0.0,0.0,0.0,3.3199,0.0,0.0,0.0,0.0,0.0,0.0,0.0,0.0,0.0,0.0,0.0,0.0,4.4777,4.5765,4.7491,4.8513,4.8716,4.8995,4.9127,4.9127,4.8007,4.7378,4.7276,4.6462,4.6057,4.603,4.681,4.7181,4.7256,4.8036,4.8475,4.8613,4.9171,4.9476,4.9604,4.9797,4.9852,4.9797,4.9879,4.9879,4.9955,3.8937,3.898,3.9397,4.0518,4.1146,4.2328,4.4862,4.739,4.8934,4.8691,5.0334,5.1994,5.3053,5.1944,5.1473,5.2339,4.9758,4.789,0.0,0.0,4.3053,0.0,0.0,0.0,4.1539,4.1818,4.1395,4.03,4.0304,4.0356,4.0508,4.0286,3.9852,3.9317,4.0769,4.0929,4.044,4.439,4.5677,4.5301,4.7475,4.7738,4.7033,4.9039,4.993,5.0116,5.0153,4.9703,4.8911,4.8309,4.8016,0.0,4.807,0.0,0.0,0.0,0.0,0.0,4.2946,0.0,0.0,0.0,0.0,0.0,0.0,0.0,0.0,0.0,0.0,0.0,0.0,0.0,0.0,0.0,0.0,3.266,0.0,0.0,0.0,0.0,0.0,0.0,0.0,0.0,0.0,0.0,0.0,0.0,4.3924,4.6054,4.7579,4.8334,4.8584,4.8803,4.9027,4.8207,4.7765,4.7701,4.7266,4.7005,4.6847,4.7602,4.7863,4.7738,4.8464,4.8791,4.8894,4.9309,4.9574,4.9721,4.9862,4.9879,4.9879,4.9879,5.0031,5.0334,3.9679,3.9747,3.9889,3.9927,4.1161,4.3014,4.5466,4.6126,4.715,4.9538,4.9917,5.1774,5.6618,5.4646,5.5272,0.0,0.0,5.2213,5.2723,0.0,4.4924,0.0,0.0,4.1745,0.0,4.135,4.1465,3.9819,4.0266,4.0469,4.0508,4.0286,4.0196,4.0196,4.1036,4.1719,4.2427,4.5748,4.7476,4.8115,4.9474,4.9076,4.7738,0.0,4.941,5.0116,5.0116,0.0,0.0,4.8371,4.8277,0.0,0.0,0.0,0.0,0.0,0.0,0.0,0.0,0.0,0.0,4.3169,0.0,0.0,0.0,0.0,3.8792,0.0,0.0,0.0,0.0,0.0,0.0,3.6853,0.0,0.0,0.0,0.0,0.0,0.0,0.0,0.0,0.0,0.0,0.0,0.0,0.0,0.0,4.4124,4.4135,4.5557,4.8861,4.8428,4.8521,4.9384,4.8521,4.7953,4.7701,4.8277,4.8248,4.7698,4.8277,4.8257,4.7735,4.8206,4.8273,4.8109,4.9235,4.9692,4.9721,4.9862,4.9879,4.9879,4.9879,5.041,5.1168,4.0677,4.1177,4.1177,3.9989,4.0768,4.2569,4.5634,4.7644,5.024,5.4343,5.5375,0.0,0.0,6.2747,6.2485,0.0,0.0,5.8156,5.7296,5.3053,0.0,0.0,0.0,4.6225,0.0,0.0,0.0,4.0842,4.1017,4.0893,4.0508,4.0422,4.0321,4.0291,4.2445,4.2967,4.2583,4.7891,4.915,4.7682,0.0,4.9596,4.8987,0.0,0.0,4.7735,4.7927,4.8114,0.0,4.7943,4.8397,4.9051,4.8653,4.8289,4.804,4.7928,4.7379,0.0,0.0,0.0,4.7776,4.5749,0.0,0.0,0.0,0.0,0.0,0.0,0.0,0.0,0.0,0.0,3.9188,3.707,3.6426,0.0,0.0,0.0,0.0,0.0,0.0,0.0,0.0,0.0,0.0,0.0,0.0,0.0,0.0,4.2527,4.4701,4.6418,4.7707,4.8428,4.8521,4.8984,4.9077,4.8846,4.9193,4.9305,4.9106,4.9359,4.9359,4.9164,4.9311,4.9294,4.9144,4.9645,4.9797,4.9721,4.9862,4.9879,4.9879,4.9879,5.0069,5.0486,4.193,4.2143,4.1978,4.0858,4.1949,4.3929,4.6657,5.029,5.3964,5.7415,5.9885,0.0,6.8183,0.0,6.7839,0.0,6.6481,6.384,6.0636,5.7716,0.0,5.4654,5.2243,0.0,0.0,0.0,0.0,0.0,4.2412,4.2082,4.1431,4.1123,4.0883,4.0879,4.3316,4.3558,4.2514,4.8898,5.0191,4.8123,0.0,5.0214,0.0,0.0,4.7804,4.7425,0.0,4.7348,4.7392,4.73,4.7707,4.8211,4.8213,4.7905,4.7662,4.8266,4.79,4.75,4.8241,4.8792,0.0,4.743,4.6102,0.0,4.2611,0.0,0.0,0.0,0.0,0.0,0.0,0.0,0.0,3.8454,3.7502,0.0,0.0,3.3327,0.0,0.0,0.0,0.0,0.0,0.0,0.0,0.0,0.0,0.0,0.0,0.0,4.3522,4.5303,4.7205,4.8263,4.8407,4.9454,4.9857,4.9588,4.9987,5.0024,4.9857,5.0111,5.0097,4.9924,5.0059,5.0073,4.991,4.9962,4.9948,4.9852,4.9879,5.0069,5.0372,5.0372,5.0751,5.1433,4.3359,4.2912,4.2573,4.2692,4.4687,4.6847,0.0,0.0,5.7725,0.0,6.3259,6.7202,6.9617,7.0637,7.1346,7.1921,7.1674,6.9005,6.311,6.2357,0.0,0.0,5.4817,5.3072,5.0755,0.0,0.0,0.0,0.0,4.3893,4.3085,4.22,4.1777,4.1816,4.3673,4.3535,4.2325,4.8759,5.0593,4.9384,5.1585,5.1053,4.8982,4.8843,0.0,4.9139,4.8326,4.7529,4.6817,4.6496,4.6291,4.6177,4.6076,4.5935,4.6092,4.768,4.8138,4.8415,4.9494,4.9013,4.8243,4.8206,0.0,0.0,0.0,0.0,4.6751,0.0,0.0,0.0,0.0,0.0,0.0,4.0854,3.8837,3.6747,0.0,0.0,0.0,0.0,0.0,0.0,0.0,0.0,0.0,0.0,0.0,0.0,0.0,0.0,4.2008,4.5316,4.6932,4.8149,4.892,4.986,5.0206,4.9936,5.0527,5.0507,4.9962,5.0547,5.0489,4.9973,5.0427,5.0486,5.023,5.0197,5.0212,5.0188,4.9986,5.0475,5.1244,5.1282,5.2305,5.3821,4.4195,4.5708,4.7061,4.722,4.7137,4.806,0.0,0.0,0.0,0.0,6.6594,7.0574,7.4888,7.557,7.5797,7.5901,7.4136,0.0,0.0,0.0,0.0,6.151,5.9757,5.7186,5.367,5.2106,0.0,4.6835,0.0,4.3675,4.3085,4.22,4.1485,4.1054,4.4723,4.463,4.2124,4.7786,5.0289,5.0598,5.2396,5.3087,0.0,0.0,4.9954,4.9683,4.7709,4.6701,4.6339,4.5975,4.6551,4.7269,4.6776,4.7406,4.8342,4.8342,4.8767,4.9257,4.9424,4.9881,5.0175,4.9504,4.8586,4.7666,0.0,0.0,0.0,0.0,0.0,0.0,0.0,0.0,0.0,4.02,3.7593,0.0,0.0,0.0,0.0,3.6276,0.0,0.0,0.0,0.0,0.0,0.0,0.0,0.0,0.0,0.0,0.0,4.2739,4.6222,4.8068,4.8094,4.9817,5.0547,5.0275,5.0606,5.072,5.0567,5.0756,5.0773,5.0644,5.0752,5.0717,5.0567,5.0586,5.0466,5.0358,5.0313,5.1114,5.2296,5.2134,5.276,5.3745,4.606,4.9173,5.1623,5.0984,0.0,0.0,5.5123,5.7362,0.0,6.5551,6.9587,0.0,7.5463,7.7396,7.8192,7.7472,7.6192,0.0,7.1256,0.0,0.0,6.5014,6.3264,6.0646,5.7035,5.4511,0.0,4.9125,0.0,4.4497,4.4162,4.2563,4.1771,4.1801,4.4639,4.4793,4.3204,4.7766,5.0364,5.1602,5.2923,0.0,0.0,5.1626,5.0683,4.976,4.8007,4.6646,4.5665,4.568,4.6088,4.6505,4.6244,4.6952,4.7996,4.8134,4.8732,4.9402,4.9848,5.0278,5.0518,5.0076,4.9632,4.915,4.8529,4.8363,4.8301,0.0,0.0,0.0,0.0,0.0,0.0,0.0,0.0,0.0,0.0,0.0,0.0,0.0,3.6199,0.0,0.0,0.0,0.0,0.0,0.0,0.0,0.0,0.0,0.0,4.2316,4.5813,4.7548,4.7415,5.0046,5.0912,4.999,5.058,5.0825,5.0846,5.0863,5.0897,5.0913,5.0913,5.0841,5.0791,5.072,5.0645,5.0604,5.125,5.2226,5.3277,5.3525,5.387,5.4238,4.8509,5.258,5.5517,0.0,0.0,0.0,0.0,6.2268,0.0,6.7964,0.0,7.5122,7.4364,7.7737,7.9443,7.7851,0.0,7.6122,7.2053,7.1846,7.047,6.7331,6.569,6.3392,6.0345,5.6811,5.3703,0.0,0.0,4.5616,4.5372,4.3018,4.2264,4.2973,4.4129,4.466,4.4868,4.8029,5.0326,5.195,5.2917,5.2569,5.1447,5.1873,5.1138,4.9745,4.874,4.7027,4.5239,4.5599,4.5417,4.5065,4.5266,4.5837,4.6647,4.7737,4.8515,4.935,5.049,5.0457,5.0087,5.023,5.023,5.0159,4.9962,5.0062,5.0206,5.0252,4.9717,0.0,0.0,0.0,0.0,0.0,0.0,0.0,0.0,0.0,0.0,0.0,0.0,0.0,0.0,0.0,0.0,0.0,0.0,0.0,0.0,0.0,0.0,4.2662,4.5355,0.0,4.7234,0.0,5.1236,4.9864,5.0549,5.089,5.0897,5.0897,5.0913,5.089,5.0897,5.0913,5.089,5.0773,5.0797,5.1066,5.2602,5.3498,5.4078,5.4931,5.514,5.4971,5.1224,5.4135,5.6262,0.0,0.0,6.2633,6.8438,6.9065,6.9573,7.1333,7.5314,7.7889,7.7737,7.9632,8.0504,7.9556,7.8841,0.0,0.0,0.0,0.0,6.9433,6.7316,6.5006,6.2516,5.8566,5.5344,0.0,0.0,4.534,4.4575,4.2765,4.1971,4.2208,4.45,4.551,4.5645,4.6999,0.0,5.0287,5.1796,5.3111,5.3884,5.1912,5.0945,5.048,4.8933,4.765,4.6638,4.6003,4.5703,4.5642,4.5577,4.6565,4.7876,4.8537,4.9328,5.0191,5.1152,5.084,5.0298,5.0547,5.0385,5.0252,5.0483,5.0358,5.0291,5.0584,5.0489,4.9932,4.8394,0.0,0.0,0.0,0.0,0.0,0.0,0.0,0.0,0.0,0.0,0.0,0.0,0.0,0.0,0.0,0.0,0.0,0.0,0.0,0.0,0.0,0.0,0.0,0.0,0.0,0.0,5.1636,5.1145,5.089,5.089,5.089,5.089,5.0906,5.089,5.089,5.089,5.0874,5.1299,5.2095,5.3649,5.43,5.4489,5.5178,5.5413,5.5339,5.5767,5.7542,5.9095,0.0,0.0,0.0,0.0,7.3715,0.0,7.4524,7.5774,7.6676,7.6676,7.895,8.0125,7.9291,7.8457,7.7434,7.6183,7.4174,7.2357,7.0798,6.8946,0.0,6.3899,5.987,5.656,5.4048,0.0,0.0,4.5032,4.2941,4.2416,4.3332,4.5471,4.697,4.7889,0.0,0.0,5.1099,5.2376,5.3382,5.3923,5.2221,5.1834,5.2028,5.0326,4.9436,4.8817,4.7076,4.6767,4.7076,4.6553,4.7526,4.8977,4.9239,5.0201,5.1139,5.1182,5.1142,5.1003,5.0741,5.0566,5.0504,5.0644,5.0584,5.0504,5.0682,5.0702,5.0164,4.8432,4.6086,0.0,0.0,0.0,0.0,0.0,0.0,0.0,0.0,0.0,0.0,0.0,0.0,0.0,0.0,0.0,0.0,0.0,0.0,0.0,0.0,0.0,0.0,0.0,0.0,0.0,5.0152,5.1106,5.1563,5.1563,5.1531,5.1531,5.1563,5.1531,5.1548,5.1602,5.2066,5.2763,5.3614,5.4396,5.4863,5.5209,5.5549,5.5615,5.5437,6.0632,6.1571,0.0,0.0,6.8302,0.0,7.3684,7.6808,7.8484,7.738,7.6498,7.5956,7.5956,7.8457,7.9822,7.895,7.8116,7.7282,7.6449,7.467,7.308,7.1781,7.0209,6.8032,6.5128,6.1155,5.7657,0.0,0.0,0.0,0.0,4.3255,4.3076,0.0,0.0,0.0,0.0,0.0,5.1409,5.226,5.3149,5.3614,5.3691,5.2801,5.2879,5.3304,5.195,5.1447,5.1099,4.8701,4.8121,4.8275,4.7579,4.8546,4.9977,5.0171,5.1095,5.1951,5.1485,5.1587,5.1721,5.1106,5.1106,5.1164,5.101,5.1087,5.1125,5.0779,5.0702,5.0202,4.8663,4.7317,0.0,0.0,0.0,0.0,0.0,0.0,0.0,0.0,0.0,0.0,0.0,0.0,0.0,0.0,0.0,0.0,0.0,0.0,0.0,0.0,0.0,4.479,4.6142,0.0,5.1018,0.0,5.1493,5.2492,5.2453,5.242,5.242,5.2453,5.242,5.242,5.2531,5.342,5.4194,5.4813,5.5006,5.5362,5.5847,5.5847,5.5766,5.5577,0.0,0.0,0.0,0.0,0.0,0.0,7.7366,7.8386,7.8841,7.9486,7.9524,7.9443,7.9443,8.0352,8.0656,7.986,7.8988,7.8154,7.732,7.5209,7.3458,7.2395,7.0609,6.8679,6.6643,6.2827,5.8874,0.0,0.0,0.0,0.0,0.0,0.0,0.0,0.0,0.0,0.0,4.99,5.1409,5.226,5.3149,5.3962,5.4581,5.3691,5.342,5.3459,5.3304,5.3265,5.2995,5.1177,4.9591,4.8392,4.8314,4.9436,5.0945,5.1718,5.2066,5.2321,5.2966,5.2643,5.2049,5.1895,5.2435,5.2779,5.1972,5.2395,5.2549,5.101,5.0702,5.0394,4.9433,4.9163,4.8279,0.0,0.0,0.0,0.0,0.0,0.0,4.3162,0.0,0.0,0.0,0.0,0.0,0.0,0.0,0.0,0.0,0.0,0.0,4.0546,0.0,4.4773,4.7927,4.9907,0.0,5.2928,5.3249,5.3382,5.3382,5.3382,5.3382,5.3382,5.3382,5.3382,5.3459,5.431,5.4735,5.4851,5.5586,5.5917,5.5995,5.5995,5.5977,5.5941,0.0,0.0,0.0,0.0,0.0,0.0,0.0,7.9153,7.9519,7.986,7.9898,7.9898,7.9898,8.0201,8.0049,7.9177,7.8344,7.7593,7.6921,7.5551,7.4211,7.2907,7.1286,6.9605,6.7795,6.3874,6.0306,0.0,0.0,0.0,0.0,0.0,0.0,0.0,0.0,4.8933,4.9513,5.1563,5.2956,5.3807,5.4155,5.4774,5.5354,5.4,5.4116,5.4929,5.4465,5.4271,5.4155,5.3498,5.2105,5.0519,4.9513,5.0326,5.1757,5.2105,5.2553,5.2868,5.2679,5.2741,5.2685,5.2088,5.2607,5.3126,5.2779,5.2972,5.301,5.2356,5.1779,5.1164,5.0317,4.974,4.9086,0.0,0.0,0.0,0.0,0.0,0.0,0.0,0.0,4.17,0.0,0.0,0.0,0.0,0.0,0.0,0.0,0.0,0.0,4.12,0.0,4.5252,4.8176,4.998,5.1481,5.2696,5.3752,5.4271,5.4271,5.4271,5.4271,5.4271,5.4271,5.4542,5.5045,5.5393,5.5509,5.5548,5.5857,5.6012,5.6012,5.6012,5.6012,5.6072,7.3606,0.0,7.285,0.0,7.5928,7.6114,7.9127,7.9803,7.9898,7.9898,8.0087,8.0163,7.9936,7.9898,7.9632,7.9026,7.8087,7.7452,7.7227,7.615,7.4905,7.3545,7.2146,0.0,6.8462,6.5192,6.2046,5.899,5.6051,0.0,0.0,0.0,0.0,0.0,4.9784,5.0751,5.1409,5.3149,5.4233,5.4813,5.5045,5.5509,5.5857,5.4697,5.4967,5.5935,5.5354,5.5161,5.5122,5.489,5.3962,5.2708,5.1293,5.1796,5.2956,5.294,5.3331,5.3644,5.2972,5.3244,5.3494,5.2818,5.3318,5.3857,5.3626,5.378,5.3857,5.3626,5.2702,5.1741,5.1164,5.0356,4.9702,0.0,0.0,0.0,0.0,0.0,0.0,0.0,4.22,4.1662,4.1777,0.0,0.0,0.0,0.0,0.0,0.0,0.0,0.0,0.0,0.0,0.0,0.0,5.0267,5.1863,5.3,5.4448,5.5161,5.5161,5.5161,5.5161,5.5161,5.5161,5.547,5.6012,5.6012,5.6012,5.6012,5.6012,5.6012,5.6051,5.6283,5.6399,5.6515,7.6828,7.6638,7.7093,8.0428,7.9632,7.9102,8.0807,8.039,7.9898,7.9898,8.058,8.0769,7.9973,7.9898,7.9898,7.9898,7.8595,7.8142,7.8904,7.7093,7.5515,0.0,0.0,7.1279,6.8462,6.6913,6.4097,5.988,0.0,0.0,5.2144,0.0,5.0867,5.0906,5.1796,5.2182,5.2298,5.4039,5.4774,5.4851,5.5664,5.6012,5.6012,5.5973,5.5973,5.6012,5.6012,5.6012,5.5857,5.5084,5.474,5.4512,5.3713,5.4039,5.4757,5.4684,5.4666,5.4648,5.4516,5.4477,5.4495,5.4493,5.5049,5.5472,5.4664,5.5088,5.5434,5.4664,5.3126,5.1895,5.1895,5.1241,5.0394,4.9548,0.0,0.0,0.0,0.0,0.0,0.0,4.3778,4.3624,4.197,0.0,0.0,0.0,0.0,0.0,0.0,0.0,0.0,4.1739,4.3481,0.0,4.8265,5.0863,5.3039,5.4774,5.5586,5.6012,5.6012,5.6012,5.6012,5.6012,5.6012,5.6012,5.6012,5.6012,5.6012,5.6012,5.6012,5.6012,5.6089,5.6979,5.7288,5.7404,7.9091,7.9461,7.967,8.0201,8.0769,8.0997,8.0352,8.0718,8.0722,8.0017,8.03,8.038,7.9979,8.039,8.0049,0.0,7.7948,7.772,0.0,7.657,7.5655,7.4925,7.3388,7.1617,6.954,6.7325,6.5257,6.3362,0.0,0.0,0.0,5.5122,5.4967,5.4426,5.5277,5.5664,5.5741,5.6902,5.7056,5.6553,5.6786,5.6553,5.6012,5.6012,5.6012,5.6012,5.6012,5.6012,5.5956,5.5706,5.5593,5.5555,5.5228,5.49,5.4669,5.465,5.4593,5.4555,5.4535,5.4495,5.4493,5.4511,5.5088,5.5626,5.5395,5.5511,5.5472,5.4664,5.4049,5.351,5.2895,5.2087,5.1241,5.0433,0.0,0.0,0.0,0.0,0.0,0.0,4.2816,4.2624,0.0,4.2162,0.0,0.0,0.0,0.0,0.0,0.0,0.0,0.0,4.6985,0.0,5.1661,5.2563,5.3889,5.5625,5.5896,5.6012,5.6012,5.6012,5.6012,5.6012,5.6012,5.6012,5.6012,5.6012,5.6012,5.6012,5.6012,5.636,5.694,5.7211,5.7675,5.8294,8.0201,8.0494,8.0504,7.9973,8.0769,8.1116,8.0182,8.0616,8.0848,8.0273,8.0583,8.0736,8.0275,8.0921,0.0,7.8666,7.8142,7.7934,7.7969,7.6822,7.5851,7.516,7.3806,7.2104,7.0054,0.0,0.0,6.545,6.2046,5.9377,5.7482,5.7675,5.7521,5.7018,5.7559,5.7791,5.783,5.8372,5.8294,5.7791,5.7791,5.7288,5.6476,5.6476,5.6283,5.6012,5.6012,5.6012,5.5995,5.5998,5.5961,5.5943,5.5885,5.548,5.5036,5.5056,5.4998,5.4978,5.4957,5.4955,5.5011,5.5357,5.5549,5.5703,5.5703,5.5703,5.5549,5.5049,5.4703,5.4318,5.378,5.2702,5.1741,5.1241,0.0,4.924,4.6471,0.0,0.0,0.0,0.0,0.0,0.0,4.3932,0.0,0.0,0.0,0.0,0.0,0.0,0.0,4.6855,4.8929,0.0,5.332,5.3739,5.4641,5.6012,5.6321,5.6321,5.6012,5.636,5.6476,5.6476,5.6128,5.6205,5.6476,5.6128,5.6012,5.6012,5.6012,5.6553,5.7327,5.7675,5.8333,5.9223,8.0354,8.0154,0.0,0.0,8.0017,0.0,8.0276,8.0392,8.0506,8.0681,8.1368,8.1559,8.0792,8.1368,8.1415,8.0431,0.0,0.0,0.0,7.7666,7.6049,7.5237,7.4347,7.2684,7.0131,6.9319,6.8003,6.6185,6.2975,6.0925,6.0074,5.9223,5.8836,5.8758,5.8758,5.8758,5.8758,5.8758,5.872,5.8681,5.8681,5.8178,5.7404,5.7327,5.6824,5.6089,5.6012,5.6012,5.5995,5.5998,5.5981,5.5982,5.5923,5.5882,5.5878,5.5882,5.5825,5.5766,5.5801,5.578,5.5972,5.678,5.6434,5.5895,5.5895,5.5895,5.5895,5.5895,5.528,5.4741,5.4664,5.3241,5.2049,5.201,5.0548,4.8817,4.7163,0.0,0.0,0.0,0.0,0.0,0.0,4.674,4.7124,0.0,0.0,0.0,0.0,0.0,4.6471,4.724,4.9735,5.191,5.3647,5.4469,5.5277,5.6089,5.6902,5.6902,5.6205,5.7018,5.7404,5.7366,5.6515,5.6631,5.7327,5.6515,5.6167,5.6167,5.6167,5.6708,5.7598,5.8372,5.9223,6.0074,0.0,0.0,8.1156,8.0351,8.1423,8.1957,8.0545,8.1144,8.1541,8.0792,8.1036,8.1138,8.075,8.0869,8.0975,8.0914,7.9438,7.8883,7.9827,7.7692,7.632,7.6088,7.4695,7.2993,7.1021,7.0131,6.8545,6.6185,6.4754,6.3284,6.1814,6.1621,6.1157,6.0499,6.0499,6.0499,6.0499,6.0499,6.0151,5.9571,5.9571,5.9068,5.8217,5.7559,5.7172,5.6902,5.6244,5.6012,5.5995,5.5998,5.6405,5.6888,5.6869,5.7274,5.7639,5.69,5.6225,5.5878,5.6511,5.6665,5.6742,5.6934,5.7357,5.7665,5.7665,5.7665,5.7665,5.7665,5.755,5.7203,5.6511,5.5011,5.3664,5.301,5.0933,4.8817,4.7163,4.6894,0.0,0.0,4.6471,4.7702,4.8163,4.8125,4.8125,0.0,0.0,0.0,0.0,0.0,5.126,5.0798,5.272,5.4589,5.627,5.59,5.6167,5.6979,5.7211,5.7559,5.7985,5.8217,5.8294,5.8294,5.8062,5.8101,5.8294,5.8062,5.7985,5.7985,5.7985,5.8526,5.93,5.9532,6.0112,6.0847,8.1099,8.1228,8.1144,8.058,8.1377,8.1716,8.0796,8.126,8.157,8.1146,8.1186,8.1253,8.1069,8.1069,8.1128,8.128,7.9654,7.8854,7.9428,7.7548,7.6204,7.5817,7.4579,7.3264,7.191,7.0634,6.8932,6.6804,6.5953,6.487,6.3555,6.2781,6.2162,6.1698,6.1273,6.1118,6.1118,6.1118,6.0847,6.046,6.046,5.9919,5.9145,5.8681,5.8255,5.783,5.7366,5.7172,5.7155,5.712,5.7371,5.7757,5.7698,5.8006,5.8333,5.8273,5.7576,5.6977,5.7478,5.7572,5.7588,5.7588,5.8242,5.8742,5.8396,5.8319,5.8319,5.8319,5.8319,5.805,5.7165,5.5626,5.4087,5.2818,5.0164,4.7817,4.6471,4.6317,0.0,4.6201,4.8028,4.947,4.9932,5.0644,5.0778,5.0085,0.0,0.0,5.0005,5.2895,5.3764,5.2087,5.4514,5.6289,5.7177,5.7193,5.7443,5.7907,5.8294,5.8526,5.8604,5.899,5.9184,5.9184,5.8758,5.8836,5.9145,5.8758,5.8604,5.8604,5.8604,5.9145,5.988,5.988,6.0422,6.1118,8.1157,8.0977,8.0855,8.0937,8.0893,8.092,8.1261,8.1205,8.1253,8.1478,8.1504,8.1504,8.1504,8.1504,8.1504,8.1504,7.988,7.8965,7.9183,7.7558,7.6165,7.516,7.4463,7.3535,7.2413,7.0827,6.928,6.7887,6.6882,6.5915,6.4948,6.3478,6.2704,6.2549,6.1814,6.1427,6.1311,6.1311,6.1234,6.1118,6.1118,6.0692,6.0074,5.9957,5.9455,5.8758,5.8642,5.8604,5.8604,5.8472,5.851,5.8625,5.8546,5.8603,5.8893,5.9667,5.9338,5.868,5.8543,5.8501,5.8534,5.8649,5.9226,5.9534,5.8842,5.8688,5.8688,5.8688,5.8688,5.838,5.7379,5.5724,5.3993,5.2376,4.9105,4.6527,4.589,0.0,4.6352,4.7181,4.9776,5.1529,5.1644,5.3571,5.3975,5.2085,5.3705,0.0,0.0,5.5112,5.5323,5.297,5.5825,5.7428,5.7428,5.8315,5.8797,5.8797,5.9532,5.9571,5.899,5.9725,6.0074,6.0035,5.93,5.9416,6.0035,5.9261,5.899,5.899,5.899,5.9416,6.0074,6.0074,6.0499,6.1118,8.1453,8.1388,8.154,8.2062,8.1716,8.154,8.2092,8.1771,8.1453,8.1504,8.1504,8.1504,8.1504,8.1504,8.1504,8.1504,8.055,7.997,8.0034,7.8448,7.6784,7.516,7.5005,7.3844,7.1562,7.0518,6.986,6.9589,6.8042,6.6495,6.4986,6.4715,6.4213,6.3478,6.3362,6.2897,6.2201,6.2201,6.1776,6.1118,6.1118,6.1041,6.0847,6.0151,5.9803,5.9609,5.8874,5.8604,5.8604,5.8586,5.905,5.9668,5.965,6.0113,6.0693,6.0828,6.0751,6.0441,5.9686,5.9472,5.9665,6.0398,6.0668,6.0723,6.0525,6.0503,6.0503,6.0503,6.0503,6.0025,5.8449,5.6154,5.4169,5.3262,4.9024,4.6116,4.6706,0.0,4.8172,4.8981,5.2664,5.5364,5.6136,5.5905,5.6097,5.7139,5.6252,5.5885,5.6405,5.7486,5.7621,5.6536,5.7696,5.8372,5.8372,5.9261,5.9687,5.9687,5.9841,6.019,6.0731,6.0847,6.0925,6.0925,6.077,6.0809,6.0886,6.077,6.0692,6.0692,6.0692,6.0809,6.0925,6.0925,6.1002,6.1118,8.1504,8.1504,8.1594,8.1876,8.2071,8.2136,8.1953,8.2071,8.2045,8.1581,8.1504,8.1504,8.1504,8.1504,8.1504,8.1504,8.0691,8.0188,8.0188,7.9067,7.7829,7.6552,7.6049,7.4618,7.2065,7.1137,7.0479,6.9976,6.8777,6.7578,6.634,6.5412,6.4793,6.4367,6.3903,6.3207,6.2394,6.2394,6.1892,6.1118,6.1118,6.1118,6.1079,6.0692,6.0538,6.0499,6.0074,5.9957,5.9957,5.9882,6.0152,6.05,6.05,6.108,6.1737,6.1795,6.1737,6.162,6.1173,6.1383,6.1846,6.2232,6.2326,6.2282,6.2259,6.2259,6.2259,6.2259,6.1896,6.1246,6.0033,5.7698,5.5538,5.4207,5.01,0.0,0.0,4.8707,4.9616,5.1391,5.4553,5.6965,5.7815,5.7989,5.8201,5.8471,5.8239,5.8007,5.7949,5.876,5.9088,5.872,5.9106,5.9493,5.9957,6.0344,6.0538,6.0538,6.0538,6.0731,6.1118,6.1118,6.1118,6.1118,6.1118,6.1118,6.1118,6.1118,6.1118,6.1118,6.1118,6.1118,6.1118,6.1118,6.1118,6.1118,8.1542,8.1658,8.189,8.2084,8.2471,8.2625,8.22,8.2316,8.2277,8.1581,8.1504,8.1504,8.1504,8.1504,8.1504,8.1504,8.0885,8.042,8.0227,7.9801,7.8912,7.7442,7.6359,7.4889,7.2955,7.2065,7.1175,7.0286,6.9473,6.8545,6.7462,6.6185,6.545,6.5257,6.4561,6.3826,6.2975,6.2781,6.2201,6.1389,6.1195,6.1118,6.1118,6.1118,6.1118,6.1118,6.1118,6.1118,6.1079,6.1041,6.1176,6.1331,6.1331,6.1911,6.2645,6.2685,6.2801,6.2877,6.2643,6.3047,6.3548,6.3548,6.3527,6.3483,6.3461,6.3461,6.3461,6.3461,6.2965,6.2253,6.1464,5.9224,5.7024,5.5479,0.0,0.0,0.0,5.0825,5.1812,5.4051,5.6714,5.8664,5.9321,6.0248,6.0499,5.9841,6.0422,6.0383,5.9532,6.0112,6.046,6.046,6.0267,6.046,6.1079,6.1118,6.1118,6.1118,6.1118,6.1118,6.1118,6.1118,6.1118,6.1118,6.1118,6.1118,6.1118,6.1118,6.1118,6.1118,6.1118,6.1118,6.1118,6.1118,6.1118,6.1118,8.1658,8.2161,8.2973,8.3786,8.3283,8.3051,8.3786,8.2587,8.1581,8.1504,8.1504,8.1504,8.1504,8.1504,8.1504,8.1504,8.1465,8.1078,8.0266,8.0923,7.9879,7.663,7.4966,7.3999,7.3806,7.2955,7.2065,7.1214,7.0324,6.9087,6.7501,6.7384,6.6882,6.6108,6.6031,6.5566,6.4754,6.3942,6.3091,6.224,6.1427,6.1118,6.1118,6.1118,6.1118,6.1118,6.1118,6.1118,6.1118,6.1079,6.1621,6.2317,6.2317,6.2897,6.3594,6.3594,6.4174,6.4638,6.3826,6.3632,6.371,6.371,6.3671,6.3651,6.359,6.357,6.357,6.357,6.3552,6.3243,6.2453,6.0152,5.8123,5.7232,0.0,0.0,5.3094,5.4525,5.5879,5.6884,5.9978,6.2046,6.2124,6.2897,6.34,6.3323,6.3362,6.3052,6.2162,6.2201,6.224,6.224,6.1427,6.1041,6.1118,6.1118,6.1118,6.1118,6.1118,6.1118,6.1118,6.1118,6.1118,6.1118,6.1118,6.1118,6.1118,6.1118,6.1118,6.1118,6.1118,6.1118,6.1118,6.1118,6.1118,6.1118,8.1581,8.22,8.2741,8.2509,8.3515,8.4095,8.3399,8.3206,8.2935,8.2393,8.1852,8.1504,8.1504,8.1504,8.1504,8.1504,8.1504,8.1349,8.1039,8.131,8.0459,7.8099,7.6862,7.5508,7.3922,7.3032,7.2452,7.2104,7.0672,6.9938,6.9821,6.8236,6.7307,6.6998,6.6456,6.576,6.4986,6.4638,6.3671,6.2356,6.2046,6.1582,6.1157,6.1698,6.193,6.1969,6.2511,6.2704,6.2704,6.2704,6.2936,6.3207,6.3207,6.3787,6.4599,6.5102,6.5876,6.6495,6.6147,6.5644,6.5373,6.5915,6.6049,6.5968,6.5947,6.5947,6.5793,6.5252,6.477,6.4386,6.4058,6.2298,6.0828,6.0499,0.0,5.6652,5.8023,5.8333,5.8913,6.0306,6.2085,6.3207,6.3207,6.398,6.429,6.3748,6.4213,6.4135,6.3245,6.3207,6.3207,6.3207,6.2897,6.2704,6.2704,6.2162,6.193,6.1892,6.135,6.1389,6.1892,6.135,6.1389,6.1892,6.135,6.1118,6.1118,6.1118,6.1118,6.1118,6.1118,6.1118,6.1118,6.1118,6.1118,6.1118,8.1968,8.2819,8.3322,8.2471,8.3747,8.4443,8.3012,8.3322,8.3476,8.2857,8.2277,8.1929,8.1929,8.1658,8.1504,8.1504,8.1504,8.1504,8.1504,8.1504,8.0769,7.9067,7.8177,7.663,7.4347,7.3458,7.2877,7.2607,7.1137,7.0556,7.0827,6.9087,6.8003,6.7462,6.6882,6.6147,6.5373,6.5102,6.429,6.3207,6.2936,6.2433,6.1969,6.2588,6.282,6.2897,6.3478,6.371,6.371,6.371,6.3864,6.4097,6.4097,6.487,6.5953,6.6766,6.7423,6.7926,6.7926,6.7462,6.7152,6.7771,6.7845,6.7823,6.7823,6.7823,6.7669,6.7051,6.6552,6.6185,6.6185,6.4986,6.3826,6.3284,6.1737,6.0809,6.1427,6.1505,6.1814,6.2704,6.3787,6.4367,6.4135,6.487,6.5141,6.4522,6.5025,6.4986,6.4135,6.3826,6.3942,6.4483,6.4483,6.4754,6.5296,6.3632,6.2665,6.2394,6.2085,6.224,6.2781,6.2201,6.2085,6.2394,6.2046,6.1621,6.1118,6.1389,6.135,6.1118,6.1118,6.1118,6.1118,6.1118,6.1273,6.1505,8.2973,8.4134,8.5024,8.425,8.4095,8.3824,8.2935,8.2819,8.2819,8.2819,8.278,8.278,8.278,8.2006,8.1504,8.1504,8.1504,8.1504,8.1504,8.1504,8.0769,7.9067,7.8177,7.69,7.516,7.4347,7.3496,7.2607,7.1756,7.0866,7.0015,7.0015,6.9125,6.7539,6.7501,6.7036,6.6147,6.5334,6.4986,6.4909,6.4058,6.371,6.371,6.371,6.371,6.371,6.371,6.371,6.371,6.371,6.429,6.4986,6.5025,6.6185,6.7694,6.8545,6.8816,6.8816,6.8816,6.8816,6.8816,6.8816,6.8816,6.8816,6.8816,6.8816,6.8816,6.8816,6.8816,6.8816,6.8816,6.8081,6.6959,6.5296,6.5025,6.4406,6.2704,6.3942,6.4677,6.3826,6.518,6.5876,6.5102,6.5721,6.6185,6.6185,6.6185,6.5837,6.5064,6.4174,6.4483,6.6147,6.6185,6.7036,6.8738,6.5412,6.3284,6.2433,6.3284,6.371,6.371,6.371,6.3245,6.2472,6.3323,6.2704,6.1195,6.2046,6.1892,6.1118,6.1118,6.1118,6.1118,6.1118,6.166,6.2394,8.3631,8.4095,8.4366,8.4134,8.5062,8.5565,8.4675,8.4057,8.3708,8.3708,8.2664,8.189,8.189,8.1658,8.1504,8.1504,8.1504,8.1504,8.1504,8.1504,8.1001,7.9879,7.9608,7.837,7.6049,7.5779,7.5237,7.4347,7.2916,7.2375,7.2684,7.0866,6.9744,6.9203,6.8003,6.7346,6.7075,6.6185,6.5837,6.5837,6.5566,6.5102,6.4677,6.5218,6.5102,6.4677,6.5257,6.545,6.545,6.545,6.5644,6.5953,6.6572,6.7539,6.8468,6.8738,6.9203,6.9628,6.9628,7.0092,7.0402,6.9783,6.9628,6.9628,6.9628,6.9628,6.9473,6.8932,6.8816,6.8816,6.8816,6.8584,6.8236,6.7733,6.7152,6.6804,6.6882,6.6301,6.5953,6.6301,6.6263,6.6108,6.5876,6.6069,6.6185,6.6185,6.6185,6.6108,6.5837,6.5605,6.5682,6.6185,6.6185,6.6185,6.6147,6.5682,6.5334,6.5064,6.4135,6.4019,6.4599,6.398,6.3903,6.4213,6.3826,6.3052,6.2046,6.2278,6.1892,6.1118,6.1118,6.1118,6.1157,6.1776,6.2201,6.2511,8.4482,8.483,8.4985,8.4637,8.541,8.5797,8.4946,8.4675,8.4559,8.4559,8.367,8.2896,8.2548,8.2238,8.189,8.1542,8.1504,8.1504,8.1504,8.1504,8.1271,8.073,8.073,7.9531,7.6978,7.6591,7.5972,7.5121,7.3419,7.2877,7.3342,7.1407,7.0324,6.9938,6.8932,6.8313,6.7965,6.7462,6.723,6.723,6.723,6.7114,6.7036,6.7501,6.7384,6.7075,6.7926,6.8003,6.7694,6.7694,6.7501,6.7384,6.8236,6.8854,6.9357,6.9705,7.0131,7.0518,7.0518,7.0905,7.1175,7.0634,7.0518,7.0518,7.0518,7.0518,7.0363,6.9899,6.9783,6.9783,6.9783,6.9783,6.9667,6.9319,6.8816,6.8545,6.8777,6.7887,6.7423,6.7965,6.7539,6.723,6.723,6.692,6.6572,6.6224,6.6185,6.6185,6.6185,6.6533,6.6727,6.6727,6.7036,6.6998,6.6495,6.665,6.6379,6.5721,6.5025,6.4948,6.545,6.4909,6.4986,6.545,6.5296,6.4715,6.3942,6.429,6.371,6.2627,6.2627,6.2433,6.224,6.3091,6.3632,6.4019,8.541,8.5991,8.6261,8.5526,8.541,8.5178,8.4443,8.4869,8.5294,8.5294,8.5256,8.4908,8.4173,8.3322,8.2471,8.1697,8.1542,8.1504,8.1504,8.1504,8.1504,8.1504,8.1504,8.0382,7.7983,7.7094,7.6204,7.5353,7.3574,7.2723,7.2684,7.1756,7.0866,7.0092,7.0015,6.9589,6.8893,6.8816,6.8854,6.8932,6.8932,6.9357,6.9976,6.9976,6.9938,7.0015,7.0789,7.0556,6.9899,6.9899,6.9435,6.9048,6.9783,7.0054,7.0247,7.1059,7.1291,7.1291,7.1291,7.1291,7.1291,7.1291,7.1291,7.1291,7.1291,7.1291,7.133,7.1407,7.133,7.133,7.1407,7.133,7.1021,7.0247,7.0054,6.9783,6.9125,6.8893,6.8816,6.8893,6.8854,6.8816,6.8816,6.8081,6.7307,6.6495,6.6417,6.6417,6.6417,6.7191,6.7617,6.7617,6.8313,6.87,6.87,6.7887,6.6727,6.5218,6.5876,6.6185,6.6185,6.6185,6.6185,6.6263,6.7114,6.6998,6.6263,6.7152,6.6533,6.5102,6.5102,6.4599,6.4019,6.4793,6.5566,6.6301,8.6184,8.5913,8.5759,8.6223,8.6339,8.6261,8.6068,8.5643,8.5294,8.5294,8.4753,8.4289,8.4134,8.3322,8.2703,8.2509,8.189,8.1504,8.1504,8.1504,8.1504,8.1504,8.1504,8.0923,7.9685,7.8873,7.8022,7.7132,7.4773,7.3612,7.3574,7.2026,7.1214,7.0982,7.0286,6.9899,6.9705,6.9087,6.9164,6.9744,6.9744,6.9821,6.9976,6.9976,6.9589,6.9087,6.928,6.9241,6.9048,6.9048,6.9357,6.9783,6.9938,7.0479,7.1059,7.1253,7.1291,7.1291,7.1291,7.1291,7.1291,7.1291,7.1291,7.1291,7.1291,7.1291,7.1485,7.2181,7.1794,7.1523,7.2181,7.1756,7.1253,7.1059,7.044,7.017,7.0672,6.9628,6.9048,6.9667,6.9164,6.8816,6.8816,6.8622,6.8429,6.8236,6.8236,6.8236,6.8236,6.8429,6.8506,6.8506,6.8042,6.7771,6.7771,6.7578,6.7307,6.6959,6.6456,6.6185,6.6185,6.6185,6.6185,6.6263,6.7114,6.6998,6.6263,6.7152,6.6882,6.5953,6.5953,6.5837,6.5682,6.5876,6.6031,6.6301,8.661,8.6223,8.6068,8.6532,8.661,8.661,8.661,8.6223,8.5913,8.5913,8.5565,8.514,8.4714,8.3902,8.3089,8.2238,8.1774,8.1504,8.1504,8.1504,8.1504,8.1504,8.1504,8.131,8.0846,7.9995,7.895,7.7713,7.5933,7.4889,7.4425,7.2723,7.191,7.1872,7.1021,7.0634,7.0595,7.017,7.0247,7.0634,7.0634,7.1098,7.1833,7.1407,7.1253,7.1214,7.1214,7.0982,7.0595,7.0595,7.0634,7.0634,7.0634,7.0943,7.1291,7.1291,7.1291,7.1291,7.1291,7.1601,7.191,7.191,7.222,7.2336,7.1485,7.1601,7.2065,7.2491,7.2568,7.2568,7.2607,7.222,7.1794,7.1369,7.0905,7.0789,7.1253,7.0556,7.0131,7.0556,7.0247,6.9821,6.9396,6.9357,6.9203,6.8816,6.9164,6.9203,6.8816,6.9938,7.0054,6.8854,6.9125,6.8932,6.8119,6.8119,6.8313,6.8661,6.7849,6.7423,6.7423,6.6998,6.7036,6.7423,6.7501,6.7501,6.7501,6.7926,6.7849,6.7384,6.6998,6.7075,6.7423,6.7423,6.7694,6.8119,8.6996,8.6958,8.6996,8.6842,8.6958,8.6996,8.6842,8.6842,8.6764,8.661,8.661,8.6339,8.5604,8.4675,8.3476,8.1852,8.1581,8.1504,8.1504,8.1504,8.1504,8.1504,8.1504,8.1504,8.1504,8.0807,7.9685,7.8138,7.6978,7.6011,7.5276,7.3458,7.2607,7.2568,7.1678,7.1291,7.1291,7.1291,7.1291,7.1291,7.1291,7.2181,7.338,7.2645,7.2839,7.3496,7.3612,7.3226,7.2607,7.2607,7.2026,7.1291,7.1291,7.1407,7.1485,7.133,7.1407,7.1523,7.1523,7.2065,7.2645,7.2761,7.338,7.3535,7.2065,7.2297,7.2877,7.2993,7.3496,7.3728,7.3148,7.28,7.2375,7.164,7.1407,7.1291,7.1291,7.1291,7.1291,7.1291,7.1291,7.1021,7.0286,7.0208,6.9938,6.928,6.9976,7.0131,6.9512,7.1601,7.1833,6.9744,7.0866,7.0866,6.9473,6.9435,6.9783,7.044,6.9938,6.9435,6.897,6.7965,6.7887,6.8545,6.781,6.7926,6.8584,6.8738,6.8816,6.8738,6.8158,6.8274,6.8777,6.8622,6.9009,6.9667,8.7886,8.8312,8.8621,8.7847,8.835,8.8582,8.7847,8.7731,8.7461,8.6687,8.661,8.6571,8.6455,8.5024,8.3708,8.2703,8.1929,8.1504,8.1504,8.1504,8.1504,8.1504,8.1504,8.1504,8.1504,8.1387,8.0846,7.9879,7.7519,7.632,7.6165,7.3728,7.2607,7.2568,7.1678,7.1291,7.1291,7.1291,7.1291,7.1291,7.1291,7.1446,7.164,7.1523,7.1562,7.1756,7.2491,7.2684,7.2607,7.2607,7.2026,7.1291,7.1291,7.1833,7.2297,7.1523,7.1833,7.2413,7.2413,7.2491,7.2761,7.3535,7.3806,7.3844,7.3612,7.3651,7.3922,7.4618,7.4309,7.4077,7.4657,7.3574,7.2568,7.2452,7.1794,7.1291,7.1291,7.1291,7.1291,7.1291,7.1291,7.1253,7.1137,7.1098,7.1059,7.0982,7.1756,7.2181,7.2104,7.3148,7.3574,7.3226,7.2684,7.2336,7.2104,7.2104,7.2142,7.2258,7.2916,7.2026,6.9783,6.8197,6.7578,6.7655,6.7539,6.7578,6.7733,6.8506,6.8816,6.8854,6.9435,6.9319,6.87,6.7965,6.7733,6.7849,8.8776,8.8931,8.9085,8.8698,8.8931,8.9085,8.8698,8.8196,8.777,8.7383,8.6919,8.661,8.661,8.5526,8.425,8.2896,8.2432,8.2006,8.1542,8.1504,8.1504,8.1504,8.1504,8.1504,8.1504,8.1504,8.131,8.0923,7.9299,7.8022,7.7094,7.5469,7.4463,7.396,7.2607,7.2026,7.2026,7.2026,7.1756,7.133,7.1833,7.2026,7.1949,7.1485,7.1601,7.2065,7.2452,7.2916,7.3342,7.3342,7.3071,7.2761,7.2761,7.3303,7.3922,7.3535,7.4038,7.4734,7.4734,7.5082,7.543,7.5314,7.5662,7.5895,7.5392,7.5314,7.5276,7.5121,7.5198,7.5276,7.5121,7.4115,7.3187,7.2684,7.1872,7.1291,7.1291,7.1291,7.1291,7.1291,7.1291,7.1291,7.1291,7.1291,7.1291,7.1291,7.2104,7.2607,7.2607,7.3844,7.4347,7.3922,7.396,7.3767,7.3342,7.3342,7.3535,7.3999,7.3922,7.3303,7.2142,7.0905,6.9821,6.8854,6.8429,6.7655,6.6804,6.7191,6.7617,6.8081,6.7926,6.7965,6.8081,6.8197,6.7926,6.7578]}]]